Wetterdaten: Dienstag, 26.07.2016
Datum Zeit Temp. A. Temp. A. max Feuchte A. Luftdruck Regen Wind Richtung Richtung Sonnenschein ET UV Solar Taupunkt Windben
26.07.2016 00:00 17,3 C 17,3 C 92 % 1017,9 hPa 0,0 mm 0,0 km/h (0 Bft) S 177 0 min 0,000 mm 0,0 UV-I 0 W/m 16,0 C 0,0 km/h (0 Bft)
26.07.2016 00:01 17,3 C 17,3 C 92 % 1017,9 hPa 0,0 mm 0,0 km/h (0 Bft) S 177 0 min 0,000 mm 0,0 UV-I 0 W/m 16,0 C 0,0 km/h (0 Bft)
26.07.2016 00:02 17,3 C 17,3 C 92 % 1017,9 hPa 0,0 mm 0,0 km/h (0 Bft) S 177 0 min 0,000 mm 0,0 UV-I 0 W/m 16,0 C 0,0 km/h (0 Bft)
26.07.2016 00:03 17,3 C 17,3 C 92 % 1017,9 hPa 0,0 mm 0,0 km/h (0 Bft) S 177 0 min 0,000 mm 0,0 UV-I 0 W/m 16,0 C 0,0 km/h (0 Bft)
26.07.2016 00:04 17,3 C 17,3 C 92 % 1017,9 hPa 0,0 mm 0,0 km/h (0 Bft) S 177 0 min 0,000 mm 0,0 UV-I 0 W/m 16,0 C 0,0 km/h (0 Bft)
26.07.2016 00:05 17,3 C 17,3 C 92 % 1017,9 hPa 0,0 mm 0,0 km/h (0 Bft) S 177 0 min 0,000 mm 0,0 UV-I 0 W/m 16,0 C 0,0 km/h (0 Bft)
26.07.2016 00:06 17,3 C 17,3 C 92 % 1017,9 hPa 0,0 mm 0,0 km/h (0 Bft) S 181 0 min 0,000 mm 0,0 UV-I 0 W/m 16,0 C 0,0 km/h (0 Bft)
26.07.2016 00:07 17,4 C 17,4 C 92 % 1017,9 hPa 0,0 mm 0,0 km/h (0 Bft) S 180 0 min 0,000 mm 0,0 UV-I 0 W/m 16,1 C 0,0 km/h (0 Bft)
26.07.2016 00:08 17,4 C 17,4 C 92 % 1017,8 hPa 0,0 mm 0,0 km/h (0 Bft) S-SO 163 0 min 0,000 mm 0,0 UV-I 0 W/m 16,1 C 0,0 km/h (0 Bft)
26.07.2016 00:09 17,4 C 17,4 C 92 % 1017,9 hPa 0,0 mm 0,0 km/h (0 Bft) S-SO 163 0 min 0,000 mm 0,0 UV-I 0 W/m 16,1 C 0,0 km/h (0 Bft)
26.07.2016 00:10 17,3 C 17,4 C 92 % 1017,9 hPa 0,0 mm 0,0 km/h (0 Bft) S-SO 163 0 min 0,000 mm 0,0 UV-I 0 W/m 16,0 C 0,0 km/h (0 Bft)
26.07.2016 00:11 17,3 C 17,3 C 92 % 1017,8 hPa 0,0 mm 0,0 km/h (0 Bft) S-SO 163 0 min 0,000 mm 0,0 UV-I 0 W/m 16,0 C 0,0 km/h (0 Bft)
26.07.2016 00:12 17,3 C 17,3 C 91 % 1017,8 hPa 0,0 mm 0,0 km/h (0 Bft) W-SW 240 0 min 0,000 mm 0,0 UV-I 0 W/m 15,8 C 0,0 km/h (0 Bft)
26.07.2016 00:13 17,4 C 17,4 C 91 % 1017,8 hPa 0,0 mm 0,0 km/h (0 Bft) W-SW 240 0 min 0,000 mm 0,0 UV-I 0 W/m 15,9 C 0,0 km/h (0 Bft)
26.07.2016 00:14 17,4 C 17,4 C 92 % 1017,8 hPa 0,0 mm 0,0 km/h (0 Bft) W-SW 240 0 min 0,000 mm 0,0 UV-I 0 W/m 16,1 C 0,0 km/h (0 Bft)
26.07.2016 00:15 17,4 C 17,4 C 92 % 1017,8 hPa 0,0 mm 0,0 km/h (0 Bft) W-SW 240 0 min 0,000 mm 0,0 UV-I 0 W/m 16,1 C 0,0 km/h (0 Bft)
26.07.2016 00:16 17,4 C 17,5 C 91 % 1017,8 hPa 0,0 mm 0,0 km/h (0 Bft) W-SW 246 0 min 0,000 mm 0,0 UV-I 0 W/m 15,9 C 0,0 km/h (0 Bft)
26.07.2016 00:17 17,6 C 17,6 C 91 % 1017,8 hPa 0,0 mm 0,0 km/h (0 Bft) W-SW 246 0 min 0,000 mm 0,0 UV-I 0 W/m 16,1 C 0,0 km/h (0 Bft)
26.07.2016 00:18 17,5 C 17,6 C 91 % 1017,8 hPa 0,0 mm 0,0 km/h (0 Bft) SW 236 0 min 0,000 mm 0,0 UV-I 0 W/m 16,0 C 0,0 km/h (0 Bft)
26.07.2016 00:19 17,6 C 17,6 C 91 % 1017,8 hPa 0,0 mm 0,0 km/h (0 Bft) SW 236 0 min 0,000 mm 0,0 UV-I 0 W/m 16,1 C 0,0 km/h (0 Bft)
26.07.2016 00:20 17,5 C 17,6 C 91 % 1017,7 hPa 0,0 mm 0,0 km/h (0 Bft) SW 236 0 min 0,000 mm 0,0 UV-I 0 W/m 16,0 C 0,0 km/h (0 Bft)
26.07.2016 00:21 17,5 C 17,5 C 91 % 1017,8 hPa 0,0 mm 0,0 km/h (0 Bft) SW 236 0 min 0,000 mm 0,0 UV-I 0 W/m 16,0 C 0,0 km/h (0 Bft)
26.07.2016 00:22 17,5 C 17,6 C 91 % 1017,7 hPa 0,0 mm 0,0 km/h (0 Bft) W-SW 238 0 min 0,000 mm 0,0 UV-I 0 W/m 16,0 C 0,0 km/h (0 Bft)
26.07.2016 00:23 17,5 C 17,6 C 91 % 1017,8 hPa 0,0 mm 0,0 km/h (0 Bft) W-SW 238 0 min 0,000 mm 0,0 UV-I 0 W/m 16,0 C 0,0 km/h (0 Bft)
26.07.2016 00:24 17,5 C 17,5 C 91 % 1017,8 hPa 0,0 mm 0,0 km/h (0 Bft) W-SW 238 0 min 0,000 mm 0,0 UV-I 0 W/m 16,0 C 0,0 km/h (0 Bft)
26.07.2016 00:25 17,4 C 17,5 C 91 % 1017,8 hPa 0,0 mm 0,0 km/h (0 Bft) W-SW 238 0 min 0,000 mm 0,0 UV-I 0 W/m 15,9 C 0,0 km/h (0 Bft)
26.07.2016 00:26 17,4 C 17,4 C 91 % 1017,8 hPa 0,0 mm 0,0 km/h (0 Bft) W-SW 238 0 min 0,000 mm 0,0 UV-I 0 W/m 15,9 C 0,0 km/h (0 Bft)
26.07.2016 00:27 17,4 C 17,4 C 91 % 1017,8 hPa 0,0 mm 0,0 km/h (0 Bft) SW 229 0 min 0,000 mm 0,0 UV-I 0 W/m 15,9 C 0,0 km/h (0 Bft)
26.07.2016 00:28 17,4 C 17,4 C 91 % 1017,8 hPa 0,0 mm 0,0 km/h (0 Bft) SW 215 0 min 0,000 mm 0,0 UV-I 0 W/m 15,9 C 0,0 km/h (0 Bft)
26.07.2016 00:29 17,4 C 17,4 C 91 % 1017,7 hPa 0,0 mm 0,0 km/h (0 Bft) SW 215 0 min 0,000 mm 0,0 UV-I 0 W/m 15,9 C 0,0 km/h (0 Bft)
26.07.2016 00:30 17,3 C 17,4 C 91 % 1017,8 hPa 0,0 mm 0,0 km/h (0 Bft) S-SW 206 0 min 0,000 mm 0,0 UV-I 0 W/m 15,8 C 0,0 km/h (0 Bft)
26.07.2016 00:31 17,3 C 17,3 C 91 % 1017,7 hPa 0,0 mm 0,0 km/h (0 Bft) SW 226 0 min 0,000 mm 0,0 UV-I 0 W/m 15,8 C 0,0 km/h (0 Bft)
26.07.2016 00:32 17,3 C 17,3 C 91 % 1017,8 hPa 0,0 mm 0,0 km/h (0 Bft) SW 226 0 min 0,000 mm 0,0 UV-I 0 W/m 15,8 C 0,0 km/h (0 Bft)
26.07.2016 00:33 17,3 C 17,3 C 91 % 1017,8 hPa 0,0 mm 0,0 km/h (0 Bft) SW 226 0 min 0,000 mm 0,0 UV-I 0 W/m 15,8 C 0,0 km/h (0 Bft)
26.07.2016 00:34 17,4 C 17,4 C 91 % 1017,7 hPa 0,0 mm 0,0 km/h (0 Bft) SW 225 0 min 0,000 mm 0,0 UV-I 0 W/m 15,9 C 0,0 km/h (0 Bft)
26.07.2016 00:35 17,4 C 17,4 C 91 % 1017,7 hPa 0,0 mm 0,0 km/h (0 Bft) SW 225 0 min 0,000 mm 0,0 UV-I 0 W/m 15,9 C 0,0 km/h (0 Bft)
26.07.2016 00:36 17,4 C 17,4 C 91 % 1017,7 hPa 0,0 mm 0,0 km/h (0 Bft) S 185 0 min 0,000 mm 0,0 UV-I 0 W/m 15,9 C 0,0 km/h (0 Bft)
26.07.2016 00:37 17,3 C 17,4 C 91 % 1017,7 hPa 0,0 mm 0,0 km/h (0 Bft) S 190 0 min 0,000 mm 0,0 UV-I 0 W/m 15,8 C 0,0 km/h (0 Bft)
26.07.2016 00:38 17,4 C 17,4 C 91 % 1017,7 hPa 0,0 mm 0,0 km/h (0 Bft) S 190 0 min 0,000 mm 0,0 UV-I 0 W/m 15,9 C 0,0 km/h (0 Bft)
26.07.2016 00:39 17,3 C 17,4 C 91 % 1017,6 hPa 0,0 mm 0,0 km/h (0 Bft) S 190 0 min 0,000 mm 0,0 UV-I 0 W/m 15,8 C 0,0 km/h (0 Bft)
26.07.2016 00:40 17,3 C 17,3 C 92 % 1017,7 hPa 0,0 mm 0,0 km/h (0 Bft) S 190 0 min 0,000 mm 0,0 UV-I 0 W/m 16,0 C 0,0 km/h (0 Bft)
26.07.2016 00:41 17,3 C 17,3 C 91 % 1017,7 hPa 0,0 mm 0,0 km/h (0 Bft) S 190 0 min 0,000 mm 0,0 UV-I 0 W/m 15,8 C 0,0 km/h (0 Bft)
26.07.2016 00:42 17,2 C 17,3 C 91 % 1017,7 hPa 0,0 mm 0,0 km/h (0 Bft) S 190 0 min 0,000 mm 0,0 UV-I 0 W/m 15,7 C 0,0 km/h (0 Bft)
26.07.2016 00:43 17,2 C 17,2 C 92 % 1017,7 hPa 0,0 mm 0,0 km/h (0 Bft) S 190 0 min 0,000 mm 0,0 UV-I 0 W/m 15,9 C 0,0 km/h (0 Bft)
26.07.2016 00:44 17,2 C 17,2 C 92 % 1017,7 hPa 0,0 mm 0,0 km/h (0 Bft) S 190 0 min 0,000 mm 0,0 UV-I 0 W/m 15,9 C 0,0 km/h (0 Bft)
26.07.2016 00:45 17,2 C 17,2 C 92 % 1017,7 hPa 0,0 mm 0,0 km/h (0 Bft) S 190 0 min 0,000 mm 0,0 UV-I 0 W/m 15,9 C 0,0 km/h (0 Bft)
26.07.2016 00:46 17,1 C 17,2 C 92 % 1017,8 hPa 0,0 mm 0,8 km/h (0 Bft) S 190 0 min 0,000 mm 0,0 UV-I 0 W/m 15,8 C 3,2 km/h (1 Bft)
26.07.2016 00:47 17,2 C 17,2 C 92 % 1017,7 hPa 0,0 mm 2,1 km/h (1 Bft) S-SW 192 0 min 0,000 mm 0,0 UV-I 0 W/m 15,9 C 3,2 km/h (1 Bft)
26.07.2016 00:48 17,2 C 17,2 C 92 % 1017,8 hPa 0,0 mm 1,7 km/h (1 Bft) S 191 0 min 0,000 mm 0,0 UV-I 0 W/m 15,9 C 3,2 km/h (1 Bft)
26.07.2016 00:49 17,1 C 17,2 C 92 % 1017,8 hPa 0,0 mm 0,3 km/h (0 Bft) S 191 0 min 0,000 mm 0,0 UV-I 0 W/m 15,8 C 1,6 km/h (1 Bft)
26.07.2016 00:50 17,1 C 17,2 C 91 % 1017,8 hPa 0,0 mm 1,5 km/h (1 Bft) S 174 0 min 0,000 mm 0,0 UV-I 0 W/m 15,6 C 3,2 km/h (1 Bft)
26.07.2016 00:51 17,2 C 17,2 C 91 % 1017,8 hPa 0,0 mm 1,9 km/h (1 Bft) S 184 0 min 0,000 mm 0,0 UV-I 0 W/m 15,7 C 4,8 km/h (1 Bft)
26.07.2016 00:52 17,3 C 17,3 C 90 % 1017,8 hPa 0,0 mm 4,3 km/h (1 Bft) S-SW 195 0 min 0,000 mm 0,0 UV-I 0 W/m 15,6 C 6,4 km/h (2 Bft)
26.07.2016 00:53 17,3 C 17,3 C 90 % 1017,8 hPa 0,0 mm 3,7 km/h (1 Bft) S-SW 195 0 min 0,000 mm 0,0 UV-I 0 W/m 15,6 C 6,4 km/h (2 Bft)
26.07.2016 00:54 17,3 C 17,3 C 90 % 1017,8 hPa 0,0 mm 2,2 km/h (1 Bft) S 182 0 min 0,000 mm 0,0 UV-I 0 W/m 15,6 C 4,8 km/h (1 Bft)
26.07.2016 00:55 17,3 C 17,3 C 90 % 1017,8 hPa 0,0 mm 4,8 km/h (1 Bft) S 177 0 min 0,000 mm 0,0 UV-I 0 W/m 15,6 C 6,4 km/h (2 Bft)
26.07.2016 00:56 17,3 C 17,3 C 90 % 1017,8 hPa 0,0 mm 2,3 km/h (1 Bft) S 178 0 min 0,000 mm 0,0 UV-I 0 W/m 15,6 C 3,2 km/h (1 Bft)
26.07.2016 00:57 17,3 C 17,3 C 90 % 1017,8 hPa 0,0 mm 3,4 km/h (1 Bft) S 175 0 min 0,000 mm 0,0 UV-I 0 W/m 15,6 C 4,8 km/h (1 Bft)
26.07.2016 00:58 17,3 C 17,3 C 91 % 1017,8 hPa 0,0 mm 2,1 km/h (1 Bft) S 175 0 min 0,000 mm 0,0 UV-I 0 W/m 15,8 C 3,2 km/h (1 Bft)
26.07.2016 00:59 17,2 C 17,3 C 90 % 1017,8 hPa 0,0 mm 2,6 km/h (1 Bft) S-SW 211 0 min 0,000 mm 0,0 UV-I 0 W/m 15,5 C 4,8 km/h (1 Bft)
26.07.2016 01:00 17,2 C 17,3 C 90 % 1017,8 hPa 0,0 mm 2,3 km/h (1 Bft) S-SW 209 0 min 0,000 mm 0,0 UV-I 0 W/m 15,5 C 3,2 km/h (1 Bft)
26.07.2016 01:01 17,2 C 17,2 C 90 % 1017,8 hPa 0,0 mm 2,4 km/h (1 Bft) S-SW 209 0 min 0,000 mm 0,0 UV-I 0 W/m 15,5 C 4,8 km/h (1 Bft)
26.07.2016 01:02 17,2 C 17,2 C 90 % 1017,8 hPa 0,0 mm 1,8 km/h (1 Bft) S-SW 200 0 min 0,000 mm 0,0 UV-I 0 W/m 15,5 C 4,8 km/h (1 Bft)
26.07.2016 01:03 17,2 C 17,2 C 90 % 1017,7 hPa 0,0 mm 2,5 km/h (1 Bft) S 178 0 min 0,000 mm 0,0 UV-I 0 W/m 15,5 C 3,2 km/h (1 Bft)
26.07.2016 01:04 17,2 C 17,2 C 90 % 1017,7 hPa 0,0 mm 4,6 km/h (1 Bft) S-SW 208 0 min 0,000 mm 0,0 UV-I 0 W/m 15,5 C 6,4 km/h (2 Bft)
26.07.2016 01:05 17,2 C 17,2 C 90 % 1017,7 hPa 0,0 mm 4,5 km/h (1 Bft) S 177 0 min 0,000 mm 0,0 UV-I 0 W/m 15,5 C 8,0 km/h (2 Bft)
26.07.2016 01:06 17,2 C 17,2 C 90 % 1017,8 hPa 0,0 mm 4,6 km/h (1 Bft) S-SW 193 0 min 0,000 mm 0,0 UV-I 0 W/m 15,5 C 6,4 km/h (2 Bft)
26.07.2016 01:07 17,2 C 17,2 C 90 % 1017,8 hPa 0,0 mm 3,0 km/h (1 Bft) S-SW 204 0 min 0,000 mm 0,0 UV-I 0 W/m 15,5 C 4,8 km/h (1 Bft)
26.07.2016 01:08 17,1 C 17,2 C 90 % 1017,7 hPa 0,0 mm 5,2 km/h (1 Bft) S 178 0 min 0,000 mm 0,0 UV-I 0 W/m 15,4 C 8,0 km/h (2 Bft)
26.07.2016 01:09 17,1 C 17,1 C 90 % 1017,8 hPa 0,0 mm 3,1 km/h (1 Bft) S 180 0 min 0,000 mm 0,0 UV-I 0 W/m 15,4 C 4,8 km/h (1 Bft)
26.07.2016 01:10 17,0 C 17,1 C 91 % 1017,8 hPa 0,0 mm 2,8 km/h (1 Bft) S 186 0 min 0,000 mm 0,0 UV-I 0 W/m 15,5 C 4,8 km/h (1 Bft)
26.07.2016 01:11 17,0 C 17,0 C 91 % 1017,9 hPa 0,0 mm 1,4 km/h (1 Bft) S 186 0 min 0,000 mm 0,0 UV-I 0 W/m 15,5 C 4,8 km/h (1 Bft)
26.07.2016 01:12 16,9 C 17,0 C 91 % 1017,8 hPa 0,0 mm 0,6 km/h (0 Bft) S 186 0 min 0,000 mm 0,0 UV-I 0 W/m 15,4 C 1,6 km/h (1 Bft)
26.07.2016 01:13 16,8 C 16,9 C 91 % 1017,9 hPa 0,0 mm 1,3 km/h (1 Bft) SW 227 0 min 0,000 mm 0,0 UV-I 0 W/m 15,3 C 3,2 km/h (1 Bft)
26.07.2016 01:14 16,8 C 16,8 C 91 % 1017,9 hPa 0,0 mm 2,0 km/h (1 Bft) SW 231 0 min 0,000 mm 0,0 UV-I 0 W/m 15,3 C 3,2 km/h (1 Bft)
26.07.2016 01:15 16,8 C 16,8 C 92 % 1017,9 hPa 0,0 mm 1,1 km/h (1 Bft) SW 231 0 min 0,000 mm 0,0 UV-I 0 W/m 15,5 C 3,2 km/h (1 Bft)
26.07.2016 01:16 16,8 C 16,8 C 92 % 1017,9 hPa 0,0 mm 2,4 km/h (1 Bft) S-SW 204 0 min 0,000 mm 0,0 UV-I 0 W/m 15,5 C 4,8 km/h (1 Bft)
26.07.2016 01:17 16,8 C 16,8 C 91 % 1017,9 hPa 0,0 mm 2,5 km/h (1 Bft) S-SW 202 0 min 0,000 mm 0,0 UV-I 0 W/m 15,3 C 4,8 km/h (1 Bft)
26.07.2016 01:18 16,8 C 16,8 C 92 % 1017,9 hPa 0,0 mm 1,7 km/h (1 Bft) S-SW 202 0 min 0,000 mm 0,0 UV-I 0 W/m 15,5 C 3,2 km/h (1 Bft)
26.07.2016 01:19 16,8 C 16,8 C 92 % 1017,9 hPa 0,0 mm 2,5 km/h (1 Bft) S 186 0 min 0,000 mm 0,0 UV-I 0 W/m 15,5 C 4,8 km/h (1 Bft)
26.07.2016 01:20 16,8 C 16,8 C 92 % 1017,9 hPa 0,0 mm 2,7 km/h (1 Bft) S-SW 213 0 min 0,000 mm 0,0 UV-I 0 W/m 15,5 C 4,8 km/h (1 Bft)
26.07.2016 01:21 16,8 C 16,8 C 92 % 1017,9 hPa 0,0 mm 0,8 km/h (0 Bft) S-SW 213 0 min 0,000 mm 0,0 UV-I 0 W/m 15,5 C 1,6 km/h (1 Bft)
26.07.2016 01:22 16,9 C 16,9 C 92 % 1018,0 hPa 0,0 mm 2,1 km/h (1 Bft) W-SW 245 0 min 0,000 mm 0,0 UV-I 0 W/m 15,6 C 3,2 km/h (1 Bft)
26.07.2016 01:23 16,9 C 16,9 C 92 % 1017,9 hPa 0,0 mm 2,5 km/h (1 Bft) W-SW 245 0 min 0,000 mm 0,0 UV-I 0 W/m 15,6 C 3,2 km/h (1 Bft)
26.07.2016 01:24 16,9 C 16,9 C 92 % 1018,0 hPa 0,0 mm 2,1 km/h (1 Bft) W-SW 245 0 min 0,000 mm 0,0 UV-I 0 W/m 15,6 C 3,2 km/h (1 Bft)
26.07.2016 01:25 16,9 C 16,9 C 92 % 1018,0 hPa 0,0 mm 1,0 km/h (0 Bft) W-SW 245 0 min 0,000 mm 0,0 UV-I 0 W/m 15,6 C 3,2 km/h (1 Bft)
26.07.2016 01:26 16,9 C 16,9 C 92 % 1018,0 hPa 0,0 mm 1,7 km/h (1 Bft) W-SW 245 0 min 0,000 mm 0,0 UV-I 0 W/m 15,6 C 3,2 km/h (1 Bft)
26.07.2016 01:27 16,9 C 16,9 C 92 % 1018,0 hPa 0,0 mm 1,8 km/h (1 Bft) W-SW 241 0 min 0,000 mm 0,0 UV-I 0 W/m 15,6 C 3,2 km/h (1 Bft)
26.07.2016 01:28 16,8 C 16,9 C 92 % 1018,0 hPa 0,0 mm 3,1 km/h (1 Bft) S 188 0 min 0,000 mm 0,0 UV-I 0 W/m 15,5 C 6,4 km/h (2 Bft)
26.07.2016 01:29 16,9 C 16,9 C 91 % 1018,0 hPa 0,0 mm 4,4 km/h (1 Bft) S-SW 209 0 min 0,000 mm 0,0 UV-I 0 W/m 15,4 C 6,4 km/h (2 Bft)
26.07.2016 01:30 16,9 C 16,9 C 91 % 1018,0 hPa 0,0 mm 4,9 km/h (1 Bft) S-SW 212 0 min 0,000 mm 0,0 UV-I 0 W/m 15,4 C 8,0 km/h (2 Bft)
26.07.2016 01:31 16,9 C 16,9 C 91 % 1018,0 hPa 0,0 mm 2,8 km/h (1 Bft) S-SW 211 0 min 0,000 mm 0,0 UV-I 0 W/m 15,4 C 4,8 km/h (1 Bft)
26.07.2016 01:32 16,9 C 16,9 C 91 % 1018,0 hPa 0,0 mm 2,1 km/h (1 Bft) SW 230 0 min 0,000 mm 0,0 UV-I 0 W/m 15,4 C 3,2 km/h (1 Bft)
26.07.2016 01:33 16,9 C 16,9 C 91 % 1018,0 hPa 0,0 mm 2,4 km/h (1 Bft) S 191 0 min 0,000 mm 0,0 UV-I 0 W/m 15,4 C 4,8 km/h (1 Bft)
26.07.2016 01:34 17,0 C 17,0 C 91 % 1018,0 hPa 0,0 mm 2,6 km/h (1 Bft) S-SW 198 0 min 0,000 mm 0,0 UV-I 0 W/m 15,5 C 4,8 km/h (1 Bft)
26.07.2016 01:35 17,0 C 17,0 C 91 % 1018,0 hPa 0,0 mm 2,8 km/h (1 Bft) S 183 0 min 0,000 mm 0,0 UV-I 0 W/m 15,5 C 4,8 km/h (1 Bft)
26.07.2016 01:36 17,0 C 17,0 C 91 % 1018,0 hPa 0,0 mm 3,0 km/h (1 Bft) S 186 0 min 0,000 mm 0,0 UV-I 0 W/m 15,5 C 4,8 km/h (1 Bft)
26.07.2016 01:37 16,9 C 17,0 C 91 % 1018,0 hPa 0,0 mm 1,2 km/h (1 Bft) S 186 0 min 0,000 mm 0,0 UV-I 0 W/m 15,4 C 3,2 km/h (1 Bft)
26.07.2016 01:38 16,8 C 16,9 C 92 % 1018,0 hPa 0,0 mm 0,8 km/h (0 Bft) S 186 0 min 0,000 mm 0,0 UV-I 0 W/m 15,5 C 1,6 km/h (1 Bft)
26.07.2016 01:39 16,8 C 16,8 C 92 % 1018,0 hPa 0,0 mm 2,4 km/h (1 Bft) S 184 0 min 0,000 mm 0,0 UV-I 0 W/m 15,5 C 3,2 km/h (1 Bft)
26.07.2016 01:40 16,8 C 16,8 C 92 % 1018,0 hPa 0,0 mm 2,3 km/h (1 Bft) S 171 0 min 0,000 mm 0,0 UV-I 0 W/m 15,5 C 3,2 km/h (1 Bft)
26.07.2016 01:41 16,8 C 16,8 C 92 % 1018,0 hPa 0,0 mm 1,7 km/h (1 Bft) W-SW 242 0 min 0,000 mm 0,0 UV-I 0 W/m 15,5 C 6,4 km/h (2 Bft)
26.07.2016 01:42 16,8 C 16,8 C 92 % 1018,0 hPa 0,0 mm 0,0 km/h (0 Bft) S-SW 198 0 min 0,000 mm 0,0 UV-I 0 W/m 15,5 C 0,0 km/h (0 Bft)
26.07.2016 01:43 16,8 C 16,8 C 92 % 1018,0 hPa 0,0 mm 3,5 km/h (1 Bft) S-SW 192 0 min 0,000 mm 0,0 UV-I 0 W/m 15,5 C 6,4 km/h (2 Bft)
26.07.2016 01:44 16,9 C 16,9 C 92 % 1018,0 hPa 0,0 mm 1,0 km/h (0 Bft) S 190 0 min 0,000 mm 0,0 UV-I 0 W/m 15,6 C 3,2 km/h (1 Bft)
26.07.2016 01:45 16,9 C 16,9 C 92 % 1018,1 hPa 0,0 mm 3,7 km/h (1 Bft) S 169 0 min 0,000 mm 0,0 UV-I 0 W/m 15,6 C 6,4 km/h (2 Bft)
26.07.2016 01:46 17,0 C 17,0 C 92 % 1018,1 hPa 0,0 mm 3,7 km/h (1 Bft) S 180 0 min 0,000 mm 0,0 UV-I 0 W/m 15,7 C 4,8 km/h (1 Bft)
26.07.2016 01:47 17,0 C 17,0 C 92 % 1018,1 hPa 0,0 mm 3,3 km/h (1 Bft) SW 233 0 min 0,000 mm 0,0 UV-I 0 W/m 15,7 C 4,8 km/h (1 Bft)
26.07.2016 01:48 17,0 C 17,0 C 92 % 1018,1 hPa 0,0 mm 2,0 km/h (1 Bft) W-SW 238 0 min 0,000 mm 0,0 UV-I 0 W/m 15,7 C 3,2 km/h (1 Bft)
26.07.2016 01:49 17,0 C 17,0 C 92 % 1018,1 hPa 0,0 mm 2,7 km/h (1 Bft) S-SW 194 0 min 0,000 mm 0,0 UV-I 0 W/m 15,7 C 4,8 km/h (1 Bft)
26.07.2016 01:50 17,0 C 17,1 C 92 % 1018,0 hPa 0,0 mm 1,4 km/h (1 Bft) S-SW 194 0 min 0,000 mm 0,0 UV-I 0 W/m 15,7 C 3,2 km/h (1 Bft)
26.07.2016 01:51 16,9 C 17,0 C 92 % 1018,0 hPa 0,0 mm 0,9 km/h (0 Bft) S-SW 194 0 min 0,000 mm 0,0 UV-I 0 W/m 15,6 C 3,2 km/h (1 Bft)
26.07.2016 01:52 16,9 C 16,9 C 92 % 1018,0 hPa 0,0 mm 1,1 km/h (1 Bft) S-SW 194 0 min 0,000 mm 0,0 UV-I 0 W/m 15,6 C 1,6 km/h (1 Bft)
26.07.2016 01:53 16,9 C 16,9 C 92 % 1018,0 hPa 0,0 mm 0,9 km/h (0 Bft) S-SW 194 0 min 0,000 mm 0,0 UV-I 0 W/m 15,6 C 1,6 km/h (1 Bft)
26.07.2016 01:54 16,9 C 16,9 C 92 % 1018,0 hPa 0,0 mm 0,3 km/h (0 Bft) S-SW 194 0 min 0,000 mm 0,0 UV-I 0 W/m 15,6 C 1,6 km/h (1 Bft)
26.07.2016 01:55 16,9 C 16,9 C 92 % 1018,0 hPa 0,0 mm 1,7 km/h (1 Bft) S-SW 194 0 min 0,000 mm 0,0 UV-I 0 W/m 15,6 C 3,2 km/h (1 Bft)
26.07.2016 01:56 16,8 C 16,9 C 92 % 1018,1 hPa 0,0 mm 0,8 km/h (0 Bft) S-SW 194 0 min 0,000 mm 0,0 UV-I 0 W/m 15,5 C 1,6 km/h (1 Bft)
26.07.2016 01:57 16,8 C 16,8 C 93 % 1018,1 hPa 0,0 mm 0,1 km/h (0 Bft) S-SW 194 0 min 0,000 mm 0,0 UV-I 0 W/m 15,7 C 1,6 km/h (1 Bft)
26.07.2016 01:58 16,7 C 16,8 C 93 % 1018,0 hPa 0,0 mm 1,1 km/h (1 Bft) S-SW 194 0 min 0,000 mm 0,0 UV-I 0 W/m 15,6 C 3,2 km/h (1 Bft)
26.07.2016 01:59 16,7 C 16,7 C 93 % 1018,1 hPa 0,0 mm 1,1 km/h (1 Bft) S-SW 194 0 min 0,000 mm 0,0 UV-I 0 W/m 15,6 C 1,6 km/h (1 Bft)
26.07.2016 02:00 16,6 C 16,7 C 93 % 1018,1 hPa 0,0 mm 1,9 km/h (1 Bft) S 182 0 min 0,000 mm 0,0 UV-I 0 W/m 15,5 C 3,2 km/h (1 Bft)
26.07.2016 02:01 16,7 C 16,7 C 93 % 1018,1 hPa 0,0 mm 2,3 km/h (1 Bft) S-SW 196 0 min 0,000 mm 0,0 UV-I 0 W/m 15,6 C 4,8 km/h (1 Bft)
26.07.2016 02:02 16,7 C 16,7 C 93 % 1018,2 hPa 0,0 mm 0,9 km/h (0 Bft) S-SW 196 0 min 0,000 mm 0,0 UV-I 0 W/m 15,6 C 1,6 km/h (1 Bft)
26.07.2016 02:03 16,8 C 16,8 C 93 % 1018,2 hPa 0,0 mm 0,6 km/h (0 Bft) S-SW 196 0 min 0,000 mm 0,0 UV-I 0 W/m 15,7 C 1,6 km/h (1 Bft)
26.07.2016 02:04 16,8 C 16,8 C 92 % 1018,2 hPa 0,0 mm 1,0 km/h (0 Bft) S-SW 196 0 min 0,000 mm 0,0 UV-I 0 W/m 15,5 C 1,6 km/h (1 Bft)
26.07.2016 02:05 16,9 C 16,9 C 92 % 1018,2 hPa 0,0 mm 0,7 km/h (0 Bft) S-SW 196 0 min 0,000 mm 0,0 UV-I 0 W/m 15,6 C 1,6 km/h (1 Bft)
26.07.2016 02:06 16,9 C 16,9 C 92 % 1018,2 hPa 0,0 mm 1,8 km/h (1 Bft) S-SW 194 0 min 0,000 mm 0,0 UV-I 0 W/m 15,6 C 3,2 km/h (1 Bft)
26.07.2016 02:07 16,9 C 16,9 C 92 % 1018,1 hPa 0,0 mm 2,4 km/h (1 Bft) S 190 0 min 0,000 mm 0,0 UV-I 0 W/m 15,6 C 4,8 km/h (1 Bft)
26.07.2016 02:08 16,9 C 16,9 C 92 % 1018,1 hPa 0,0 mm 1,6 km/h (1 Bft) S 190 0 min 0,000 mm 0,0 UV-I 0 W/m 15,6 C 3,2 km/h (1 Bft)
26.07.2016 02:09 17,0 C 17,0 C 92 % 1018,1 hPa 0,0 mm 1,6 km/h (1 Bft) S 190 0 min 0,000 mm 0,0 UV-I 0 W/m 15,7 C 3,2 km/h (1 Bft)
26.07.2016 02:10 16,9 C 17,0 C 92 % 1018,2 hPa 0,0 mm 0,9 km/h (0 Bft) S 190 0 min 0,000 mm 0,0 UV-I 0 W/m 15,6 C 3,2 km/h (1 Bft)
26.07.2016 02:11 16,9 C 16,9 C 92 % 1018,1 hPa 0,0 mm 0,1 km/h (0 Bft) S 190 0 min 0,000 mm 0,0 UV-I 0 W/m 15,6 C 1,6 km/h (1 Bft)
26.07.2016 02:12 16,8 C 16,9 C 92 % 1018,1 hPa 0,0 mm 0,0 km/h (0 Bft) S 190 0 min 0,000 mm 0,0 UV-I 0 W/m 15,5 C 0,0 km/h (0 Bft)
26.07.2016 02:13 16,8 C 16,8 C 93 % 1018,2 hPa 0,0 mm 0,1 km/h (0 Bft) S 190 0 min 0,000 mm 0,0 UV-I 0 W/m 15,7 C 1,6 km/h (1 Bft)
26.07.2016 02:14 16,7 C 16,8 C 93 % 1018,2 hPa 0,0 mm 0,0 km/h (0 Bft) S 190 0 min 0,000 mm 0,0 UV-I 0 W/m 15,6 C 0,0 km/h (0 Bft)
26.07.2016 02:15 16,7 C 16,7 C 93 % 1018,2 hPa 0,0 mm 0,1 km/h (0 Bft) S 190 0 min 0,000 mm 0,0 UV-I 0 W/m 15,6 C 1,6 km/h (1 Bft)
26.07.2016 02:16 16,6 C 16,7 C 94 % 1018,1 hPa 0,0 mm 0,1 km/h (0 Bft) S 190 0 min 0,000 mm 0,0 UV-I 0 W/m 15,6 C 1,6 km/h (1 Bft)
26.07.2016 02:17 16,6 C 16,6 C 94 % 1018,2 hPa 0,0 mm 0,4 km/h (0 Bft) S 190 0 min 0,000 mm 0,0 UV-I 0 W/m 15,6 C 1,6 km/h (1 Bft)
26.07.2016 02:18 16,6 C 16,6 C 94 % 1018,1 hPa 0,0 mm 1,9 km/h (1 Bft) S 178 0 min 0,000 mm 0,0 UV-I 0 W/m 15,6 C 3,2 km/h (1 Bft)
26.07.2016 02:19 16,6 C 16,6 C 94 % 1018,1 hPa 0,0 mm 0,9 km/h (0 Bft) S 178 0 min 0,000 mm 0,0 UV-I 0 W/m 15,6 C 1,6 km/h (1 Bft)
26.07.2016 02:20 16,6 C 16,6 C 94 % 1018,1 hPa 0,0 mm 0,2 km/h (0 Bft) S 178 0 min 0,000 mm 0,0 UV-I 0 W/m 15,6 C 1,6 km/h (1 Bft)
26.07.2016 02:21 16,6 C 16,6 C 94 % 1018,1 hPa 0,0 mm 0,0 km/h (0 Bft) S 178 0 min 0,000 mm 0,0 UV-I 0 W/m 15,6 C 0,0 km/h (0 Bft)
26.07.2016 02:22 16,6 C 16,7 C 93 % 1018,0 hPa 0,0 mm 0,0 km/h (0 Bft) S 178 0 min 0,000 mm 0,0 UV-I 0 W/m 15,5 C 0,0 km/h (0 Bft)
26.07.2016 02:23 16,6 C 16,7 C 94 % 1018,0 hPa 0,0 mm 0,3 km/h (0 Bft) S 178 0 min 0,000 mm 0,0 UV-I 0 W/m 15,6 C 1,6 km/h (1 Bft)
26.07.2016 02:24 16,6 C 16,6 C 94 % 1018,0 hPa 0,0 mm 1,3 km/h (1 Bft) S-SW 212 0 min 0,000 mm 0,0 UV-I 0 W/m 15,6 C 3,2 km/h (1 Bft)
26.07.2016 02:25 16,7 C 16,7 C 94 % 1018,0 hPa 0,0 mm 0,7 km/h (0 Bft) S-SW 212 0 min 0,000 mm 0,0 UV-I 0 W/m 15,7 C 1,6 km/h (1 Bft)
26.07.2016 02:26 16,6 C 16,7 C 93 % 1018,0 hPa 0,0 mm 0,1 km/h (0 Bft) S-SW 212 0 min 0,000 mm 0,0 UV-I 0 W/m 15,5 C 1,6 km/h (1 Bft)
26.07.2016 02:27 16,6 C 16,7 C 93 % 1017,9 hPa 0,0 mm 0,8 km/h (0 Bft) S-SW 210 0 min 0,000 mm 0,0 UV-I 0 W/m 15,5 C 1,6 km/h (1 Bft)
26.07.2016 02:28 16,6 C 16,7 C 94 % 1017,9 hPa 0,0 mm 0,4 km/h (0 Bft) S-SW 210 0 min 0,000 mm 0,0 UV-I 0 W/m 15,6 C 1,6 km/h (1 Bft)
26.07.2016 02:29 16,6 C 16,7 C 94 % 1018,0 hPa 0,0 mm 0,3 km/h (0 Bft) S-SW 210 0 min 0,000 mm 0,0 UV-I 0 W/m 15,6 C 1,6 km/h (1 Bft)
26.07.2016 02:30 16,6 C 16,6 C 94 % 1018,0 hPa 0,0 mm 0,0 km/h (0 Bft) S-SW 210 0 min 0,000 mm 0,0 UV-I 0 W/m 15,6 C 0,0 km/h (0 Bft)
26.07.2016 02:31 16,6 C 16,6 C 93 % 1017,9 hPa 0,0 mm 0,3 km/h (0 Bft) SW 228 0 min 0,000 mm 0,0 UV-I 0 W/m 15,5 C 1,6 km/h (1 Bft)
26.07.2016 02:32 16,6 C 16,6 C 93 % 1018,0 hPa 0,0 mm 0,4 km/h (0 Bft) W-SW 240 0 min 0,000 mm 0,0 UV-I 0 W/m 15,5 C 1,6 km/h (1 Bft)
26.07.2016 02:33 16,7 C 16,7 C 93 % 1018,0 hPa 0,0 mm 0,3 km/h (0 Bft) W-SW 240 0 min 0,000 mm 0,0 UV-I 0 W/m 15,6 C 1,6 km/h (1 Bft)
26.07.2016 02:34 16,7 C 16,7 C 93 % 1018,0 hPa 0,0 mm 2,7 km/h (1 Bft) W-SW 253 0 min 0,000 mm 0,0 UV-I 0 W/m 15,6 C 3,2 km/h (1 Bft)
26.07.2016 02:35 16,7 C 16,7 C 93 % 1018,0 hPa 0,0 mm 3,0 km/h (1 Bft) W 266 0 min 0,000 mm 0,0 UV-I 0 W/m 15,6 C 4,8 km/h (1 Bft)
26.07.2016 02:36 16,7 C 16,7 C 93 % 1018,0 hPa 0,0 mm 1,5 km/h (1 Bft) W 266 0 min 0,000 mm 0,0 UV-I 0 W/m 15,6 C 3,2 km/h (1 Bft)
26.07.2016 02:37 16,7 C 16,7 C 93 % 1018,0 hPa 0,0 mm 2,5 km/h (1 Bft) W 273 0 min 0,000 mm 0,0 UV-I 0 W/m 15,6 C 4,8 km/h (1 Bft)
26.07.2016 02:38 16,7 C 16,7 C 92 % 1018,0 hPa 0,0 mm 2,3 km/h (1 Bft) W 272 0 min 0,000 mm 0,0 UV-I 0 W/m 15,4 C 3,2 km/h (1 Bft)
26.07.2016 02:39 16,7 C 16,7 C 92 % 1018,0 hPa 0,0 mm 2,4 km/h (1 Bft) W 272 0 min 0,000 mm 0,0 UV-I 0 W/m 15,4 C 4,8 km/h (1 Bft)
26.07.2016 02:40 16,7 C 16,7 C 92 % 1018,0 hPa 0,0 mm 1,8 km/h (1 Bft) W 272 0 min 0,000 mm 0,0 UV-I 0 W/m 15,4 C 3,2 km/h (1 Bft)
26.07.2016 02:41 16,7 C 16,7 C 92 % 1018,0 hPa 0,0 mm 0,8 km/h (0 Bft) W 272 0 min 0,000 mm 0,0 UV-I 0 W/m 15,4 C 3,2 km/h (1 Bft)
26.07.2016 02:42 16,7 C 16,7 C 92 % 1018,0 hPa 0,0 mm 2,1 km/h (1 Bft) W 272 0 min 0,000 mm 0,0 UV-I 0 W/m 15,4 C 3,2 km/h (1 Bft)
26.07.2016 02:43 16,6 C 16,7 C 93 % 1018,0 hPa 0,0 mm 1,5 km/h (1 Bft) W 272 0 min 0,000 mm 0,0 UV-I 0 W/m 15,5 C 3,2 km/h (1 Bft)
26.07.2016 02:44 16,6 C 16,6 C 93 % 1018,0 hPa 0,0 mm 2,4 km/h (1 Bft) W 272 0 min 0,000 mm 0,0 UV-I 0 W/m 15,5 C 3,2 km/h (1 Bft)
26.07.2016 02:45 16,6 C 16,6 C 93 % 1018,0 hPa 0,0 mm 2,0 km/h (1 Bft) W 272 0 min 0,000 mm 0,0 UV-I 0 W/m 15,5 C 3,2 km/h (1 Bft)
26.07.2016 02:46 16,6 C 16,6 C 93 % 1018,0 hPa 0,0 mm 1,2 km/h (1 Bft) W 272 0 min 0,000 mm 0,0 UV-I 0 W/m 15,5 C 1,6 km/h (1 Bft)
26.07.2016 02:47 16,5 C 16,6 C 93 % 1018,0 hPa 0,0 mm 1,1 km/h (1 Bft) W 272 0 min 0,000 mm 0,0 UV-I 0 W/m 15,4 C 1,6 km/h (1 Bft)
26.07.2016 02:48 16,5 C 16,6 C 93 % 1018,1 hPa 0,0 mm 0,1 km/h (0 Bft) W 272 0 min 0,000 mm 0,0 UV-I 0 W/m 15,4 C 1,6 km/h (1 Bft)
26.07.2016 02:49 16,4 C 16,5 C 93 % 1018,0 hPa 0,0 mm 0,1 km/h (0 Bft) W 272 0 min 0,000 mm 0,0 UV-I 0 W/m 15,3 C 1,6 km/h (1 Bft)
26.07.2016 02:50 16,4 C 16,4 C 93 % 1018,0 hPa 0,0 mm 1,3 km/h (1 Bft) SW 217 0 min 0,000 mm 0,0 UV-I 0 W/m 15,3 C 3,2 km/h (1 Bft)
26.07.2016 02:51 16,4 C 16,4 C 93 % 1018,0 hPa 0,0 mm 2,1 km/h (1 Bft) S-SW 213 0 min 0,000 mm 0,0 UV-I 0 W/m 15,3 C 3,2 km/h (1 Bft)
26.07.2016 02:52 16,4 C 16,4 C 94 % 1018,0 hPa 0,0 mm 1,9 km/h (1 Bft) S 190 0 min 0,000 mm 0,0 UV-I 0 W/m 15,4 C 3,2 km/h (1 Bft)
26.07.2016 02:53 16,3 C 16,4 C 93 % 1018,0 hPa 0,0 mm 4,4 km/h (1 Bft) S-SO 160 0 min 0,000 mm 0,0 UV-I 0 W/m 15,2 C 6,4 km/h (2 Bft)
26.07.2016 02:54 16,3 C 16,4 C 93 % 1018,0 hPa 0,0 mm 4,2 km/h (1 Bft) O-NO 76 0 min 0,000 mm 0,0 UV-I 0 W/m 15,2 C 6,4 km/h (2 Bft)
26.07.2016 02:55 16,3 C 16,3 C 94 % 1018,0 hPa 0,0 mm 2,8 km/h (1 Bft) O 80 0 min 0,000 mm 0,0 UV-I 0 W/m 15,3 C 6,4 km/h (2 Bft)
26.07.2016 02:56 16,3 C 16,3 C 94 % 1018,0 hPa 0,0 mm 0,5 km/h (0 Bft) O 80 0 min 0,000 mm 0,0 UV-I 0 W/m 15,3 C 1,6 km/h (1 Bft)
26.07.2016 02:57 16,3 C 16,3 C 94 % 1018,0 hPa 0,0 mm 1,4 km/h (1 Bft) W-SW 241 0 min 0,000 mm 0,0 UV-I 0 W/m 15,3 C 3,2 km/h (1 Bft)
26.07.2016 02:58 16,3 C 16,3 C 94 % 1018,0 hPa 0,0 mm 0,1 km/h (0 Bft) W-SW 241 0 min 0,000 mm 0,0 UV-I 0 W/m 15,3 C 1,6 km/h (1 Bft)
26.07.2016 02:59 16,3 C 16,3 C 94 % 1018,0 hPa 0,0 mm 0,0 km/h (0 Bft) W-SW 241 0 min 0,000 mm 0,0 UV-I 0 W/m 15,3 C 0,0 km/h (0 Bft)
26.07.2016 03:00 16,3 C 16,3 C 94 % 1018,0 hPa 0,0 mm 0,9 km/h (0 Bft) W-SW 241 0 min 0,000 mm 0,0 UV-I 0 W/m 15,3 C 1,6 km/h (1 Bft)
26.07.2016 03:01 16,3 C 16,3 C 94 % 1018,0 hPa 0,0 mm 1,5 km/h (1 Bft) W-SW 241 0 min 0,000 mm 0,0 UV-I 0 W/m 15,3 C 3,2 km/h (1 Bft)
26.07.2016 03:02 16,3 C 16,3 C 94 % 1018,1 hPa 0,0 mm 0,8 km/h (0 Bft) W-SW 241 0 min 0,000 mm 0,0 UV-I 0 W/m 15,3 C 1,6 km/h (1 Bft)
26.07.2016 03:03 16,3 C 16,3 C 94 % 1018,1 hPa 0,0 mm 0,5 km/h (0 Bft) W-SW 241 0 min 0,000 mm 0,0 UV-I 0 W/m 15,3 C 1,6 km/h (1 Bft)
26.07.2016 03:04 16,3 C 16,3 C 94 % 1018,1 hPa 0,0 mm 0,0 km/h (0 Bft) W-SW 241 0 min 0,000 mm 0,0 UV-I 0 W/m 15,3 C 0,0 km/h (0 Bft)
26.07.2016 03:05 16,2 C 16,3 C 94 % 1018,0 hPa 0,0 mm 1,1 km/h (1 Bft) S-SW 210 0 min 0,000 mm 0,0 UV-I 0 W/m 15,2 C 3,2 km/h (1 Bft)
26.07.2016 03:06 16,3 C 16,3 C 94 % 1018,1 hPa 0,0 mm 1,2 km/h (1 Bft) S-SW 193 0 min 0,000 mm 0,0 UV-I 0 W/m 15,3 C 3,2 km/h (1 Bft)
26.07.2016 03:07 16,2 C 16,3 C 94 % 1018,1 hPa 0,0 mm 1,7 km/h (1 Bft) S-SW 193 0 min 0,000 mm 0,0 UV-I 0 W/m 15,2 C 3,2 km/h (1 Bft)
26.07.2016 03:08 16,2 C 16,3 C 94 % 1018,1 hPa 0,0 mm 1,0 km/h (0 Bft) S-SW 193 0 min 0,000 mm 0,0 UV-I 0 W/m 15,2 C 1,6 km/h (1 Bft)
26.07.2016 03:09 16,2 C 16,3 C 94 % 1018,0 hPa 0,0 mm 0,7 km/h (0 Bft) S-SW 193 0 min 0,000 mm 0,0 UV-I 0 W/m 15,2 C 1,6 km/h (1 Bft)
26.07.2016 03:10 16,2 C 16,2 C 94 % 1018,1 hPa 0,0 mm 0,2 km/h (0 Bft) S-SW 193 0 min 0,000 mm 0,0 UV-I 0 W/m 15,2 C 1,6 km/h (1 Bft)
26.07.2016 03:11 16,2 C 16,2 C 94 % 1018,1 hPa 0,0 mm 0,0 km/h (0 Bft) S-SW 193 0 min 0,000 mm 0,0 UV-I 0 W/m 15,2 C 0,0 km/h (0 Bft)
26.07.2016 03:12 16,2 C 16,2 C 94 % 1018,1 hPa 0,0 mm 0,0 km/h (0 Bft) S-SW 193 0 min 0,000 mm 0,0 UV-I 0 W/m 15,2 C 0,0 km/h (0 Bft)
26.07.2016 03:13 16,2 C 16,2 C 94 % 1018,1 hPa 0,0 mm 0,0 km/h (0 Bft) S-SW 193 0 min 0,000 mm 0,0 UV-I 0 W/m 15,2 C 0,0 km/h (0 Bft)
26.07.2016 03:14 16,2 C 16,2 C 94 % 1018,2 hPa 0,0 mm 0,0 km/h (0 Bft) S-SW 193 0 min 0,000 mm 0,0 UV-I 0 W/m 15,2 C 0,0 km/h (0 Bft)
26.07.2016 03:15 16,2 C 16,2 C 94 % 1018,1 hPa 0,0 mm 0,0 km/h (0 Bft) S-SW 193 0 min 0,000 mm 0,0 UV-I 0 W/m 15,2 C 0,0 km/h (0 Bft)
26.07.2016 03:16 16,2 C 16,2 C 94 % 1018,1 hPa 0,0 mm 0,0 km/h (0 Bft) S-SW 193 0 min 0,000 mm 0,0 UV-I 0 W/m 15,2 C 0,0 km/h (0 Bft)
26.07.2016 03:17 16,2 C 16,2 C 94 % 1018,1 hPa 0,0 mm 0,5 km/h (0 Bft) S-SW 193 0 min 0,000 mm 0,0 UV-I 0 W/m 15,2 C 1,6 km/h (1 Bft)
26.07.2016 03:18 16,2 C 16,2 C 94 % 1018,1 hPa 0,0 mm 0,7 km/h (0 Bft) S-SW 193 0 min 0,000 mm 0,0 UV-I 0 W/m 15,2 C 1,6 km/h (1 Bft)
26.07.2016 03:19 16,2 C 16,2 C 94 % 1018,1 hPa 0,0 mm 1,2 km/h (1 Bft) S-SW 193 0 min 0,000 mm 0,0 UV-I 0 W/m 15,2 C 3,2 km/h (1 Bft)
26.07.2016 03:20 16,2 C 16,2 C 94 % 1018,1 hPa 0,0 mm 0,6 km/h (0 Bft) S-SW 193 0 min 0,000 mm 0,0 UV-I 0 W/m 15,2 C 1,6 km/h (1 Bft)
26.07.2016 03:21 16,2 C 16,2 C 94 % 1018,1 hPa 0,0 mm 1,1 km/h (1 Bft) S-SW 193 0 min 0,000 mm 0,0 UV-I 0 W/m 15,2 C 1,6 km/h (1 Bft)
26.07.2016 03:22 16,2 C 16,3 C 94 % 1018,0 hPa 0,0 mm 1,5 km/h (1 Bft) S-SW 193 0 min 0,000 mm 0,0 UV-I 0 W/m 15,2 C 1,6 km/h (1 Bft)
26.07.2016 03:23 16,2 C 16,2 C 94 % 1018,0 hPa 0,0 mm 0,6 km/h (0 Bft) S-SW 193 0 min 0,000 mm 0,0 UV-I 0 W/m 15,2 C 1,6 km/h (1 Bft)
26.07.2016 03:24 16,2 C 16,2 C 94 % 1018,0 hPa 0,0 mm 0,6 km/h (0 Bft) S-SW 193 0 min 0,000 mm 0,0 UV-I 0 W/m 15,2 C 1,6 km/h (1 Bft)
26.07.2016 03:25 16,2 C 16,2 C 94 % 1018,0 hPa 0,0 mm 0,7 km/h (0 Bft) S-SW 193 0 min 0,000 mm 0,0 UV-I 0 W/m 15,2 C 1,6 km/h (1 Bft)
26.07.2016 03:26 16,2 C 16,2 C 94 % 1018,0 hPa 0,0 mm 0,6 km/h (0 Bft) S-SW 193 0 min 0,000 mm 0,0 UV-I 0 W/m 15,2 C 1,6 km/h (1 Bft)
26.07.2016 03:27 16,2 C 16,2 C 94 % 1018,0 hPa 0,0 mm 0,4 km/h (0 Bft) S-SW 193 0 min 0,000 mm 0,0 UV-I 0 W/m 15,2 C 1,6 km/h (1 Bft)
26.07.2016 03:28 16,2 C 16,2 C 94 % 1018,0 hPa 0,0 mm 0,1 km/h (0 Bft) S-SW 193 0 min 0,000 mm 0,0 UV-I 0 W/m 15,2 C 1,6 km/h (1 Bft)
26.07.2016 03:29 16,2 C 16,2 C 94 % 1018,0 hPa 0,0 mm 0,1 km/h (0 Bft) S-SW 193 0 min 0,000 mm 0,0 UV-I 0 W/m 15,2 C 1,6 km/h (1 Bft)
26.07.2016 03:30 16,2 C 16,2 C 94 % 1018,0 hPa 0,0 mm 0,0 km/h (0 Bft) S-SW 193 0 min 0,000 mm 0,0 UV-I 0 W/m 15,2 C 0,0 km/h (0 Bft)
26.07.2016 03:31 16,1 C 16,2 C 94 % 1018,0 hPa 0,0 mm 0,0 km/h (0 Bft) S-SW 193 0 min 0,000 mm 0,0 UV-I 0 W/m 15,1 C 0,0 km/h (0 Bft)
26.07.2016 03:32 16,2 C 16,2 C 94 % 1018,0 hPa 0,0 mm 0,0 km/h (0 Bft) S-SW 193 0 min 0,000 mm 0,0 UV-I 0 W/m 15,2 C 0,0 km/h (0 Bft)
26.07.2016 03:33 16,1 C 16,2 C 94 % 1018,0 hPa 0,0 mm 0,0 km/h (0 Bft) S-SW 193 0 min 0,000 mm 0,0 UV-I 0 W/m 15,1 C 0,0 km/h (0 Bft)
26.07.2016 03:34 16,2 C 16,2 C 94 % 1018,0 hPa 0,0 mm 0,0 km/h (0 Bft) S-SW 193 0 min 0,000 mm 0,0 UV-I 0 W/m 15,2 C 0,0 km/h (0 Bft)
26.07.2016 03:35 16,2 C 16,2 C 94 % 1018,0 hPa 0,0 mm 0,1 km/h (0 Bft) S-SW 193 0 min 0,000 mm 0,0 UV-I 0 W/m 15,2 C 1,6 km/h (1 Bft)
26.07.2016 03:36 16,2 C 16,2 C 94 % 1018,0 hPa 0,0 mm 0,2 km/h (0 Bft) S-SW 193 0 min 0,000 mm 0,0 UV-I 0 W/m 15,2 C 1,6 km/h (1 Bft)
26.07.2016 03:37 16,2 C 16,2 C 94 % 1018,0 hPa 0,0 mm 0,1 km/h (0 Bft) S-SW 193 0 min 0,000 mm 0,0 UV-I 0 W/m 15,2 C 1,6 km/h (1 Bft)
26.07.2016 03:38 16,2 C 16,2 C 94 % 1018,0 hPa 0,0 mm 0,3 km/h (0 Bft) S-SW 193 0 min 0,000 mm 0,0 UV-I 0 W/m 15,2 C 1,6 km/h (1 Bft)
26.07.2016 03:39 16,2 C 16,2 C 94 % 1017,9 hPa 0,0 mm 0,0 km/h (0 Bft) S-SW 193 0 min 0,000 mm 0,0 UV-I 0 W/m 15,2 C 0,0 km/h (0 Bft)
26.07.2016 03:40 16,2 C 16,2 C 94 % 1018,0 hPa 0,0 mm 0,1 km/h (0 Bft) S-SW 193 0 min 0,000 mm 0,0 UV-I 0 W/m 15,2 C 1,6 km/h (1 Bft)
26.07.2016 03:41 16,2 C 16,2 C 94 % 1018,0 hPa 0,0 mm 0,0 km/h (0 Bft) S-SW 193 0 min 0,000 mm 0,0 UV-I 0 W/m 15,2 C 0,0 km/h (0 Bft)
26.07.2016 03:42 16,2 C 16,2 C 94 % 1018,0 hPa 0,0 mm 1,1 km/h (1 Bft) S-SW 192 0 min 0,000 mm 0,0 UV-I 0 W/m 15,2 C 3,2 km/h (1 Bft)
26.07.2016 03:43 16,3 C 16,3 C 94 % 1018,0 hPa 0,0 mm 1,6 km/h (1 Bft) S-SW 193 0 min 0,000 mm 0,0 UV-I 0 W/m 15,3 C 3,2 km/h (1 Bft)
26.07.2016 03:44 16,3 C 16,3 C 94 % 1018,0 hPa 0,0 mm 2,3 km/h (1 Bft) S-SW 197 0 min 0,000 mm 0,0 UV-I 0 W/m 15,3 C 3,2 km/h (1 Bft)
26.07.2016 03:45 16,3 C 16,4 C 93 % 1018,0 hPa 0,0 mm 1,6 km/h (1 Bft) S-SW 197 0 min 0,000 mm 0,0 UV-I 0 W/m 15,2 C 3,2 km/h (1 Bft)
26.07.2016 03:46 16,4 C 16,4 C 93 % 1018,0 hPa 0,0 mm 1,0 km/h (0 Bft) S-SW 196 0 min 0,000 mm 0,0 UV-I 0 W/m 15,3 C 3,2 km/h (1 Bft)
26.07.2016 03:47 16,4 C 16,4 C 93 % 1018,0 hPa 0,0 mm 1,9 km/h (1 Bft) S-SW 196 0 min 0,000 mm 0,0 UV-I 0 W/m 15,3 C 3,2 km/h (1 Bft)
26.07.2016 03:48 16,4 C 16,4 C 93 % 1018,0 hPa 0,0 mm 1,2 km/h (1 Bft) S-SW 196 0 min 0,000 mm 0,0 UV-I 0 W/m 15,3 C 1,6 km/h (1 Bft)
26.07.2016 03:49 16,4 C 16,4 C 93 % 1017,9 hPa 0,0 mm 2,8 km/h (1 Bft) S 186 0 min 0,000 mm 0,0 UV-I 0 W/m 15,3 C 6,4 km/h (2 Bft)
26.07.2016 03:50 16,4 C 16,4 C 93 % 1017,9 hPa 0,0 mm 3,4 km/h (1 Bft) S 169 0 min 0,000 mm 0,0 UV-I 0 W/m 15,3 C 6,4 km/h (2 Bft)
26.07.2016 03:51 16,4 C 16,4 C 93 % 1017,9 hPa 0,0 mm 1,4 km/h (1 Bft) S 169 0 min 0,000 mm 0,0 UV-I 0 W/m 15,3 C 3,2 km/h (1 Bft)
26.07.2016 03:52 16,4 C 16,4 C 94 % 1017,9 hPa 0,0 mm 1,3 km/h (1 Bft) S 169 0 min 0,000 mm 0,0 UV-I 0 W/m 15,4 C 3,2 km/h (1 Bft)
26.07.2016 03:53 16,4 C 16,4 C 93 % 1017,9 hPa 0,0 mm 3,6 km/h (1 Bft) S 178 0 min 0,000 mm 0,0 UV-I 0 W/m 15,3 C 6,4 km/h (2 Bft)
26.07.2016 03:54 16,4 C 16,4 C 93 % 1017,9 hPa 0,0 mm 3,5 km/h (1 Bft) S-SO 161 0 min 0,000 mm 0,0 UV-I 0 W/m 15,3 C 6,4 km/h (2 Bft)
26.07.2016 03:55 16,4 C 16,4 C 93 % 1017,9 hPa 0,0 mm 1,8 km/h (1 Bft) S-SO 161 0 min 0,000 mm 0,0 UV-I 0 W/m 15,3 C 3,2 km/h (1 Bft)
26.07.2016 03:56 16,4 C 16,4 C 94 % 1017,9 hPa 0,0 mm 0,4 km/h (0 Bft) S-SO 161 0 min 0,000 mm 0,0 UV-I 0 W/m 15,4 C 3,2 km/h (1 Bft)
26.07.2016 03:57 16,4 C 16,4 C 94 % 1017,9 hPa 0,0 mm 0,1 km/h (0 Bft) S-SO 161 0 min 0,000 mm 0,0 UV-I 0 W/m 15,4 C 1,6 km/h (1 Bft)
26.07.2016 03:58 16,4 C 16,4 C 94 % 1017,9 hPa 0,0 mm 0,2 km/h (0 Bft) S-SO 161 0 min 0,000 mm 0,0 UV-I 0 W/m 15,4 C 1,6 km/h (1 Bft)
26.07.2016 03:59 16,4 C 16,4 C 94 % 1017,9 hPa 0,0 mm 0,0 km/h (0 Bft) S-SO 161 0 min 0,000 mm 0,0 UV-I 0 W/m 15,4 C 0,0 km/h (0 Bft)
26.07.2016 04:00 16,4 C 16,5 C 94 % 1017,9 hPa 0,0 mm 1,2 km/h (1 Bft) S-SO 161 0 min 0,000 mm 0,0 UV-I 0 W/m 15,4 C 1,6 km/h (1 Bft)
26.07.2016 04:01 16,4 C 16,4 C 93 % 1017,9 hPa 0,0 mm 0,4 km/h (0 Bft) S-SO 161 0 min 0,000 mm 0,0 UV-I 0 W/m 15,3 C 1,6 km/h (1 Bft)
26.07.2016 04:02 16,5 C 16,5 C 93 % 1017,9 hPa 0,0 mm 0,0 km/h (0 Bft) S-SO 161 0 min 0,000 mm 0,0 UV-I 0 W/m 15,4 C 0,0 km/h (0 Bft)
26.07.2016 04:03 16,5 C 16,5 C 93 % 1017,9 hPa 0,0 mm 0,6 km/h (0 Bft) S-SO 161 0 min 0,000 mm 0,0 UV-I 0 W/m 15,4 C 1,6 km/h (1 Bft)
26.07.2016 04:04 16,5 C 16,5 C 94 % 1017,8 hPa 0,0 mm 0,5 km/h (0 Bft) S-SO 161 0 min 0,000 mm 0,0 UV-I 0 W/m 15,5 C 1,6 km/h (1 Bft)
26.07.2016 04:05 16,4 C 16,5 C 93 % 1017,9 hPa 0,0 mm 0,1 km/h (0 Bft) S-SO 161 0 min 0,000 mm 0,0 UV-I 0 W/m 15,3 C 1,6 km/h (1 Bft)
26.07.2016 04:06 16,5 C 16,5 C 93 % 1017,9 hPa 0,0 mm 0,2 km/h (0 Bft) S-SO 161 0 min 0,000 mm 0,0 UV-I 0 W/m 15,4 C 1,6 km/h (1 Bft)
26.07.2016 04:07 16,6 C 16,6 C 93 % 1017,9 hPa 0,0 mm 0,5 km/h (0 Bft) S-SO 162 0 min 0,000 mm 0,0 UV-I 0 W/m 15,5 C 1,6 km/h (1 Bft)
26.07.2016 04:08 16,6 C 16,6 C 93 % 1017,9 hPa 0,0 mm 1,3 km/h (1 Bft) S-SO 162 0 min 0,000 mm 0,0 UV-I 0 W/m 15,5 C 3,2 km/h (1 Bft)
26.07.2016 04:09 16,6 C 16,6 C 93 % 1017,9 hPa 0,0 mm 1,5 km/h (1 Bft) S 186 0 min 0,000 mm 0,0 UV-I 0 W/m 15,5 C 3,2 km/h (1 Bft)
26.07.2016 04:10 16,7 C 16,7 C 93 % 1017,9 hPa 0,0 mm 0,4 km/h (0 Bft) S 186 0 min 0,000 mm 0,0 UV-I 0 W/m 15,6 C 1,6 km/h (1 Bft)
26.07.2016 04:11 16,7 C 16,7 C 93 % 1017,9 hPa 0,0 mm 0,1 km/h (0 Bft) S 186 0 min 0,000 mm 0,0 UV-I 0 W/m 15,6 C 1,6 km/h (1 Bft)
26.07.2016 04:12 16,6 C 16,7 C 93 % 1017,9 hPa 0,0 mm 0,3 km/h (0 Bft) S 186 0 min 0,000 mm 0,0 UV-I 0 W/m 15,5 C 1,6 km/h (1 Bft)
26.07.2016 04:13 16,6 C 16,6 C 93 % 1017,9 hPa 0,0 mm 0,0 km/h (0 Bft) S 186 0 min 0,000 mm 0,0 UV-I 0 W/m 15,5 C 0,0 km/h (0 Bft)
26.07.2016 04:14 16,6 C 16,7 C 93 % 1017,8 hPa 0,0 mm 0,0 km/h (0 Bft) S 186 0 min 0,000 mm 0,0 UV-I 0 W/m 15,5 C 0,0 km/h (0 Bft)
26.07.2016 04:15 16,6 C 16,7 C 93 % 1017,9 hPa 0,0 mm 0,0 km/h (0 Bft) S 186 0 min 0,000 mm 0,0 UV-I 0 W/m 15,5 C 0,0 km/h (0 Bft)
26.07.2016 04:16 16,7 C 16,7 C 93 % 1017,8 hPa 0,0 mm 0,0 km/h (0 Bft) S 186 0 min 0,000 mm 0,0 UV-I 0 W/m 15,6 C 0,0 km/h (0 Bft)
26.07.2016 04:17 16,6 C 16,7 C 93 % 1017,8 hPa 0,0 mm 0,7 km/h (0 Bft) S 186 0 min 0,000 mm 0,0 UV-I 0 W/m 15,5 C 1,6 km/h (1 Bft)
26.07.2016 04:18 16,6 C 16,7 C 93 % 1017,8 hPa 0,0 mm 0,1 km/h (0 Bft) S 186 0 min 0,000 mm 0,0 UV-I 0 W/m 15,5 C 1,6 km/h (1 Bft)
26.07.2016 04:19 16,6 C 16,6 C 93 % 1017,8 hPa 0,0 mm 0,3 km/h (0 Bft) S 186 0 min 0,000 mm 0,0 UV-I 0 W/m 15,5 C 1,6 km/h (1 Bft)
26.07.2016 04:20 16,5 C 16,6 C 94 % 1017,8 hPa 0,0 mm 0,1 km/h (0 Bft) S 186 0 min 0,000 mm 0,0 UV-I 0 W/m 15,5 C 1,6 km/h (1 Bft)
26.07.2016 04:21 16,5 C 16,6 C 94 % 1017,8 hPa 0,0 mm 0,0 km/h (0 Bft) S 186 0 min 0,000 mm 0,0 UV-I 0 W/m 15,5 C 0,0 km/h (0 Bft)
26.07.2016 04:22 16,4 C 16,5 C 94 % 1017,8 hPa 0,0 mm 0,7 km/h (0 Bft) S 186 0 min 0,000 mm 0,0 UV-I 0 W/m 15,4 C 1,6 km/h (1 Bft)
26.07.2016 04:23 16,4 C 16,5 C 94 % 1017,8 hPa 0,0 mm 0,5 km/h (0 Bft) S 186 0 min 0,000 mm 0,0 UV-I 0 W/m 15,4 C 1,6 km/h (1 Bft)
26.07.2016 04:24 16,4 C 16,4 C 94 % 1017,8 hPa 0,0 mm 0,0 km/h (0 Bft) S 186 0 min 0,000 mm 0,0 UV-I 0 W/m 15,4 C 0,0 km/h (0 Bft)
26.07.2016 04:25 16,4 C 16,4 C 94 % 1017,7 hPa 0,0 mm 0,0 km/h (0 Bft) S 186 0 min 0,000 mm 0,0 UV-I 0 W/m 15,4 C 0,0 km/h (0 Bft)
26.07.2016 04:26 16,4 C 16,4 C 94 % 1017,7 hPa 0,0 mm 0,0 km/h (0 Bft) S 186 0 min 0,000 mm 0,0 UV-I 0 W/m 15,4 C 0,0 km/h (0 Bft)
26.07.2016 04:27 16,4 C 16,5 C 94 % 1017,7 hPa 0,0 mm 0,0 km/h (0 Bft) S 186 0 min 0,000 mm 0,0 UV-I 0 W/m 15,4 C 0,0 km/h (0 Bft)
26.07.2016 04:28 16,4 C 16,4 C 94 % 1017,7 hPa 0,0 mm 0,0 km/h (0 Bft) S 186 0 min 0,000 mm 0,0 UV-I 0 W/m 15,4 C 0,0 km/h (0 Bft)
26.07.2016 04:29 16,4 C 16,4 C 94 % 1017,7 hPa 0,0 mm 0,0 km/h (0 Bft) S 186 0 min 0,000 mm 0,0 UV-I 0 W/m 15,4 C 0,0 km/h (0 Bft)
26.07.2016 04:30 16,4 C 16,4 C 94 % 1017,7 hPa 0,0 mm 0,0 km/h (0 Bft) S 186 0 min 0,000 mm 0,0 UV-I 0 W/m 15,4 C 0,0 km/h (0 Bft)
26.07.2016 04:31 16,4 C 16,4 C 94 % 1017,7 hPa 0,0 mm 0,0 km/h (0 Bft) S 186 0 min 0,000 mm 0,0 UV-I 0 W/m 15,4 C 0,0 km/h (0 Bft)
26.07.2016 04:32 16,3 C 16,4 C 94 % 1017,8 hPa 0,0 mm 0,0 km/h (0 Bft) S 186 0 min 0,000 mm 0,0 UV-I 0 W/m 15,3 C 0,0 km/h (0 Bft)
26.07.2016 04:33 16,3 C 16,3 C 94 % 1017,8 hPa 0,0 mm 0,0 km/h (0 Bft) S 186 0 min 0,000 mm 0,0 UV-I 0 W/m 15,3 C 0,0 km/h (0 Bft)
26.07.2016 04:34 16,3 C 16,3 C 94 % 1017,7 hPa 0,0 mm 0,0 km/h (0 Bft) S 186 0 min 0,000 mm 0,0 UV-I 0 W/m 15,3 C 0,0 km/h (0 Bft)
26.07.2016 04:35 16,3 C 16,3 C 95 % 1017,7 hPa 0,0 mm 0,8 km/h (0 Bft) S 186 0 min 0,000 mm 0,0 UV-I 0 W/m 15,5 C 3,2 km/h (1 Bft)
26.07.2016 04:36 16,3 C 16,3 C 95 % 1017,7 hPa 0,0 mm 1,6 km/h (1 Bft) S 186 0 min 0,000 mm 0,0 UV-I 0 W/m 15,5 C 3,2 km/h (1 Bft)
26.07.2016 04:37 16,3 C 16,3 C 94 % 1017,7 hPa 0,0 mm 0,1 km/h (0 Bft) S 186 0 min 0,000 mm 0,0 UV-I 0 W/m 15,3 C 1,6 km/h (1 Bft)
26.07.2016 04:38 16,3 C 16,3 C 94 % 1017,7 hPa 0,0 mm 0,0 km/h (0 Bft) S 186 0 min 0,000 mm 0,0 UV-I 0 W/m 15,3 C 0,0 km/h (0 Bft)
26.07.2016 04:39 16,3 C 16,3 C 94 % 1017,7 hPa 0,0 mm 1,6 km/h (1 Bft) S-SW 198 0 min 0,000 mm 0,0 UV-I 0 W/m 15,3 C 3,2 km/h (1 Bft)
26.07.2016 04:40 16,3 C 16,3 C 94 % 1017,7 hPa 0,0 mm 1,1 km/h (1 Bft) S-SW 198 0 min 0,000 mm 0,0 UV-I 0 W/m 15,3 C 1,6 km/h (1 Bft)
26.07.2016 04:41 16,2 C 16,3 C 94 % 1017,6 hPa 0,0 mm 0,0 km/h (0 Bft) S-SW 198 0 min 0,000 mm 0,0 UV-I 0 W/m 15,2 C 0,0 km/h (0 Bft)
26.07.2016 04:42 16,2 C 16,3 C 94 % 1017,6 hPa 0,0 mm 0,0 km/h (0 Bft) S-SW 198 0 min 0,000 mm 0,0 UV-I 0 W/m 15,2 C 0,0 km/h (0 Bft)
26.07.2016 04:43 16,3 C 16,3 C 94 % 1017,6 hPa 0,0 mm 0,0 km/h (0 Bft) S-SW 198 0 min 0,000 mm 0,0 UV-I 0 W/m 15,3 C 0,0 km/h (0 Bft)
26.07.2016 04:44 16,3 C 16,3 C 94 % 1017,6 hPa 0,0 mm 0,3 km/h (0 Bft) S-SW 198 0 min 0,000 mm 0,0 UV-I 0 W/m 15,3 C 1,6 km/h (1 Bft)
26.07.2016 04:45 16,2 C 16,3 C 94 % 1017,6 hPa 0,0 mm 0,0 km/h (0 Bft) S-SW 198 0 min 0,000 mm 0,0 UV-I 0 W/m 15,2 C 0,0 km/h (0 Bft)
26.07.2016 04:46 16,2 C 16,2 C 94 % 1017,6 hPa 0,0 mm 0,0 km/h (0 Bft) S-SW 198 0 min 0,000 mm 0,0 UV-I 0 W/m 15,2 C 0,0 km/h (0 Bft)
26.07.2016 04:47 16,2 C 16,2 C 94 % 1017,6 hPa 0,0 mm 0,0 km/h (0 Bft) S-SW 198 0 min 0,000 mm 0,0 UV-I 0 W/m 15,2 C 0,0 km/h (0 Bft)
26.07.2016 04:48 16,2 C 16,2 C 94 % 1017,6 hPa 0,0 mm 0,0 km/h (0 Bft) S-SW 198 0 min 0,000 mm 0,0 UV-I 0 W/m 15,2 C 0,0 km/h (0 Bft)
26.07.2016 04:49 16,2 C 16,2 C 94 % 1017,6 hPa 0,0 mm 0,0 km/h (0 Bft) S-SW 198 0 min 0,000 mm 0,0 UV-I 0 W/m 15,2 C 0,0 km/h (0 Bft)
26.07.2016 04:50 16,2 C 16,2 C 94 % 1017,6 hPa 0,0 mm 0,0 km/h (0 Bft) S-SW 198 0 min 0,000 mm 0,0 UV-I 0 W/m 15,2 C 0,0 km/h (0 Bft)
26.07.2016 04:51 16,2 C 16,2 C 94 % 1017,7 hPa 0,0 mm 0,0 km/h (0 Bft) S-SW 198 0 min 0,000 mm 0,0 UV-I 0 W/m 15,2 C 0,0 km/h (0 Bft)
26.07.2016 04:52 16,3 C 16,3 C 94 % 1017,6 hPa 0,0 mm 0,4 km/h (0 Bft) S-SW 198 0 min 0,000 mm 0,0 UV-I 0 W/m 15,3 C 1,6 km/h (1 Bft)
26.07.2016 04:53 16,3 C 16,3 C 94 % 1017,6 hPa 0,0 mm 0,1 km/h (0 Bft) S-SW 198 0 min 0,000 mm 0,0 UV-I 0 W/m 15,3 C 1,6 km/h (1 Bft)
26.07.2016 04:54 16,3 C 16,3 C 94 % 1017,6 hPa 0,0 mm 0,0 km/h (0 Bft) S-SW 198 0 min 0,000 mm 0,0 UV-I 0 W/m 15,3 C 0,0 km/h (0 Bft)
26.07.2016 04:55 16,2 C 16,3 C 94 % 1017,6 hPa 0,0 mm 0,0 km/h (0 Bft) S-SW 198 0 min 0,000 mm 0,0 UV-I 0 W/m 15,2 C 0,0 km/h (0 Bft)
26.07.2016 04:56 16,3 C 16,3 C 94 % 1017,6 hPa 0,0 mm 0,0 km/h (0 Bft) S-SW 198 0 min 0,000 mm 0,0 UV-I 0 W/m 15,3 C 0,0 km/h (0 Bft)
26.07.2016 04:57 16,3 C 16,3 C 94 % 1017,6 hPa 0,0 mm 0,0 km/h (0 Bft) S-SW 198 0 min 0,000 mm 0,0 UV-I 0 W/m 15,3 C 0,0 km/h (0 Bft)
26.07.2016 04:58 16,3 C 16,3 C 94 % 1017,6 hPa 0,0 mm 0,3 km/h (0 Bft) S-SW 198 0 min 0,000 mm 0,0 UV-I 0 W/m 15,3 C 1,6 km/h (1 Bft)
26.07.2016 04:59 16,3 C 16,3 C 94 % 1017,6 hPa 0,0 mm 2,2 km/h (1 Bft) S-SW 197 0 min 0,000 mm 0,0 UV-I 0 W/m 15,3 C 3,2 km/h (1 Bft)
26.07.2016 05:00 16,3 C 16,3 C 94 % 1017,6 hPa 0,0 mm 1,5 km/h (1 Bft) S-SW 197 0 min 0,000 mm 0,0 UV-I 0 W/m 15,3 C 3,2 km/h (1 Bft)
26.07.2016 05:01 16,3 C 16,3 C 94 % 1017,6 hPa 0,0 mm 1,1 km/h (1 Bft) S-SW 197 0 min 0,000 mm 0,0 UV-I 0 W/m 15,3 C 1,6 km/h (1 Bft)
26.07.2016 05:02 16,3 C 16,3 C 94 % 1017,6 hPa 0,0 mm 0,4 km/h (0 Bft) S-SW 197 0 min 0,000 mm 0,0 UV-I 0 W/m 15,3 C 1,6 km/h (1 Bft)
26.07.2016 05:03 16,3 C 16,3 C 94 % 1017,6 hPa 0,0 mm 0,0 km/h (0 Bft) S-SW 197 0 min 0,000 mm 0,0 UV-I 0 W/m 15,3 C 0,0 km/h (0 Bft)
26.07.2016 05:04 16,2 C 16,3 C 94 % 1017,6 hPa 0,0 mm 0,0 km/h (0 Bft) S-SW 197 0 min 0,000 mm 0,0 UV-I 0 W/m 15,2 C 0,0 km/h (0 Bft)
26.07.2016 05:05 16,2 C 16,2 C 94 % 1017,6 hPa 0,0 mm 0,0 km/h (0 Bft) S-SW 197 0 min 0,000 mm 0,0 UV-I 0 W/m 15,2 C 0,0 km/h (0 Bft)
26.07.2016 05:06 16,2 C 16,2 C 94 % 1017,6 hPa 0,0 mm 0,0 km/h (0 Bft) S-SW 197 0 min 0,000 mm 0,0 UV-I 0 W/m 15,2 C 0,0 km/h (0 Bft)
26.07.2016 05:07 16,2 C 16,2 C 94 % 1017,6 hPa 0,0 mm 0,0 km/h (0 Bft) S-SW 197 0 min 0,000 mm 0,0 UV-I 0 W/m 15,2 C 0,0 km/h (0 Bft)
26.07.2016 05:08 16,2 C 16,2 C 94 % 1017,6 hPa 0,0 mm 0,7 km/h (0 Bft) S-SW 197 0 min 0,000 mm 0,0 UV-I 0 W/m 15,2 C 1,6 km/h (1 Bft)
26.07.2016 05:09 16,2 C 16,2 C 94 % 1017,6 hPa 0,0 mm 1,4 km/h (1 Bft) S-SW 198 0 min 0,000 mm 0,0 UV-I 0 W/m 15,2 C 1,6 km/h (1 Bft)
26.07.2016 05:10 16,2 C 16,2 C 94 % 1017,6 hPa 0,0 mm 0,5 km/h (0 Bft) S-SW 198 0 min 0,000 mm 0,0 UV-I 0 W/m 15,2 C 1,6 km/h (1 Bft)
26.07.2016 05:11 16,2 C 16,2 C 94 % 1017,7 hPa 0,0 mm 0,0 km/h (0 Bft) S-SW 198 0 min 0,000 mm 0,0 UV-I 0 W/m 15,2 C 0,0 km/h (0 Bft)
26.07.2016 05:12 16,2 C 16,2 C 94 % 1017,7 hPa 0,0 mm 0,1 km/h (0 Bft) S-SW 198 0 min 0,000 mm 0,0 UV-I 0 W/m 15,2 C 1,6 km/h (1 Bft)
26.07.2016 05:13 16,2 C 16,2 C 94 % 1017,7 hPa 0,0 mm 0,0 km/h (0 Bft) S-SW 198 0 min 0,000 mm 0,0 UV-I 0 W/m 15,2 C 0,0 km/h (0 Bft)
26.07.2016 05:14 16,2 C 16,2 C 94 % 1017,7 hPa 0,0 mm 0,0 km/h (0 Bft) S-SW 198 0 min 0,000 mm 0,0 UV-I 0 W/m 15,2 C 0,0 km/h (0 Bft)
26.07.2016 05:15 16,2 C 16,2 C 94 % 1017,7 hPa 0,0 mm 0,0 km/h (0 Bft) S-SW 198 0 min 0,000 mm 0,0 UV-I 0 W/m 15,2 C 0,0 km/h (0 Bft)
26.07.2016 05:16 16,2 C 16,2 C 94 % 1017,7 hPa 0,0 mm 0,0 km/h (0 Bft) S-SW 198 0 min 0,000 mm 0,0 UV-I 0 W/m 15,2 C 0,0 km/h (0 Bft)
26.07.2016 05:17 16,2 C 16,2 C 94 % 1017,7 hPa 0,0 mm 0,9 km/h (0 Bft) S-SW 198 0 min 0,000 mm 0,0 UV-I 0 W/m 15,2 C 1,6 km/h (1 Bft)
26.07.2016 05:18 16,2 C 16,2 C 94 % 1017,7 hPa 0,0 mm 0,9 km/h (0 Bft) S-SW 198 0 min 0,000 mm 0,0 UV-I 0 W/m 15,2 C 1,6 km/h (1 Bft)
26.07.2016 05:19 16,2 C 16,2 C 94 % 1017,7 hPa 0,0 mm 0,3 km/h (0 Bft) S-SW 198 0 min 0,000 mm 0,0 UV-I 0 W/m 15,2 C 1,6 km/h (1 Bft)
26.07.2016 05:20 16,1 C 16,2 C 94 % 1017,7 hPa 0,0 mm 0,0 km/h (0 Bft) S-SW 198 0 min 0,000 mm 0,0 UV-I 0 W/m 15,1 C 0,0 km/h (0 Bft)
26.07.2016 05:21 16,2 C 16,2 C 94 % 1017,8 hPa 0,0 mm 0,0 km/h (0 Bft) S-SW 198 0 min 0,000 mm 0,0 UV-I 0 W/m 15,2 C 0,0 km/h (0 Bft)
26.07.2016 05:22 16,1 C 16,2 C 94 % 1017,8 hPa 0,0 mm 0,0 km/h (0 Bft) S-SW 198 0 min 0,000 mm 0,0 UV-I 0 W/m 15,1 C 0,0 km/h (0 Bft)
26.07.2016 05:23 16,1 C 16,2 C 94 % 1017,8 hPa 0,0 mm 0,0 km/h (0 Bft) S-SW 198 0 min 0,000 mm 0,0 UV-I 0 W/m 15,1 C 0,0 km/h (0 Bft)
26.07.2016 05:24 16,1 C 16,1 C 94 % 1017,8 hPa 0,0 mm 0,0 km/h (0 Bft) S-SW 198 0 min 0,000 mm 0,0 UV-I 0 W/m 15,1 C 0,0 km/h (0 Bft)
26.07.2016 05:25 16,1 C 16,1 C 94 % 1017,8 hPa 0,0 mm 0,0 km/h (0 Bft) S-SW 198 0 min 0,000 mm 0,0 UV-I 0 W/m 15,1 C 0,0 km/h (0 Bft)
26.07.2016 05:26 16,1 C 16,1 C 94 % 1017,8 hPa 0,0 mm 0,0 km/h (0 Bft) S-SW 198 0 min 0,000 mm 0,0 UV-I 0 W/m 15,1 C 0,0 km/h (0 Bft)
26.07.2016 05:27 16,1 C 16,1 C 94 % 1017,8 hPa 0,0 mm 0,0 km/h (0 Bft) S-SW 198 0 min 0,000 mm 0,0 UV-I 0 W/m 15,1 C 0,0 km/h (0 Bft)
26.07.2016 05:28 16,1 C 16,1 C 94 % 1017,8 hPa 0,0 mm 0,0 km/h (0 Bft) S-SW 198 0 min 0,000 mm 0,0 UV-I 0 W/m 15,1 C 0,0 km/h (0 Bft)
26.07.2016 05:29 16,1 C 16,1 C 94 % 1017,8 hPa 0,0 mm 0,0 km/h (0 Bft) S-SW 198 0 min 0,000 mm 0,0 UV-I 0 W/m 15,1 C 0,0 km/h (0 Bft)
26.07.2016 05:30 16,1 C 16,1 C 94 % 1017,8 hPa 0,0 mm 0,0 km/h (0 Bft) S-SW 198 0 min 0,000 mm 0,0 UV-I 0 W/m 15,1 C 0,0 km/h (0 Bft)
26.07.2016 05:31 16,1 C 16,1 C 94 % 1017,8 hPa 0,0 mm 0,0 km/h (0 Bft) S-SW 198 0 min 0,000 mm 0,0 UV-I 0 W/m 15,1 C 0,0 km/h (0 Bft)
26.07.2016 05:32 16,0 C 16,1 C 94 % 1017,8 hPa 0,0 mm 0,0 km/h (0 Bft) S-SW 198 0 min 0,000 mm 0,0 UV-I 0 W/m 15,0 C 0,0 km/h (0 Bft)
26.07.2016 05:33 16,0 C 16,0 C 94 % 1017,8 hPa 0,0 mm 0,0 km/h (0 Bft) S-SW 198 0 min 0,000 mm 0,0 UV-I 0 W/m 15,0 C 0,0 km/h (0 Bft)
26.07.2016 05:34 16,0 C 16,0 C 94 % 1017,8 hPa 0,0 mm 0,0 km/h (0 Bft) S-SW 198 0 min 0,000 mm 0,0 UV-I 0 W/m 15,0 C 0,0 km/h (0 Bft)
26.07.2016 05:35 15,9 C 16,0 C 94 % 1017,8 hPa 0,0 mm 0,0 km/h (0 Bft) S-SW 198 0 min 0,000 mm 0,0 UV-I 0 W/m 14,9 C 0,0 km/h (0 Bft)
26.07.2016 05:36 15,9 C 15,9 C 94 % 1017,8 hPa 0,0 mm 0,0 km/h (0 Bft) S-SW 198 0 min 0,000 mm 0,0 UV-I 0 W/m 14,9 C 0,0 km/h (0 Bft)
26.07.2016 05:37 15,9 C 15,9 C 94 % 1017,8 hPa 0,0 mm 0,0 km/h (0 Bft) S-SW 198 0 min 0,000 mm 0,0 UV-I 0 W/m 14,9 C 0,0 km/h (0 Bft)
26.07.2016 05:38 15,9 C 15,9 C 94 % 1017,8 hPa 0,0 mm 0,0 km/h (0 Bft) S-SW 198 0 min 0,000 mm 0,0 UV-I 0 W/m 14,9 C 0,0 km/h (0 Bft)
26.07.2016 05:39 15,9 C 15,9 C 94 % 1017,8 hPa 0,0 mm 0,0 km/h (0 Bft) S-SW 198 0 min 0,000 mm 0,0 UV-I 0 W/m 14,9 C 0,0 km/h (0 Bft)
26.07.2016 05:40 15,9 C 15,9 C 94 % 1017,8 hPa 0,0 mm 0,0 km/h (0 Bft) S-SW 198 0 min 0,000 mm 0,0 UV-I 0 W/m 14,9 C 0,0 km/h (0 Bft)
26.07.2016 05:41 15,9 C 15,9 C 94 % 1017,8 hPa 0,0 mm 0,0 km/h (0 Bft) S-SW 198 0 min 0,000 mm 0,0 UV-I 0 W/m 14,9 C 0,0 km/h (0 Bft)
26.07.2016 05:42 15,9 C 15,9 C 94 % 1017,8 hPa 0,0 mm 0,0 km/h (0 Bft) S-SW 198 0 min 0,000 mm 0,0 UV-I 0 W/m 14,9 C 0,0 km/h (0 Bft)
26.07.2016 05:43 15,9 C 15,9 C 94 % 1017,8 hPa 0,0 mm 0,0 km/h (0 Bft) S-SW 198 0 min 0,000 mm 0,0 UV-I 0 W/m 14,9 C 0,0 km/h (0 Bft)
26.07.2016 05:44 15,9 C 15,9 C 94 % 1017,8 hPa 0,0 mm 0,0 km/h (0 Bft) S-SW 198 0 min 0,000 mm 0,0 UV-I 0 W/m 14,9 C 0,0 km/h (0 Bft)
26.07.2016 05:45 15,9 C 15,9 C 94 % 1017,8 hPa 0,0 mm 0,0 km/h (0 Bft) S-SW 198 0 min 0,000 mm 0,0 UV-I 0 W/m 14,9 C 0,0 km/h (0 Bft)
26.07.2016 05:46 15,9 C 15,9 C 94 % 1017,8 hPa 0,0 mm 0,0 km/h (0 Bft) S-SW 198 0 min 0,000 mm 0,0 UV-I 0 W/m 14,9 C 0,0 km/h (0 Bft)
26.07.2016 05:47 15,9 C 15,9 C 94 % 1017,8 hPa 0,0 mm 0,0 km/h (0 Bft) S-SW 198 0 min 0,000 mm 0,0 UV-I 0 W/m 14,9 C 0,0 km/h (0 Bft)
26.07.2016 05:48 15,9 C 15,9 C 94 % 1017,8 hPa 0,0 mm 0,0 km/h (0 Bft) S-SW 198 0 min 0,000 mm 0,0 UV-I 0 W/m 14,9 C 0,0 km/h (0 Bft)
26.07.2016 05:49 15,9 C 15,9 C 94 % 1017,8 hPa 0,0 mm 0,0 km/h (0 Bft) S-SW 198 0 min 0,000 mm 0,0 UV-I 0 W/m 14,9 C 0,0 km/h (0 Bft)
26.07.2016 05:50 15,9 C 15,9 C 94 % 1017,8 hPa 0,0 mm 0,0 km/h (0 Bft) S-SW 198 0 min 0,000 mm 0,0 UV-I 0 W/m 14,9 C 0,0 km/h (0 Bft)
26.07.2016 05:51 15,9 C 15,9 C 94 % 1017,8 hPa 0,0 mm 0,0 km/h (0 Bft) S-SW 198 0 min 0,000 mm 0,0 UV-I 0 W/m 14,9 C 0,0 km/h (0 Bft)
26.07.2016 05:52 15,9 C 15,9 C 94 % 1017,8 hPa 0,0 mm 0,0 km/h (0 Bft) S-SW 198 0 min 0,000 mm 0,0 UV-I 0 W/m 14,9 C 0,0 km/h (0 Bft)
26.07.2016 05:53 15,9 C 15,9 C 94 % 1017,8 hPa 0,0 mm 0,0 km/h (0 Bft) S-SW 198 0 min 0,000 mm 0,0 UV-I 0 W/m 14,9 C 0,0 km/h (0 Bft)
26.07.2016 05:54 15,9 C 15,9 C 94 % 1017,8 hPa 0,0 mm 0,0 km/h (0 Bft) S-SW 198 0 min 0,000 mm 0,0 UV-I 5 W/m 14,9 C 0,0 km/h (0 Bft)
26.07.2016 05:55 15,9 C 15,9 C 94 % 1017,8 hPa 0,0 mm 0,0 km/h (0 Bft) S-SW 198 0 min 0,000 mm 0,0 UV-I 5 W/m 14,9 C 0,0 km/h (0 Bft)
26.07.2016 05:56 15,9 C 15,9 C 94 % 1017,8 hPa 0,0 mm 0,0 km/h (0 Bft) S-SW 198 0 min 0,000 mm 0,0 UV-I 5 W/m 14,9 C 0,0 km/h (0 Bft)
26.07.2016 05:57 15,9 C 15,9 C 94 % 1017,8 hPa 0,0 mm 0,0 km/h (0 Bft) S-SW 198 0 min 0,000 mm 0,0 UV-I 5 W/m 14,9 C 0,0 km/h (0 Bft)
26.07.2016 05:58 15,9 C 15,9 C 94 % 1017,8 hPa 0,0 mm 0,0 km/h (0 Bft) S-SW 198 0 min 0,000 mm 0,0 UV-I 5 W/m 14,9 C 0,0 km/h (0 Bft)
26.07.2016 05:59 15,9 C 15,9 C 94 % 1017,8 hPa 0,0 mm 0,0 km/h (0 Bft) S-SW 198 0 min 0,000 mm 0,0 UV-I 5 W/m 14,9 C 0,0 km/h (0 Bft)
26.07.2016 06:00 15,9 C 16,0 C 94 % 1017,8 hPa 0,0 mm 0,0 km/h (0 Bft) S-SW 198 0 min 0,000 mm 0,0 UV-I 5 W/m 14,9 C 0,0 km/h (0 Bft)
26.07.2016 06:01 15,9 C 15,9 C 94 % 1017,8 hPa 0,0 mm 0,0 km/h (0 Bft) S-SW 198 0 min 0,000 mm 0,0 UV-I 7 W/m 14,9 C 0,0 km/h (0 Bft)
26.07.2016 06:02 15,9 C 15,9 C 94 % 1017,8 hPa 0,0 mm 0,0 km/h (0 Bft) S-SW 198 0 min 0,000 mm 0,0 UV-I 7 W/m 14,9 C 0,0 km/h (0 Bft)
26.07.2016 06:03 15,9 C 15,9 C 94 % 1017,8 hPa 0,0 mm 0,0 km/h (0 Bft) S-SW 198 0 min 0,000 mm 0,0 UV-I 7 W/m 14,9 C 0,0 km/h (0 Bft)
26.07.2016 06:04 15,9 C 15,9 C 94 % 1017,8 hPa 0,0 mm 0,0 km/h (0 Bft) S-SW 198 0 min 0,000 mm 0,0 UV-I 7 W/m 14,9 C 0,0 km/h (0 Bft)
26.07.2016 06:05 15,9 C 15,9 C 94 % 1017,8 hPa 0,0 mm 0,0 km/h (0 Bft) S-SW 198 0 min 0,000 mm 0,0 UV-I 7 W/m 14,9 C 0,0 km/h (0 Bft)
26.07.2016 06:06 15,9 C 15,9 C 94 % 1017,9 hPa 0,0 mm 0,0 km/h (0 Bft) S-SW 198 0 min 0,000 mm 0,0 UV-I 7 W/m 14,9 C 0,0 km/h (0 Bft)
26.07.2016 06:07 15,9 C 15,9 C 94 % 1017,8 hPa 0,0 mm 0,0 km/h (0 Bft) S-SW 198 0 min 0,000 mm 0,0 UV-I 7 W/m 14,9 C 0,0 km/h (0 Bft)
26.07.2016 06:08 15,9 C 15,9 C 94 % 1017,8 hPa 0,0 mm 0,0 km/h (0 Bft) S-SW 198 0 min 0,000 mm 0,0 UV-I 7 W/m 14,9 C 0,0 km/h (0 Bft)
26.07.2016 06:09 16,0 C 16,0 C 94 % 1017,8 hPa 0,0 mm 0,0 km/h (0 Bft) S-SW 198 0 min 0,000 mm 0,0 UV-I 7 W/m 15,0 C 0,0 km/h (0 Bft)
26.07.2016 06:10 16,0 C 16,0 C 94 % 1017,8 hPa 0,0 mm 0,0 km/h (0 Bft) S-SW 198 0 min 0,000 mm 0,0 UV-I 7 W/m 15,0 C 0,0 km/h (0 Bft)
26.07.2016 06:11 16,0 C 16,0 C 94 % 1017,8 hPa 0,0 mm 0,0 km/h (0 Bft) S-SW 198 0 min 0,000 mm 0,0 UV-I 9 W/m 15,0 C 0,0 km/h (0 Bft)
26.07.2016 06:12 16,0 C 16,0 C 94 % 1017,8 hPa 0,0 mm 0,0 km/h (0 Bft) S-SW 198 0 min 0,000 mm 0,0 UV-I 9 W/m 15,0 C 0,0 km/h (0 Bft)
26.07.2016 06:13 16,1 C 16,1 C 94 % 1017,8 hPa 0,0 mm 0,0 km/h (0 Bft) S-SW 198 0 min 0,000 mm 0,0 UV-I 9 W/m 15,1 C 0,0 km/h (0 Bft)
26.07.2016 06:14 16,1 C 16,1 C 94 % 1017,8 hPa 0,0 mm 0,0 km/h (0 Bft) S-SW 198 0 min 0,000 mm 0,0 UV-I 9 W/m 15,1 C 0,0 km/h (0 Bft)
26.07.2016 06:15 16,1 C 16,1 C 94 % 1017,8 hPa 0,0 mm 0,1 km/h (0 Bft) S-SW 198 0 min 0,000 mm 0,0 UV-I 9 W/m 15,1 C 1,6 km/h (1 Bft)
26.07.2016 06:16 16,1 C 16,1 C 94 % 1017,8 hPa 0,0 mm 1,3 km/h (1 Bft) S-SW 198 0 min 0,000 mm 0,0 UV-I 11 W/m 15,1 C 1,6 km/h (1 Bft)
26.07.2016 06:17 16,1 C 16,1 C 94 % 1017,8 hPa 0,0 mm 1,3 km/h (1 Bft) S-SW 198 0 min 0,000 mm 0,0 UV-I 11 W/m 15,1 C 3,2 km/h (1 Bft)
26.07.2016 06:18 16,1 C 16,1 C 94 % 1017,8 hPa 0,0 mm 0,6 km/h (0 Bft) S-SW 198 0 min 0,000 mm 0,0 UV-I 11 W/m 15,1 C 1,6 km/h (1 Bft)
26.07.2016 06:19 16,2 C 16,2 C 94 % 1017,7 hPa 0,0 mm 1,3 km/h (1 Bft) S-SW 198 0 min 0,000 mm 0,0 UV-I 12 W/m 15,2 C 3,2 km/h (1 Bft)
26.07.2016 06:20 16,2 C 16,2 C 94 % 1017,8 hPa 0,0 mm 0,9 km/h (0 Bft) S-SW 198 0 min 0,000 mm 0,0 UV-I 12 W/m 15,2 C 1,6 km/h (1 Bft)
26.07.2016 06:21 16,2 C 16,2 C 94 % 1017,8 hPa 0,0 mm 0,9 km/h (0 Bft) S-SW 197 0 min 0,000 mm 0,0 UV-I 12 W/m 15,2 C 3,2 km/h (1 Bft)
26.07.2016 06:22 16,2 C 16,2 C 94 % 1017,8 hPa 0,0 mm 1,2 km/h (1 Bft) S-SW 197 0 min 0,000 mm 0,0 UV-I 14 W/m 15,2 C 1,6 km/h (1 Bft)
26.07.2016 06:23 16,2 C 16,2 C 94 % 1017,8 hPa 0,0 mm 0,0 km/h (0 Bft) S-SW 197 0 min 0,000 mm 0,0 UV-I 14 W/m 15,2 C 0,0 km/h (0 Bft)
26.07.2016 06:24 16,2 C 16,2 C 94 % 1017,8 hPa 0,0 mm 0,0 km/h (0 Bft) S-SW 197 0 min 0,000 mm 0,0 UV-I 16 W/m 15,2 C 0,0 km/h (0 Bft)
26.07.2016 06:25 16,2 C 16,2 C 94 % 1017,8 hPa 0,0 mm 0,2 km/h (0 Bft) S-SW 197 0 min 0,000 mm 0,0 UV-I 16 W/m 15,2 C 1,6 km/h (1 Bft)
26.07.2016 06:26 16,2 C 16,2 C 94 % 1017,8 hPa 0,0 mm 0,0 km/h (0 Bft) S-SW 197 0 min 0,000 mm 0,0 UV-I 16 W/m 15,2 C 0,0 km/h (0 Bft)
26.07.2016 06:27 16,2 C 16,2 C 94 % 1017,8 hPa 0,0 mm 0,0 km/h (0 Bft) S-SW 197 0 min 0,000 mm 0,0 UV-I 16 W/m 15,2 C 0,0 km/h (0 Bft)
26.07.2016 06:28 16,2 C 16,2 C 94 % 1017,9 hPa 0,0 mm 0,0 km/h (0 Bft) S-SW 197 0 min 0,000 mm 0,0 UV-I 16 W/m 15,2 C 0,0 km/h (0 Bft)
26.07.2016 06:29 16,2 C 16,2 C 94 % 1017,8 hPa 0,0 mm 0,0 km/h (0 Bft) S-SW 197 0 min 0,000 mm 0,0 UV-I 18 W/m 15,2 C 0,0 km/h (0 Bft)
26.07.2016 06:30 16,2 C 16,2 C 94 % 1017,9 hPa 0,0 mm 0,0 km/h (0 Bft) S-SW 197 0 min 0,000 mm 0,0 UV-I 18 W/m 15,2 C 0,0 km/h (0 Bft)
26.07.2016 06:31 16,3 C 16,3 C 94 % 1017,8 hPa 0,0 mm 0,1 km/h (0 Bft) S-SW 197 0 min 0,000 mm 0,0 UV-I 19 W/m 15,3 C 1,6 km/h (1 Bft)
26.07.2016 06:32 16,3 C 16,3 C 94 % 1017,8 hPa 0,0 mm 0,0 km/h (0 Bft) S-SW 197 0 min 0,000 mm 0,0 UV-I 19 W/m 15,3 C 0,0 km/h (0 Bft)
26.07.2016 06:33 16,3 C 16,3 C 94 % 1017,9 hPa 0,0 mm 0,0 km/h (0 Bft) S-SW 197 0 min 0,000 mm 0,0 UV-I 21 W/m 15,3 C 0,0 km/h (0 Bft)
26.07.2016 06:34 16,3 C 16,3 C 94 % 1017,9 hPa 0,0 mm 0,0 km/h (0 Bft) S-SW 197 0 min 0,000 mm 0,0 UV-I 21 W/m 15,3 C 0,0 km/h (0 Bft)
26.07.2016 06:35 16,3 C 16,3 C 94 % 1017,9 hPa 0,0 mm 0,0 km/h (0 Bft) S-SW 197 0 min 0,000 mm 0,0 UV-I 23 W/m 15,3 C 0,0 km/h (0 Bft)
26.07.2016 06:36 16,3 C 16,3 C 94 % 1017,9 hPa 0,0 mm 0,0 km/h (0 Bft) S-SW 197 0 min 0,000 mm 0,0 UV-I 23 W/m 15,3 C 0,0 km/h (0 Bft)
26.07.2016 06:37 16,3 C 16,3 C 94 % 1017,9 hPa 0,0 mm 0,0 km/h (0 Bft) S-SW 197 0 min 0,000 mm 0,0 UV-I 25 W/m 15,3 C 0,0 km/h (0 Bft)
26.07.2016 06:38 16,3 C 16,3 C 94 % 1017,9 hPa 0,0 mm 0,0 km/h (0 Bft) S-SW 197 0 min 0,000 mm 0,0 UV-I 26 W/m 15,3 C 0,0 km/h (0 Bft)
26.07.2016 06:39 16,3 C 16,3 C 94 % 1017,9 hPa 0,0 mm 0,0 km/h (0 Bft) S-SW 197 0 min 0,000 mm 0,0 UV-I 26 W/m 15,3 C 0,0 km/h (0 Bft)
26.07.2016 06:40 16,3 C 16,3 C 94 % 1017,9 hPa 0,0 mm 0,6 km/h (0 Bft) S-SW 197 0 min 0,000 mm 0,0 UV-I 28 W/m 15,3 C 1,6 km/h (1 Bft)
26.07.2016 06:41 16,3 C 16,3 C 94 % 1017,9 hPa 0,0 mm 0,2 km/h (0 Bft) S-SW 197 0 min 0,000 mm 0,0 UV-I 30 W/m 15,3 C 1,6 km/h (1 Bft)
26.07.2016 06:42 16,3 C 16,3 C 94 % 1017,8 hPa 0,0 mm 0,0 km/h (0 Bft) S-SW 197 0 min 0,000 mm 0,0 UV-I 30 W/m 15,3 C 0,0 km/h (0 Bft)
26.07.2016 06:43 16,4 C 16,4 C 94 % 1017,8 hPa 0,0 mm 0,0 km/h (0 Bft) S-SW 197 0 min 0,000 mm 0,0 UV-I 32 W/m 15,4 C 0,0 km/h (0 Bft)
26.07.2016 06:44 16,4 C 16,4 C 94 % 1017,8 hPa 0,0 mm 0,8 km/h (0 Bft) S-SW 197 0 min 0,000 mm 0,0 UV-I 32 W/m 15,4 C 1,6 km/h (1 Bft)
26.07.2016 06:45 16,4 C 16,4 C 94 % 1017,8 hPa 0,0 mm 2,0 km/h (1 Bft) S-SW 198 0 min 0,000 mm 0,0 UV-I 32 W/m 15,4 C 3,2 km/h (1 Bft)
26.07.2016 06:46 16,4 C 16,4 C 93 % 1017,8 hPa 0,0 mm 0,8 km/h (0 Bft) S-SW 198 0 min 0,000 mm 0,0 UV-I 32 W/m 15,3 C 1,6 km/h (1 Bft)
26.07.2016 06:47 16,4 C 16,4 C 94 % 1017,8 hPa 0,0 mm 0,5 km/h (0 Bft) S-SW 198 0 min 0,000 mm 0,0 UV-I 30 W/m 15,4 C 1,6 km/h (1 Bft)
26.07.2016 06:48 16,5 C 16,5 C 93 % 1017,8 hPa 0,0 mm 2,6 km/h (1 Bft) S-SW 198 0 min 0,000 mm 0,0 UV-I 30 W/m 15,4 C 3,2 km/h (1 Bft)
26.07.2016 06:49 16,5 C 16,5 C 93 % 1017,8 hPa 0,0 mm 0,8 km/h (0 Bft) S-SW 198 0 min 0,000 mm 0,0 UV-I 30 W/m 15,4 C 1,6 km/h (1 Bft)
26.07.2016 06:50 16,4 C 16,5 C 93 % 1017,9 hPa 0,0 mm 0,2 km/h (0 Bft) S-SW 198 0 min 0,000 mm 0,0 UV-I 30 W/m 15,3 C 1,6 km/h (1 Bft)
26.07.2016 06:51 16,5 C 16,5 C 93 % 1017,8 hPa 0,0 mm 0,3 km/h (0 Bft) S-SW 198 0 min 0,000 mm 0,0 UV-I 28 W/m 15,4 C 1,6 km/h (1 Bft)
26.07.2016 06:52 16,6 C 16,6 C 93 % 1017,8 hPa 0,0 mm 0,0 km/h (0 Bft) S-SW 198 0 min 0,000 mm 0,0 UV-I 30 W/m 15,5 C 0,0 km/h (0 Bft)
26.07.2016 06:53 16,5 C 16,6 C 93 % 1017,8 hPa 0,0 mm 0,0 km/h (0 Bft) S-SW 198 0 min 0,000 mm 0,0 UV-I 30 W/m 15,4 C 0,0 km/h (0 Bft)
26.07.2016 06:54 16,4 C 16,5 C 93 % 1017,8 hPa 0,0 mm 0,0 km/h (0 Bft) S-SW 198 0 min 0,000 mm 0,0 UV-I 30 W/m 15,3 C 0,0 km/h (0 Bft)
26.07.2016 06:55 16,5 C 16,5 C 93 % 1017,8 hPa 0,0 mm 0,0 km/h (0 Bft) S-SW 198 0 min 0,000 mm 0,0 UV-I 32 W/m 15,4 C 0,0 km/h (0 Bft)
26.07.2016 06:56 16,4 C 16,5 C 94 % 1017,8 hPa 0,0 mm 0,0 km/h (0 Bft) S-SW 198 0 min 0,000 mm 0,0 UV-I 32 W/m 15,4 C 0,0 km/h (0 Bft)
26.07.2016 06:57 16,4 C 16,5 C 94 % 1017,8 hPa 0,0 mm 0,0 km/h (0 Bft) S-SW 198 0 min 0,000 mm 0,0 UV-I 33 W/m 15,4 C 0,0 km/h (0 Bft)
26.07.2016 06:58 16,4 C 16,4 C 93 % 1017,8 hPa 0,0 mm 0,3 km/h (0 Bft) S-SW 198 0 min 0,000 mm 0,0 UV-I 35 W/m 15,3 C 1,6 km/h (1 Bft)
26.07.2016 06:59 16,4 C 16,4 C 93 % 1017,8 hPa 0,0 mm 0,0 km/h (0 Bft) S-SW 198 0 min 0,000 mm 0,0 UV-I 35 W/m 15,3 C 0,0 km/h (0 Bft)
26.07.2016 07:00 16,4 C 16,4 C 93 % 1017,8 hPa 0,0 mm 0,0 km/h (0 Bft) S-SW 198 0 min 0,000 mm 0,0 UV-I 35 W/m 15,3 C 0,0 km/h (0 Bft)
26.07.2016 07:01 16,4 C 16,4 C 94 % 1017,8 hPa 0,0 mm 0,0 km/h (0 Bft) S-SW 198 0 min 0,000 mm 0,0 UV-I 37 W/m 15,4 C 0,0 km/h (0 Bft)
26.07.2016 07:02 16,4 C 16,4 C 93 % 1017,8 hPa 0,0 mm 0,0 km/h (0 Bft) S-SW 198 0 min 0,000 mm 0,0 UV-I 37 W/m 15,3 C 0,0 km/h (0 Bft)
26.07.2016 07:03 16,5 C 16,5 C 93 % 1017,8 hPa 0,0 mm 0,0 km/h (0 Bft) S-SW 198 0 min 0,000 mm 0,0 UV-I 39 W/m 15,4 C 0,0 km/h (0 Bft)
26.07.2016 07:04 16,4 C 16,5 C 94 % 1017,8 hPa 0,0 mm 0,0 km/h (0 Bft) S-SW 198 0 min 0,000 mm 0,0 UV-I 39 W/m 15,4 C 0,0 km/h (0 Bft)
26.07.2016 07:05 16,5 C 16,5 C 94 % 1017,8 hPa 0,0 mm 0,0 km/h (0 Bft) S-SW 198 0 min 0,000 mm 0,0 UV-I 40 W/m 15,5 C 0,0 km/h (0 Bft)
26.07.2016 07:06 16,4 C 16,5 C 94 % 1017,9 hPa 0,0 mm 0,0 km/h (0 Bft) S-SW 198 0 min 0,000 mm 0,0 UV-I 40 W/m 15,4 C 0,0 km/h (0 Bft)
26.07.2016 07:07 16,4 C 16,5 C 93 % 1017,8 hPa 0,0 mm 0,0 km/h (0 Bft) S-SW 198 0 min 0,000 mm 0,0 UV-I 40 W/m 15,3 C 0,0 km/h (0 Bft)
26.07.2016 07:08 16,5 C 16,5 C 93 % 1017,9 hPa 0,0 mm 0,0 km/h (0 Bft) S-SW 198 0 min 0,000 mm 0,0 UV-I 42 W/m 15,4 C 0,0 km/h (0 Bft)
26.07.2016 07:09 16,5 C 16,6 C 93 % 1017,9 hPa 0,0 mm 0,2 km/h (0 Bft) S-SW 198 0 min 0,000 mm 0,0 UV-I 44 W/m 15,4 C 1,6 km/h (1 Bft)
26.07.2016 07:10 16,6 C 16,6 C 93 % 1017,9 hPa 0,0 mm 0,0 km/h (0 Bft) S-SW 198 0 min 0,000 mm 0,0 UV-I 44 W/m 15,5 C 0,0 km/h (0 Bft)
26.07.2016 07:11 16,6 C 16,6 C 93 % 1017,9 hPa 0,0 mm 0,1 km/h (0 Bft) S-SW 198 0 min 0,000 mm 0,0 UV-I 44 W/m 15,5 C 1,6 km/h (1 Bft)
26.07.2016 07:12 16,6 C 16,6 C 93 % 1017,9 hPa 0,0 mm 0,0 km/h (0 Bft) S-SW 198 0 min 0,000 mm 0,0 UV-I 46 W/m 15,5 C 0,0 km/h (0 Bft)
26.07.2016 07:13 16,6 C 16,6 C 93 % 1017,9 hPa 0,0 mm 0,2 km/h (0 Bft) S-SW 198 0 min 0,000 mm 0,0 UV-I 46 W/m 15,5 C 1,6 km/h (1 Bft)
26.07.2016 07:14 16,6 C 16,6 C 93 % 1017,9 hPa 0,0 mm 0,0 km/h (0 Bft) S-SW 198 0 min 0,000 mm 0,0 UV-I 46 W/m 15,5 C 0,0 km/h (0 Bft)
26.07.2016 07:15 16,6 C 16,6 C 94 % 1018,0 hPa 0,0 mm 0,0 km/h (0 Bft) S-SW 198 0 min 0,000 mm 0,0 UV-I 46 W/m 15,6 C 0,0 km/h (0 Bft)
26.07.2016 07:16 16,6 C 16,6 C 94 % 1018,0 hPa 0,0 mm 0,0 km/h (0 Bft) S-SW 198 0 min 0,000 mm 0,0 UV-I 46 W/m 15,6 C 0,0 km/h (0 Bft)
26.07.2016 07:17 16,6 C 16,6 C 93 % 1018,0 hPa 0,0 mm 0,0 km/h (0 Bft) S-SW 198 0 min 0,000 mm 0,0 UV-I 46 W/m 15,5 C 0,0 km/h (0 Bft)
26.07.2016 07:18 16,6 C 16,6 C 93 % 1018,0 hPa 0,0 mm 0,1 km/h (0 Bft) S-SW 198 0 min 0,000 mm 0,0 UV-I 46 W/m 15,5 C 1,6 km/h (1 Bft)
26.07.2016 07:19 16,7 C 16,7 C 94 % 1018,0 hPa 0,0 mm 0,0 km/h (0 Bft) S-SW 198 0 min 0,000 mm 0,0 UV-I 47 W/m 15,7 C 0,0 km/h (0 Bft)
26.07.2016 07:20 16,7 C 16,7 C 94 % 1018,0 hPa 0,0 mm 0,0 km/h (0 Bft) S-SW 198 0 min 0,000 mm 0,0 UV-I 49 W/m 15,7 C 0,0 km/h (0 Bft)
26.07.2016 07:21 16,7 C 16,7 C 94 % 1018,0 hPa 0,0 mm 0,0 km/h (0 Bft) S-SW 198 0 min 0,000 mm 0,0 UV-I 53 W/m 15,7 C 0,0 km/h (0 Bft)
26.07.2016 07:22 16,7 C 16,7 C 94 % 1018,0 hPa 0,0 mm 0,0 km/h (0 Bft) S-SW 198 0 min 0,000 mm 0,0 UV-I 53 W/m 15,7 C 0,0 km/h (0 Bft)
26.07.2016 07:23 16,7 C 16,7 C 94 % 1018,0 hPa 0,0 mm 0,0 km/h (0 Bft) S-SW 198 0 min 0,000 mm 0,0 UV-I 58 W/m 15,7 C 0,0 km/h (0 Bft)
26.07.2016 07:24 16,8 C 16,8 C 94 % 1018,0 hPa 0,0 mm 0,0 km/h (0 Bft) S-SW 198 0 min 0,000 mm 0,0 UV-I 60 W/m 15,8 C 0,0 km/h (0 Bft)
26.07.2016 07:25 16,7 C 16,8 C 93 % 1018,0 hPa 0,0 mm 0,0 km/h (0 Bft) S-SW 198 0 min 0,000 mm 0,0 UV-I 62 W/m 15,6 C 0,0 km/h (0 Bft)
26.07.2016 07:26 16,8 C 16,8 C 93 % 1018,0 hPa 0,0 mm 0,0 km/h (0 Bft) S-SW 198 0 min 0,000 mm 0,0 UV-I 63 W/m 15,7 C 0,0 km/h (0 Bft)
26.07.2016 07:27 16,8 C 16,8 C 93 % 1017,9 hPa 0,0 mm 0,0 km/h (0 Bft) S-SW 198 0 min 0,000 mm 0,0 UV-I 69 W/m 15,7 C 0,0 km/h (0 Bft)
26.07.2016 07:28 16,8 C 16,8 C 93 % 1018,0 hPa 0,0 mm 0,0 km/h (0 Bft) S-SW 198 0 min 0,000 mm 0,0 UV-I 70 W/m 15,7 C 0,0 km/h (0 Bft)
26.07.2016 07:29 16,8 C 16,8 C 93 % 1018,0 hPa 0,0 mm 0,0 km/h (0 Bft) S-SW 198 0 min 0,000 mm 0,0 UV-I 72 W/m 15,7 C 0,0 km/h (0 Bft)
26.07.2016 07:30 16,8 C 16,8 C 93 % 1018,0 hPa 0,0 mm 0,0 km/h (0 Bft) S-SW 198 0 min 0,000 mm 0,5 UV-I 76 W/m 15,7 C 0,0 km/h (0 Bft)
26.07.2016 07:31 16,8 C 16,8 C 93 % 1018,0 hPa 0,0 mm 0,2 km/h (0 Bft) S-SW 198 0 min 0,000 mm 0,5 UV-I 77 W/m 15,7 C 1,6 km/h (1 Bft)
26.07.2016 07:32 16,8 C 16,8 C 93 % 1018,0 hPa 0,0 mm 0,7 km/h (0 Bft) S-SW 198 0 min 0,000 mm 0,5 UV-I 79 W/m 15,7 C 1,6 km/h (1 Bft)
26.07.2016 07:33 16,8 C 16,8 C 93 % 1018,0 hPa 0,0 mm 0,4 km/h (0 Bft) S-SW 198 0 min 0,000 mm 0,5 UV-I 79 W/m 15,7 C 1,6 km/h (1 Bft)
26.07.2016 07:34 16,8 C 16,8 C 93 % 1018,0 hPa 0,0 mm 0,8 km/h (0 Bft) S-SW 198 0 min 0,000 mm 0,5 UV-I 79 W/m 15,7 C 1,6 km/h (1 Bft)
26.07.2016 07:35 16,9 C 16,9 C 94 % 1018,1 hPa 0,0 mm 1,0 km/h (0 Bft) S-SW 198 0 min 0,000 mm 0,5 UV-I 79 W/m 15,9 C 1,6 km/h (1 Bft)
26.07.2016 07:36 16,9 C 16,9 C 94 % 1018,1 hPa 0,0 mm 1,2 km/h (1 Bft) S-SW 198 0 min 0,000 mm 0,5 UV-I 79 W/m 15,9 C 1,6 km/h (1 Bft)
26.07.2016 07:37 16,9 C 16,9 C 93 % 1018,1 hPa 0,0 mm 1,7 km/h (1 Bft) S-SW 198 0 min 0,000 mm 0,5 UV-I 79 W/m 15,8 C 3,2 km/h (1 Bft)
26.07.2016 07:38 16,9 C 16,9 C 93 % 1018,1 hPa 0,0 mm 2,0 km/h (1 Bft) S-SW 210 0 min 0,000 mm 0,5 UV-I 79 W/m 15,8 C 3,2 km/h (1 Bft)
26.07.2016 07:39 16,9 C 16,9 C 93 % 1018,1 hPa 0,0 mm 1,4 km/h (1 Bft) S-SW 212 0 min 0,000 mm 0,5 UV-I 81 W/m 15,8 C 3,2 km/h (1 Bft)
26.07.2016 07:40 16,9 C 16,9 C 93 % 1018,1 hPa 0,0 mm 1,4 km/h (1 Bft) SW 217 0 min 0,000 mm 0,5 UV-I 83 W/m 15,8 C 1,6 km/h (1 Bft)
26.07.2016 07:41 16,9 C 16,9 C 93 % 1018,1 hPa 0,0 mm 0,8 km/h (0 Bft) SW 217 0 min 0,000 mm 0,6 UV-I 86 W/m 15,8 C 1,6 km/h (1 Bft)
26.07.2016 07:42 17,0 C 17,0 C 93 % 1018,2 hPa 0,0 mm 0,3 km/h (0 Bft) SW 217 0 min 0,000 mm 0,6 UV-I 88 W/m 15,9 C 1,6 km/h (1 Bft)
26.07.2016 07:43 17,0 C 17,0 C 93 % 1018,1 hPa 0,0 mm 0,1 km/h (0 Bft) SW 217 0 min 0,000 mm 0,6 UV-I 91 W/m 15,9 C 1,6 km/h (1 Bft)
26.07.2016 07:44 17,0 C 17,0 C 93 % 1018,1 hPa 0,0 mm 0,0 km/h (0 Bft) SW 217 0 min 0,000 mm 0,6 UV-I 95 W/m 15,9 C 0,0 km/h (0 Bft)
26.07.2016 07:45 17,0 C 17,1 C 92 % 1018,1 hPa 0,0 mm 0,0 km/h (0 Bft) SW 217 0 min 0,000 mm 0,6 UV-I 97 W/m 15,7 C 0,0 km/h (0 Bft)
26.07.2016 07:46 17,0 C 17,0 C 92 % 1018,1 hPa 0,0 mm 0,0 km/h (0 Bft) SW 217 0 min 0,000 mm 0,6 UV-I 97 W/m 15,7 C 0,0 km/h (0 Bft)
26.07.2016 07:47 17,0 C 17,1 C 93 % 1018,1 hPa 0,0 mm 0,0 km/h (0 Bft) SW 217 0 min 0,000 mm 0,7 UV-I 97 W/m 15,9 C 0,0 km/h (0 Bft)
26.07.2016 07:48 17,1 C 17,1 C 92 % 1018,0 hPa 0,0 mm 0,0 km/h (0 Bft) SW 217 0 min 0,000 mm 0,7 UV-I 97 W/m 15,8 C 0,0 km/h (0 Bft)
26.07.2016 07:49 17,1 C 17,1 C 92 % 1018,1 hPa 0,0 mm 0,0 km/h (0 Bft) SW 217 0 min 0,000 mm 0,7 UV-I 98 W/m 15,8 C 0,0 km/h (0 Bft)
26.07.2016 07:50 17,1 C 17,1 C 92 % 1018,1 hPa 0,0 mm 0,0 km/h (0 Bft) SW 217 0 min 0,000 mm 0,7 UV-I 102 W/m 15,8 C 0,0 km/h (0 Bft)
26.07.2016 07:51 17,1 C 17,1 C 93 % 1018,1 hPa 0,0 mm 0,0 km/h (0 Bft) SW 217 0 min 0,000 mm 0,7 UV-I 105 W/m 16,0 C 0,0 km/h (0 Bft)
26.07.2016 07:52 17,2 C 17,2 C 92 % 1018,1 hPa 0,0 mm 0,1 km/h (0 Bft) SW 217 0 min 0,000 mm 0,7 UV-I 107 W/m 15,9 C 1,6 km/h (1 Bft)
26.07.2016 07:53 17,2 C 17,2 C 93 % 1018,1 hPa 0,0 mm 0,1 km/h (0 Bft) SW 217 0 min 0,000 mm 0,7 UV-I 109 W/m 16,1 C 1,6 km/h (1 Bft)
26.07.2016 07:54 17,2 C 17,2 C 93 % 1018,1 hPa 0,0 mm 0,0 km/h (0 Bft) SW 217 0 min 0,000 mm 0,7 UV-I 111 W/m 16,1 C 0,0 km/h (0 Bft)
26.07.2016 07:55 17,2 C 17,2 C 93 % 1018,1 hPa 0,0 mm 0,0 km/h (0 Bft) SW 217 0 min 0,000 mm 0,7 UV-I 113 W/m 16,1 C 0,0 km/h (0 Bft)
26.07.2016 07:56 17,3 C 17,3 C 94 % 1018,1 hPa 0,0 mm 0,0 km/h (0 Bft) SW 217 0 min 0,000 mm 0,8 UV-I 114 W/m 16,3 C 0,0 km/h (0 Bft)
26.07.2016 07:57 17,3 C 17,3 C 93 % 1018,1 hPa 0,0 mm 0,2 km/h (0 Bft) SW 217 0 min 0,000 mm 0,8 UV-I 116 W/m 16,2 C 1,6 km/h (1 Bft)
26.07.2016 07:58 17,3 C 17,3 C 91 % 1018,0 hPa 0,0 mm 1,5 km/h (1 Bft) SW 217 0 min 0,000 mm 0,8 UV-I 116 W/m 15,8 C 3,2 km/h (1 Bft)
26.07.2016 07:59 17,4 C 17,5 C 91 % 1018,0 hPa 0,0 mm 1,8 km/h (1 Bft) S-SW 213 0 min 0,000 mm 0,8 UV-I 114 W/m 15,9 C 3,2 km/h (1 Bft)
26.07.2016 08:00 17,6 C 17,6 C 90 % 1018,0 hPa 0,0 mm 1,5 km/h (1 Bft) S-SW 213 0 min 0,051 mm 0,8 UV-I 114 W/m 15,9 C 3,2 km/h (1 Bft)
26.07.2016 08:01 17,6 C 17,7 C 90 % 1018,0 hPa 0,0 mm 0,7 km/h (0 Bft) S-SW 213 0 min 0,000 mm 0,8 UV-I 113 W/m 15,9 C 1,6 km/h (1 Bft)
26.07.2016 08:02 17,7 C 17,7 C 90 % 1018,0 hPa 0,0 mm 1,0 km/h (0 Bft) S-SW 210 0 min 0,000 mm 0,8 UV-I 109 W/m 16,0 C 3,2 km/h (1 Bft)
26.07.2016 08:03 17,8 C 17,8 C 90 % 1018,1 hPa 0,0 mm 0,1 km/h (0 Bft) S-SW 210 0 min 0,000 mm 0,7 UV-I 107 W/m 16,1 C 1,6 km/h (1 Bft)
26.07.2016 08:04 17,8 C 17,8 C 91 % 1018,0 hPa 0,0 mm 0,0 km/h (0 Bft) S-SW 210 0 min 0,000 mm 0,7 UV-I 105 W/m 16,3 C 0,0 km/h (0 Bft)
26.07.2016 08:05 17,8 C 17,8 C 91 % 1018,0 hPa 0,0 mm 0,0 km/h (0 Bft) S-SW 210 0 min 0,000 mm 0,7 UV-I 105 W/m 16,3 C 0,0 km/h (0 Bft)
26.07.2016 08:06 17,8 C 17,8 C 90 % 1018,1 hPa 0,0 mm 0,0 km/h (0 Bft) S-SW 210 0 min 0,000 mm 0,7 UV-I 105 W/m 16,1 C 0,0 km/h (0 Bft)
26.07.2016 08:07 17,7 C 17,8 C 91 % 1018,1 hPa 0,0 mm 0,0 km/h (0 Bft) S-SW 210 0 min 0,000 mm 0,7 UV-I 109 W/m 16,2 C 0,0 km/h (0 Bft)
26.07.2016 08:08 17,7 C 17,7 C 91 % 1018,1 hPa 0,0 mm 0,0 km/h (0 Bft) S-SW 210 0 min 0,000 mm 0,7 UV-I 111 W/m 16,2 C 0,0 km/h (0 Bft)
26.07.2016 08:09 17,7 C 17,7 C 91 % 1018,1 hPa 0,0 mm 0,0 km/h (0 Bft) S-SW 210 0 min 0,000 mm 0,8 UV-I 114 W/m 16,2 C 0,0 km/h (0 Bft)
26.07.2016 08:10 17,7 C 17,7 C 91 % 1018,1 hPa 0,0 mm 0,0 km/h (0 Bft) S-SW 210 0 min 0,000 mm 0,8 UV-I 118 W/m 16,2 C 0,0 km/h (0 Bft)
26.07.2016 08:11 17,7 C 17,7 C 91 % 1018,2 hPa 0,0 mm 0,0 km/h (0 Bft) S-SW 210 0 min 0,000 mm 0,8 UV-I 121 W/m 16,2 C 0,0 km/h (0 Bft)
26.07.2016 08:12 17,8 C 17,8 C 91 % 1018,1 hPa 0,0 mm 0,0 km/h (0 Bft) S-SW 210 0 min 0,000 mm 0,8 UV-I 125 W/m 16,3 C 0,0 km/h (0 Bft)
26.07.2016 08:13 17,8 C 17,8 C 91 % 1018,1 hPa 0,0 mm 0,0 km/h (0 Bft) S-SW 210 0 min 0,000 mm 0,9 UV-I 137 W/m 16,3 C 0,0 km/h (0 Bft)
26.07.2016 08:14 17,8 C 17,8 C 91 % 1018,0 hPa 0,0 mm 0,0 km/h (0 Bft) S-SW 210 0 min 0,000 mm 0,9 UV-I 144 W/m 16,3 C 0,0 km/h (0 Bft)
26.07.2016 08:15 17,8 C 17,8 C 91 % 1018,1 hPa 0,0 mm 0,0 km/h (0 Bft) S-SW 210 0 min 0,000 mm 1,0 UV-I 149 W/m 16,3 C 0,0 km/h (0 Bft)
26.07.2016 08:16 17,8 C 17,8 C 90 % 1018,1 hPa 0,0 mm 0,0 km/h (0 Bft) S-SW 210 0 min 0,000 mm 1,0 UV-I 155 W/m 16,1 C 0,0 km/h (0 Bft)
26.07.2016 08:17 17,9 C 17,9 C 91 % 1018,1 hPa 0,0 mm 0,0 km/h (0 Bft) S-SW 210 0 min 0,000 mm 1,0 UV-I 158 W/m 16,4 C 0,0 km/h (0 Bft)
26.07.2016 08:18 17,9 C 17,9 C 92 % 1018,2 hPa 0,0 mm 0,0 km/h (0 Bft) S-SW 210 0 min 0,000 mm 1,0 UV-I 162 W/m 16,6 C 0,0 km/h (0 Bft)
26.07.2016 08:19 18,0 C 18,0 C 90 % 1018,1 hPa 0,0 mm 0,0 km/h (0 Bft) S-SW 210 0 min 0,000 mm 1,0 UV-I 165 W/m 16,3 C 0,0 km/h (0 Bft)
26.07.2016 08:20 18,1 C 18,1 C 89 % 1018,1 hPa 0,0 mm 0,0 km/h (0 Bft) S-SW 210 0 min 0,000 mm 1,0 UV-I 162 W/m 16,3 C 0,0 km/h (0 Bft)
26.07.2016 08:21 18,2 C 18,2 C 89 % 1018,1 hPa 0,0 mm 0,0 km/h (0 Bft) SW 229 0 min 0,000 mm 1,0 UV-I 160 W/m 16,4 C 0,0 km/h (0 Bft)
26.07.2016 08:22 18,3 C 18,3 C 88 % 1018,2 hPa 0,0 mm 1,8 km/h (1 Bft) W-SW 253 0 min 0,000 mm 1,0 UV-I 156 W/m 16,3 C 3,2 km/h (1 Bft)
26.07.2016 08:23 18,3 C 18,3 C 89 % 1018,2 hPa 0,0 mm 0,7 km/h (0 Bft) W-SW 253 0 min 0,000 mm 1,0 UV-I 153 W/m 16,5 C 1,6 km/h (1 Bft)
26.07.2016 08:24 18,4 C 18,4 C 88 % 1018,1 hPa 0,0 mm 0,5 km/h (0 Bft) W-SW 253 0 min 0,000 mm 1,0 UV-I 151 W/m 16,4 C 1,6 km/h (1 Bft)
26.07.2016 08:25 18,5 C 18,5 C 89 % 1018,1 hPa 0,0 mm 0,9 km/h (0 Bft) W-SW 253 0 min 0,000 mm 1,0 UV-I 155 W/m 16,7 C 1,6 km/h (1 Bft)
26.07.2016 08:26 18,5 C 18,5 C 88 % 1018,2 hPa 0,0 mm 1,7 km/h (1 Bft) W 259 0 min 0,000 mm 1,1 UV-I 158 W/m 16,5 C 3,2 km/h (1 Bft)
26.07.2016 08:27 18,6 C 18,6 C 89 % 1018,2 hPa 0,0 mm 2,1 km/h (1 Bft) W 259 0 min 0,000 mm 1,1 UV-I 163 W/m 16,7 C 3,2 km/h (1 Bft)
26.07.2016 08:28 18,6 C 18,6 C 88 % 1018,2 hPa 0,0 mm 1,5 km/h (1 Bft) W 259 0 min 0,000 mm 1,1 UV-I 171 W/m 16,6 C 1,6 km/h (1 Bft)
26.07.2016 08:29 18,6 C 18,6 C 88 % 1018,1 hPa 0,0 mm 0,7 km/h (0 Bft) W 259 0 min 0,000 mm 1,2 UV-I 176 W/m 16,6 C 1,6 km/h (1 Bft)
26.07.2016 08:30 18,6 C 18,6 C 89 % 1018,1 hPa 0,0 mm 0,2 km/h (0 Bft) W 259 0 min 0,000 mm 1,2 UV-I 183 W/m 16,7 C 1,6 km/h (1 Bft)
26.07.2016 08:31 18,7 C 18,7 C 87 % 1018,2 hPa 0,0 mm 0,7 km/h (0 Bft) S-SW 200 0 min 0,000 mm 1,2 UV-I 193 W/m 16,5 C 3,2 km/h (1 Bft)
26.07.2016 08:32 18,7 C 18,7 C 86 % 1018,2 hPa 0,0 mm 3,8 km/h (1 Bft) S 178 0 min 0,000 mm 1,3 UV-I 197 W/m 16,3 C 4,8 km/h (1 Bft)
26.07.2016 08:33 18,7 C 18,7 C 86 % 1018,2 hPa 0,0 mm 2,4 km/h (1 Bft) S 180 0 min 0,000 mm 1,3 UV-I 197 W/m 16,3 C 4,8 km/h (1 Bft)
26.07.2016 08:34 18,7 C 18,7 C 85 % 1018,2 hPa 0,0 mm 1,6 km/h (1 Bft) S 186 0 min 0,000 mm 1,3 UV-I 199 W/m 16,1 C 3,2 km/h (1 Bft)
26.07.2016 08:35 18,7 C 18,7 C 85 % 1018,1 hPa 0,0 mm 1,7 km/h (1 Bft) S 188 0 min 0,000 mm 1,3 UV-I 199 W/m 16,1 C 3,2 km/h (1 Bft)
26.07.2016 08:36 18,7 C 18,7 C 86 % 1018,1 hPa 0,0 mm 2,3 km/h (1 Bft) S-SW 198 0 min 0,000 mm 1,3 UV-I 200 W/m 16,3 C 4,8 km/h (1 Bft)
26.07.2016 08:37 18,7 C 18,7 C 86 % 1018,1 hPa 0,0 mm 1,2 km/h (1 Bft) S-SW 198 0 min 0,000 mm 1,3 UV-I 202 W/m 16,3 C 3,2 km/h (1 Bft)
26.07.2016 08:38 18,7 C 18,7 C 85 % 1018,1 hPa 0,0 mm 0,9 km/h (0 Bft) S-SW 198 0 min 0,000 mm 1,3 UV-I 204 W/m 16,1 C 3,2 km/h (1 Bft)
26.07.2016 08:39 18,8 C 18,8 C 84 % 1018,1 hPa 0,0 mm 2,5 km/h (1 Bft) S 178 0 min 0,000 mm 1,3 UV-I 204 W/m 16,0 C 3,2 km/h (1 Bft)
26.07.2016 08:40 18,8 C 18,8 C 85 % 1018,1 hPa 0,0 mm 1,7 km/h (1 Bft) SW 219 0 min 0,000 mm 1,4 UV-I 204 W/m 16,2 C 3,2 km/h (1 Bft)
26.07.2016 08:41 18,8 C 18,8 C 84 % 1018,0 hPa 0,0 mm 3,0 km/h (1 Bft) S 171 0 min 0,000 mm 1,4 UV-I 206 W/m 16,0 C 6,4 km/h (2 Bft)
26.07.2016 08:42 18,9 C 18,9 C 86 % 1018,0 hPa 0,0 mm 1,3 km/h (1 Bft) S 172 0 min 0,000 mm 1,4 UV-I 206 W/m 16,5 C 3,2 km/h (1 Bft)
26.07.2016 08:43 18,8 C 18,9 C 86 % 1018,0 hPa 0,0 mm 1,5 km/h (1 Bft) S 173 0 min 0,000 mm 1,4 UV-I 207 W/m 16,4 C 3,2 km/h (1 Bft)
26.07.2016 08:44 18,8 C 18,9 C 85 % 1018,1 hPa 0,0 mm 1,8 km/h (1 Bft) S-SW 200 0 min 0,000 mm 1,4 UV-I 207 W/m 16,2 C 3,2 km/h (1 Bft)
26.07.2016 08:45 18,9 C 18,9 C 85 % 1018,0 hPa 0,0 mm 1,0 km/h (0 Bft) S-SW 199 0 min 0,000 mm 1,4 UV-I 204 W/m 16,3 C 3,2 km/h (1 Bft)
26.07.2016 08:46 18,9 C 18,9 C 84 % 1018,1 hPa 0,0 mm 0,5 km/h (0 Bft) S-SW 199 0 min 0,000 mm 1,4 UV-I 204 W/m 16,1 C 1,6 km/h (1 Bft)
26.07.2016 08:47 18,9 C 18,9 C 84 % 1018,0 hPa 0,0 mm 1,1 km/h (1 Bft) S-SW 199 0 min 0,000 mm 1,4 UV-I 202 W/m 16,1 C 1,6 km/h (1 Bft)
26.07.2016 08:48 18,9 C 18,9 C 84 % 1018,0 hPa 0,0 mm 0,4 km/h (0 Bft) S-SW 199 0 min 0,000 mm 1,4 UV-I 200 W/m 16,1 C 1,6 km/h (1 Bft)
26.07.2016 08:49 19,0 C 19,0 C 85 % 1018,0 hPa 0,0 mm 0,4 km/h (0 Bft) S-SW 199 0 min 0,000 mm 1,4 UV-I 200 W/m 16,4 C 1,6 km/h (1 Bft)
26.07.2016 08:50 19,0 C 19,0 C 86 % 1018,0 hPa 0,0 mm 0,1 km/h (0 Bft) S-SW 199 0 min 0,000 mm 1,5 UV-I 202 W/m 16,6 C 1,6 km/h (1 Bft)
26.07.2016 08:51 19,1 C 19,1 C 87 % 1018,0 hPa 0,0 mm 0,1 km/h (0 Bft) S-SW 199 0 min 0,000 mm 1,5 UV-I 204 W/m 16,9 C 1,6 km/h (1 Bft)
26.07.2016 08:52 19,1 C 19,1 C 84 % 1018,0 hPa 0,0 mm 1,0 km/h (0 Bft) S-SW 199 0 min 0,000 mm 1,5 UV-I 207 W/m 16,3 C 1,6 km/h (1 Bft)
26.07.2016 08:53 19,1 C 19,1 C 85 % 1018,0 hPa 0,0 mm 1,4 km/h (1 Bft) S-SW 199 0 min 0,000 mm 1,5 UV-I 213 W/m 16,5 C 3,2 km/h (1 Bft)
26.07.2016 08:54 19,1 C 19,1 C 83 % 1018,0 hPa 0,0 mm 2,9 km/h (1 Bft) S 186 0 min 0,000 mm 1,6 UV-I 223 W/m 16,1 C 4,8 km/h (1 Bft)
26.07.2016 08:55 19,1 C 19,1 C 84 % 1018,0 hPa 0,0 mm 1,3 km/h (1 Bft) S 186 0 min 0,000 mm 1,6 UV-I 237 W/m 16,3 C 1,6 km/h (1 Bft)
26.07.2016 08:56 19,1 C 19,1 C 84 % 1018,0 hPa 0,0 mm 0,9 km/h (0 Bft) S 186 0 min 0,000 mm 1,7 UV-I 260 W/m 16,3 C 1,6 km/h (1 Bft)
26.07.2016 08:57 19,1 C 19,1 C 83 % 1018,0 hPa 0,0 mm 1,0 km/h (0 Bft) S 186 0 min 0,000 mm 1,7 UV-I 236 W/m 16,1 C 1,6 km/h (1 Bft)
26.07.2016 08:58 19,2 C 19,2 C 85 % 1018,0 hPa 0,0 mm 0,8 km/h (0 Bft) S-SW 192 0 min 0,000 mm 1,7 UV-I 237 W/m 16,6 C 1,6 km/h (1 Bft)
26.07.2016 08:59 19,2 C 19,3 C 84 % 1018,0 hPa 0,0 mm 2,6 km/h (1 Bft) W-SW 248 0 min 0,000 mm 1,7 UV-I 241 W/m 16,4 C 3,2 km/h (1 Bft)
26.07.2016 09:00 19,3 C 19,3 C 84 % 1018,0 hPa 0,0 mm 1,4 km/h (1 Bft) S-SW 209 0 min 0,000 mm 1,7 UV-I 244 W/m 16,5 C 3,2 km/h (1 Bft)
26.07.2016 09:01 19,3 C 19,3 C 87 % 1018,0 hPa 0,0 mm 0,7 km/h (0 Bft) S-SW 207 0 min 0,101 mm 1,8 UV-I 244 W/m 17,1 C 1,6 km/h (1 Bft)
26.07.2016 09:02 19,3 C 19,4 C 84 % 1018,0 hPa 0,0 mm 0,3 km/h (0 Bft) S-SW 207 0 min 0,000 mm 1,8 UV-I 250 W/m 16,5 C 1,6 km/h (1 Bft)
26.07.2016 09:03 19,3 C 19,4 C 83 % 1018,0 hPa 0,0 mm 0,9 km/h (0 Bft) W 259 0 min 0,000 mm 1,8 UV-I 251 W/m 16,3 C 1,6 km/h (1 Bft)
26.07.2016 09:04 19,4 C 19,4 C 86 % 1018,0 hPa 0,0 mm 0,9 km/h (0 Bft) W 261 0 min 0,000 mm 1,8 UV-I 250 W/m 17,0 C 3,2 km/h (1 Bft)
26.07.2016 09:05 19,4 C 19,4 C 83 % 1018,0 hPa 0,0 mm 0,2 km/h (0 Bft) W 261 0 min 0,000 mm 1,8 UV-I 250 W/m 16,4 C 1,6 km/h (1 Bft)
26.07.2016 09:06 19,4 C 19,4 C 85 % 1018,0 hPa 0,0 mm 1,3 km/h (1 Bft) W 261 0 min 0,000 mm 1,8 UV-I 248 W/m 16,8 C 3,2 km/h (1 Bft)
26.07.2016 09:07 19,5 C 19,5 C 85 % 1018,0 hPa 0,0 mm 2,7 km/h (1 Bft) W-SW 258 0 min 0,000 mm 1,8 UV-I 243 W/m 16,9 C 3,2 km/h (1 Bft)
26.07.2016 09:08 19,5 C 19,6 C 85 % 1018,0 hPa 0,0 mm 3,0 km/h (1 Bft) W-SW 258 0 min 0,000 mm 1,8 UV-I 239 W/m 16,9 C 3,2 km/h (1 Bft)
26.07.2016 09:09 19,6 C 19,6 C 82 % 1018,1 hPa 0,0 mm 1,2 km/h (1 Bft) W-SW 258 0 min 0,000 mm 1,8 UV-I 236 W/m 16,4 C 1,6 km/h (1 Bft)
26.07.2016 09:10 19,5 C 19,6 C 83 % 1018,1 hPa 0,0 mm 1,4 km/h (1 Bft) W-SW 258 0 min 0,000 mm 1,8 UV-I 234 W/m 16,5 C 1,6 km/h (1 Bft)
26.07.2016 09:11 19,6 C 19,6 C 86 % 1018,1 hPa 0,0 mm 2,3 km/h (1 Bft) W-SW 258 0 min 0,000 mm 1,8 UV-I 236 W/m 17,2 C 3,2 km/h (1 Bft)
26.07.2016 09:12 19,6 C 19,6 C 84 % 1018,1 hPa 0,0 mm 0,5 km/h (0 Bft) W-SW 258 0 min 0,000 mm 1,9 UV-I 243 W/m 16,8 C 1,6 km/h (1 Bft)
26.07.2016 09:13 19,6 C 19,6 C 83 % 1018,0 hPa 0,0 mm 1,5 km/h (1 Bft) W-SW 258 0 min 0,000 mm 1,9 UV-I 250 W/m 16,6 C 3,2 km/h (1 Bft)
26.07.2016 09:14 19,6 C 19,6 C 82 % 1018,0 hPa 0,0 mm 0,0 km/h (0 Bft) W-SW 258 0 min 0,000 mm 2,0 UV-I 258 W/m 16,4 C 0,0 km/h (0 Bft)
26.07.2016 09:15 19,6 C 19,6 C 81 % 1018,0 hPa 0,0 mm 0,0 km/h (0 Bft) S-SW 193 0 min 0,000 mm 2,0 UV-I 272 W/m 16,2 C 0,0 km/h (0 Bft)
26.07.2016 09:16 19,6 C 19,6 C 83 % 1018,0 hPa 0,0 mm 0,0 km/h (0 Bft) S-SW 209 0 min 0,000 mm 2,0 UV-I 258 W/m 16,6 C 0,0 km/h (0 Bft)
26.07.2016 09:17 19,6 C 19,6 C 83 % 1018,0 hPa 0,0 mm 0,0 km/h (0 Bft) S-SW 209 0 min 0,000 mm 2,0 UV-I 253 W/m 16,6 C 0,0 km/h (0 Bft)
26.07.2016 09:18 19,6 C 19,6 C 83 % 1018,0 hPa 0,0 mm 0,0 km/h (0 Bft) S-SW 209 0 min 0,000 mm 2,0 UV-I 257 W/m 16,6 C 0,0 km/h (0 Bft)
26.07.2016 09:19 19,6 C 19,6 C 84 % 1018,0 hPa 0,0 mm 0,0 km/h (0 Bft) S-SW 210 1 min 0,000 mm 2,3 UV-I 313 W/m 16,8 C 0,0 km/h (0 Bft)
26.07.2016 09:20 19,6 C 19,7 C 82 % 1018,0 hPa 0,0 mm 0,0 km/h (0 Bft) S-SW 210 0 min 0,000 mm 2,1 UV-I 278 W/m 16,4 C 0,0 km/h (0 Bft)
26.07.2016 09:21 19,7 C 19,7 C 84 % 1018,0 hPa 0,0 mm 0,0 km/h (0 Bft) S-SW 210 0 min 0,000 mm 1,6 UV-I 272 W/m 16,9 C 0,0 km/h (0 Bft)
26.07.2016 09:22 19,7 C 19,7 C 83 % 1018,0 hPa 0,0 mm 0,0 km/h (0 Bft) S-SW 210 0 min 0,000 mm 1,5 UV-I 278 W/m 16,7 C 0,0 km/h (0 Bft)
26.07.2016 09:23 19,7 C 19,8 C 83 % 1017,9 hPa 0,0 mm 0,0 km/h (0 Bft) SW 215 0 min 0,000 mm 1,8 UV-I 292 W/m 16,7 C 0,0 km/h (0 Bft)
26.07.2016 09:24 19,7 C 19,7 C 84 % 1018,0 hPa 0,0 mm 0,0 km/h (0 Bft) W-NW 291 1 min 0,000 mm 2,5 UV-I 364 W/m 16,9 C 0,0 km/h (0 Bft)
26.07.2016 09:25 19,8 C 19,8 C 84 % 1017,9 hPa 0,0 mm 0,0 km/h (0 Bft) W-NW 282 1 min 0,000 mm 2,5 UV-I 352 W/m 17,0 C 0,0 km/h (0 Bft)
26.07.2016 09:26 19,8 C 19,8 C 84 % 1017,9 hPa 0,0 mm 0,0 km/h (0 Bft) N-NW 330 0 min 0,000 mm 2,3 UV-I 302 W/m 17,0 C 0,0 km/h (0 Bft)
26.07.2016 09:27 19,8 C 19,8 C 85 % 1017,9 hPa 0,0 mm 3,0 km/h (1 Bft) W-NW 292 0 min 0,000 mm 2,3 UV-I 288 W/m 17,2 C 6,4 km/h (2 Bft)
26.07.2016 09:28 19,8 C 19,9 C 82 % 1017,9 hPa 0,0 mm 3,1 km/h (1 Bft) W-NW 302 0 min 0,000 mm 2,3 UV-I 283 W/m 16,6 C 4,8 km/h (1 Bft)
26.07.2016 09:29 19,8 C 19,8 C 82 % 1017,9 hPa 0,0 mm 2,3 km/h (1 Bft) W-NW 303 0 min 0,000 mm 2,3 UV-I 281 W/m 16,6 C 3,2 km/h (1 Bft)
26.07.2016 09:30 19,8 C 19,8 C 81 % 1017,9 hPa 0,0 mm 1,3 km/h (1 Bft) W-NW 303 0 min 0,000 mm 2,3 UV-I 287 W/m 16,4 C 3,2 km/h (1 Bft)
26.07.2016 09:31 19,8 C 19,8 C 81 % 1017,9 hPa 0,0 mm 0,9 km/h (0 Bft) N 355 0 min 0,000 mm 2,4 UV-I 290 W/m 16,4 C 1,6 km/h (1 Bft)
26.07.2016 09:32 19,8 C 19,8 C 82 % 1017,9 hPa 0,0 mm 1,8 km/h (1 Bft) N 355 0 min 0,000 mm 2,5 UV-I 302 W/m 16,6 C 3,2 km/h (1 Bft)
26.07.2016 09:33 19,9 C 19,9 C 84 % 1017,9 hPa 0,0 mm 1,4 km/h (1 Bft) NW 322 0 min 0,000 mm 2,8 UV-I 302 W/m 17,1 C 3,2 km/h (1 Bft)
26.07.2016 09:34 19,9 C 19,9 C 81 % 1017,8 hPa 0,0 mm 0,3 km/h (0 Bft) NW 322 0 min 0,000 mm 2,5 UV-I 302 W/m 16,5 C 1,6 km/h (1 Bft)
26.07.2016 09:35 19,9 C 19,9 C 84 % 1017,8 hPa 0,0 mm 1,9 km/h (1 Bft) NW 321 0 min 0,000 mm 2,5 UV-I 299 W/m 17,1 C 3,2 km/h (1 Bft)
26.07.2016 09:36 19,9 C 19,9 C 82 % 1017,8 hPa 0,0 mm 2,5 km/h (1 Bft) NW 319 0 min 0,000 mm 2,5 UV-I 301 W/m 16,7 C 3,2 km/h (1 Bft)
26.07.2016 09:37 19,9 C 19,9 C 81 % 1017,9 hPa 0,0 mm 0,9 km/h (0 Bft) NW 319 0 min 0,000 mm 2,5 UV-I 304 W/m 16,5 C 1,6 km/h (1 Bft)
26.07.2016 09:38 19,8 C 19,9 C 81 % 1017,7 hPa 0,0 mm 0,0 km/h (0 Bft) NW 319 0 min 0,000 mm 2,5 UV-I 287 W/m 16,4 C 0,0 km/h (0 Bft)
26.07.2016 09:39 19,8 C 19,8 C 81 % 1017,8 hPa 0,0 mm 1,2 km/h (1 Bft) N-NW 333 0 min 0,000 mm 2,5 UV-I 287 W/m 16,4 C 3,2 km/h (1 Bft)
26.07.2016 09:40 19,8 C 19,8 C 81 % 1017,8 hPa 0,0 mm 1,3 km/h (1 Bft) N-NO 26 0 min 0,000 mm 2,6 UV-I 302 W/m 16,4 C 3,2 km/h (1 Bft)
26.07.2016 09:41 19,8 C 19,8 C 82 % 1017,8 hPa 0,0 mm 0,8 km/h (0 Bft) N-NO 26 0 min 0,000 mm 2,5 UV-I 301 W/m 16,6 C 3,2 km/h (1 Bft)
26.07.2016 09:42 19,8 C 19,8 C 82 % 1017,8 hPa 0,0 mm 1,5 km/h (1 Bft) N-NO 18 0 min 0,000 mm 2,5 UV-I 290 W/m 16,6 C 3,2 km/h (1 Bft)
26.07.2016 09:43 19,8 C 19,8 C 83 % 1017,8 hPa 0,0 mm 1,5 km/h (1 Bft) N-NO 18 0 min 0,000 mm 2,5 UV-I 292 W/m 16,8 C 3,2 km/h (1 Bft)
26.07.2016 09:44 19,9 C 19,9 C 83 % 1017,8 hPa 0,0 mm 2,2 km/h (1 Bft) NW 304 0 min 0,000 mm 2,5 UV-I 292 W/m 16,9 C 4,8 km/h (1 Bft)
26.07.2016 09:45 20,0 C 20,0 C 83 % 1017,8 hPa 0,0 mm 4,3 km/h (1 Bft) N-NW 340 0 min 0,000 mm 2,5 UV-I 299 W/m 17,0 C 6,4 km/h (2 Bft)
26.07.2016 09:46 20,1 C 20,1 C 83 % 1017,8 hPa 0,0 mm 3,8 km/h (1 Bft) N 355 0 min 0,000 mm 2,6 UV-I 299 W/m 17,1 C 4,8 km/h (1 Bft)
26.07.2016 09:47 20,1 C 20,2 C 80 % 1017,8 hPa 0,0 mm 5,1 km/h (1 Bft) N 360 0 min 0,000 mm 2,6 UV-I 306 W/m 16,5 C 8,0 km/h (2 Bft)
26.07.2016 09:48 20,1 C 20,2 C 80 % 1017,8 hPa 0,0 mm 2,3 km/h (1 Bft) NW 324 0 min 0,000 mm 2,7 UV-I 313 W/m 16,5 C 4,8 km/h (1 Bft)
26.07.2016 09:49 20,2 C 20,2 C 82 % 1017,8 hPa 0,0 mm 3,8 km/h (1 Bft) N-NW 332 0 min 0,000 mm 2,7 UV-I 316 W/m 17,0 C 6,4 km/h (2 Bft)
26.07.2016 09:50 20,2 C 20,2 C 81 % 1017,9 hPa 0,0 mm 3,3 km/h (1 Bft) W-NW 292 0 min 0,000 mm 2,7 UV-I 318 W/m 16,8 C 6,4 km/h (2 Bft)
26.07.2016 09:51 20,3 C 20,3 C 82 % 1017,9 hPa 0,0 mm 4,3 km/h (1 Bft) NW 314 0 min 0,000 mm 2,7 UV-I 318 W/m 17,1 C 6,4 km/h (2 Bft)
26.07.2016 09:52 20,2 C 20,3 C 79 % 1017,9 hPa 0,0 mm 3,0 km/h (1 Bft) NW 313 0 min 0,000 mm 2,8 UV-I 325 W/m 16,4 C 4,8 km/h (1 Bft)
26.07.2016 09:53 20,2 C 20,3 C 81 % 1017,9 hPa 0,0 mm 2,7 km/h (1 Bft) NW 316 0 min 0,000 mm 2,8 UV-I 332 W/m 16,8 C 4,8 km/h (1 Bft)
26.07.2016 09:54 20,2 C 20,2 C 80 % 1017,9 hPa 0,0 mm 4,1 km/h (1 Bft) N-NW 329 0 min 0,000 mm 2,8 UV-I 316 W/m 16,6 C 6,4 km/h (2 Bft)
26.07.2016 09:55 20,3 C 20,3 C 82 % 1017,9 hPa 0,0 mm 4,2 km/h (1 Bft) NW 313 0 min 0,000 mm 2,7 UV-I 290 W/m 17,1 C 6,4 km/h (2 Bft)
26.07.2016 09:56 20,3 C 20,3 C 82 % 1017,9 hPa 0,0 mm 4,6 km/h (1 Bft) NW 318 0 min 0,000 mm 2,7 UV-I 279 W/m 17,1 C 6,4 km/h (2 Bft)
26.07.2016 09:57 20,2 C 20,3 C 80 % 1018,0 hPa 0,0 mm 2,3 km/h (1 Bft) NW 311 0 min 0,000 mm 2,7 UV-I 279 W/m 16,6 C 3,2 km/h (1 Bft)
26.07.2016 09:58 20,2 C 20,2 C 80 % 1017,9 hPa 0,0 mm 2,9 km/h (1 Bft) NW 311 0 min 0,000 mm 2,9 UV-I 311 W/m 16,6 C 3,2 km/h (1 Bft)
26.07.2016 09:59 20,1 C 20,2 C 80 % 1017,9 hPa 0,0 mm 3,3 km/h (1 Bft) NW 311 0 min 0,000 mm 3,0 UV-I 327 W/m 16,5 C 4,8 km/h (1 Bft)
26.07.2016 10:00 20,1 C 20,1 C 79 % 1017,9 hPa 0,0 mm 1,9 km/h (1 Bft) NW 311 1 min 0,178 mm 3,2 UV-I 381 W/m 16,3 C 3,2 km/h (1 Bft)
26.07.2016 10:01 20,1 C 20,1 C 81 % 1018,0 hPa 0,0 mm 2,0 km/h (1 Bft) NW 311 1 min 0,000 mm 1,8 UV-I 413 W/m 16,7 C 3,2 km/h (1 Bft)
26.07.2016 10:02 20,1 C 20,2 C 81 % 1017,9 hPa 0,0 mm 1,7 km/h (1 Bft) NW 311 1 min 0,000 mm 3,3 UV-I 415 W/m 16,7 C 3,2 km/h (1 Bft)
26.07.2016 10:03 20,2 C 20,2 C 82 % 1017,9 hPa 0,0 mm 2,9 km/h (1 Bft) NW 308 1 min 0,000 mm 3,4 UV-I 431 W/m 17,0 C 4,8 km/h (1 Bft)
26.07.2016 10:04 20,3 C 20,3 C 81 % 1017,9 hPa 0,0 mm 4,6 km/h (1 Bft) W-NW 293 1 min 0,000 mm 3,5 UV-I 429 W/m 16,9 C 4,8 km/h (1 Bft)
26.07.2016 10:05 20,3 C 20,3 C 81 % 1018,0 hPa 0,0 mm 1,3 km/h (1 Bft) W-NW 293 1 min 0,000 mm 3,6 UV-I 459 W/m 16,9 C 3,2 km/h (1 Bft)
26.07.2016 10:06 20,4 C 20,4 C 83 % 1017,9 hPa 0,0 mm 2,3 km/h (1 Bft) W-NW 292 1 min 0,000 mm 3,8 UV-I 482 W/m 17,4 C 6,4 km/h (2 Bft)
26.07.2016 10:07 20,4 C 20,4 C 82 % 1017,9 hPa 0,0 mm 2,1 km/h (1 Bft) W-NW 290 1 min 0,000 mm 4,1 UV-I 582 W/m 17,2 C 4,8 km/h (1 Bft)
26.07.2016 10:08 20,5 C 20,5 C 81 % 1018,0 hPa 0,0 mm 1,7 km/h (1 Bft) W-NW 290 1 min 0,000 mm 4,4 UV-I 582 W/m 17,1 C 3,2 km/h (1 Bft)
26.07.2016 10:09 20,6 C 20,6 C 81 % 1017,9 hPa 0,0 mm 4,0 km/h (1 Bft) W-NW 296 1 min 0,000 mm 4,3 UV-I 668 W/m 17,2 C 6,4 km/h (2 Bft)
26.07.2016 10:10 20,7 C 20,7 C 84 % 1017,9 hPa 0,0 mm 1,1 km/h (1 Bft) W-NW 296 1 min 0,000 mm 3,9 UV-I 668 W/m 17,9 C 3,2 km/h (1 Bft)
26.07.2016 10:11 20,9 C 20,9 C 81 % 1018,0 hPa 0,0 mm 2,3 km/h (1 Bft) W-SW 245 1 min 0,000 mm 4,6 UV-I 766 W/m 17,5 C 3,2 km/h (1 Bft)
26.07.2016 10:12 20,8 C 20,9 C 78 % 1017,9 hPa 0,0 mm 0,3 km/h (0 Bft) W-SW 245 1 min 0,000 mm 4,6 UV-I 747 W/m 16,8 C 1,6 km/h (1 Bft)
26.07.2016 10:13 20,8 C 20,8 C 79 % 1017,9 hPa 0,0 mm 2,3 km/h (1 Bft) O 96 1 min 0,000 mm 4,5 UV-I 696 W/m 17,0 C 4,8 km/h (1 Bft)
26.07.2016 10:14 20,7 C 20,8 C 81 % 1017,9 hPa 0,0 mm 0,9 km/h (0 Bft) O-SO 111 1 min 0,000 mm 4,4 UV-I 684 W/m 17,3 C 3,2 km/h (1 Bft)
26.07.2016 10:15 20,6 C 20,7 C 78 % 1017,9 hPa 0,0 mm 0,6 km/h (0 Bft) O-SO 112 1 min 0,000 mm 4,5 UV-I 687 W/m 16,6 C 1,6 km/h (1 Bft)
26.07.2016 10:16 20,6 C 20,6 C 79 % 1017,9 hPa 0,0 mm 1,3 km/h (1 Bft) N-NW 346 1 min 0,000 mm 4,5 UV-I 729 W/m 16,8 C 3,2 km/h (1 Bft)
26.07.2016 10:17 20,8 C 20,8 C 83 % 1017,9 hPa 0,0 mm 3,1 km/h (1 Bft) NW 321 1 min 0,000 mm 4,6 UV-I 749 W/m 17,8 C 3,2 km/h (1 Bft)
26.07.2016 10:18 20,9 C 20,9 C 79 % 1017,8 hPa 0,0 mm 2,5 km/h (1 Bft) N 355 1 min 0,000 mm 4,5 UV-I 749 W/m 17,1 C 3,2 km/h (1 Bft)
26.07.2016 10:19 21,2 C 21,2 C 82 % 1017,8 hPa 0,0 mm 2,9 km/h (1 Bft) N-NW 328 1 min 0,000 mm 4,4 UV-I 737 W/m 18,0 C 4,8 km/h (1 Bft)
26.07.2016 10:21 21,3 C 21,3 C 76 % 1017,8 hPa 0,0 mm 3,3 km/h (1 Bft) W 277 2 min 0,000 mm 4,6 UV-I 780 W/m 16,9 C 4,8 km/h (1 Bft)
26.07.2016 10:22 21,3 C 21,3 C 81 % 1017,8 hPa 0,0 mm 3,1 km/h (1 Bft) W-SW 244 1 min 0,000 mm 4,6 UV-I 738 W/m 17,9 C 4,8 km/h (1 Bft)
26.07.2016 10:23 21,3 C 21,3 C 79 % 1017,9 hPa 0,0 mm 4,2 km/h (1 Bft) W-NW 289 1 min 0,000 mm 4,3 UV-I 677 W/m 17,5 C 6,4 km/h (2 Bft)
26.07.2016 10:24 21,3 C 21,3 C 79 % 1017,8 hPa 0,0 mm 6,4 km/h (2 Bft) W-NW 295 1 min 0,000 mm 4,2 UV-I 677 W/m 17,5 C 9,7 km/h (2 Bft)
26.07.2016 10:25 21,3 C 21,4 C 78 % 1017,9 hPa 0,0 mm 7,3 km/h (2 Bft) NW 311 1 min 0,000 mm 4,4 UV-I 580 W/m 17,3 C 9,7 km/h (2 Bft)
26.07.2016 10:26 21,2 C 21,3 C 77 % 1017,8 hPa 0,0 mm 3,5 km/h (1 Bft) NW 310 1 min 0,000 mm 4,4 UV-I 747 W/m 17,0 C 4,8 km/h (1 Bft)
26.07.2016 10:27 21,2 C 21,2 C 81 % 1017,8 hPa 0,0 mm 2,3 km/h (1 Bft) N 9 1 min 0,000 mm 3,9 UV-I 747 W/m 17,8 C 6,4 km/h (2 Bft)
26.07.2016 10:28 21,3 C 21,3 C 79 % 1017,8 hPa 0,0 mm 2,9 km/h (1 Bft) N-NO 30 1 min 0,000 mm 3,7 UV-I 438 W/m 17,5 C 4,8 km/h (1 Bft)
26.07.2016 10:29 21,3 C 21,3 C 79 % 1017,8 hPa 0,0 mm 4,3 km/h (1 Bft) W-NW 301 1 min 0,000 mm 3,6 UV-I 431 W/m 17,5 C 6,4 km/h (2 Bft)
26.07.2016 10:30 21,4 C 21,4 C 81 % 1017,8 hPa 0,0 mm 4,7 km/h (1 Bft) W-NW 300 1 min 0,000 mm 3,7 UV-I 425 W/m 18,0 C 6,4 km/h (2 Bft)
26.07.2016 10:31 21,3 C 21,4 C 79 % 1017,8 hPa 0,0 mm 4,6 km/h (1 Bft) NW 311 1 min 0,000 mm 4,5 UV-I 466 W/m 17,5 C 6,4 km/h (2 Bft)
26.07.2016 10:32 21,3 C 21,3 C 80 % 1017,8 hPa 0,0 mm 4,5 km/h (1 Bft) NW 306 1 min 0,000 mm 5,3 UV-I 466 W/m 17,7 C 6,4 km/h (2 Bft)
26.07.2016 10:33 21,4 C 21,4 C 78 % 1017,8 hPa 0,0 mm 4,6 km/h (1 Bft) W-NW 299 1 min 0,000 mm 4,2 UV-I 466 W/m 17,4 C 6,4 km/h (2 Bft)
26.07.2016 10:34 21,4 C 21,4 C 79 % 1017,8 hPa 0,0 mm 2,8 km/h (1 Bft) NW 304 1 min 0,000 mm 5,4 UV-I 466 W/m 17,6 C 4,8 km/h (1 Bft)
26.07.2016 10:35 21,5 C 21,5 C 78 % 1017,8 hPa 0,0 mm 5,1 km/h (1 Bft) NW 317 1 min 0,000 mm 5,5 UV-I 875 W/m 17,5 C 8,0 km/h (2 Bft)
26.07.2016 10:36 21,6 C 21,6 C 81 % 1017,8 hPa 0,0 mm 3,9 km/h (1 Bft) W-NW 297 1 min 0,000 mm 5,4 UV-I 837 W/m 18,2 C 8,0 km/h (2 Bft)
26.07.2016 10:37 21,6 C 21,6 C 78 % 1017,8 hPa 0,0 mm 4,4 km/h (1 Bft) N-NW 332 1 min 0,000 mm 5,4 UV-I 821 W/m 17,6 C 6,4 km/h (2 Bft)
26.07.2016 10:38 21,6 C 21,6 C 76 % 1017,7 hPa 0,0 mm 7,5 km/h (2 Bft) N-NW 347 1 min 0,000 mm 5,5 UV-I 856 W/m 17,2 C 11,3 km/h (2 Bft)
26.07.2016 10:39 21,7 C 21,7 C 79 % 1017,7 hPa 0,0 mm 7,2 km/h (2 Bft) W-SW 244 1 min 0,000 mm 5,6 UV-I 874 W/m 17,9 C 9,7 km/h (2 Bft)
26.07.2016 10:40 21,7 C 21,8 C 78 % 1017,7 hPa 0,0 mm 6,5 km/h (2 Bft) W-NW 284 1 min 0,000 mm 5,6 UV-I 882 W/m 17,7 C 11,3 km/h (2 Bft)
26.07.2016 10:41 21,7 C 21,7 C 78 % 1017,7 hPa 0,0 mm 3,0 km/h (1 Bft) W 278 1 min 0,000 mm 5,8 UV-I 893 W/m 17,7 C 4,8 km/h (1 Bft)
26.07.2016 10:42 21,7 C 21,8 C 78 % 1017,7 hPa 0,0 mm 5,0 km/h (1 Bft) W 281 1 min 0,000 mm 5,8 UV-I 907 W/m 17,7 C 6,4 km/h (2 Bft)
26.07.2016 10:43 21,7 C 21,7 C 76 % 1017,7 hPa 0,0 mm 4,8 km/h (1 Bft) W 266 1 min 0,000 mm 5,9 UV-I 916 W/m 17,3 C 8,0 km/h (2 Bft)
26.07.2016 10:44 21,8 C 21,8 C 79 % 1017,7 hPa 0,0 mm 6,3 km/h (2 Bft) N-NW 338 1 min 0,000 mm 5,9 UV-I 921 W/m 18,0 C 9,7 km/h (2 Bft)
26.07.2016 10:45 22,0 C 22,0 C 77 % 1017,7 hPa 0,0 mm 7,3 km/h (2 Bft) N-NW 336 1 min 0,000 mm 5,8 UV-I 930 W/m 17,8 C 8,0 km/h (2 Bft)
26.07.2016 10:46 22,2 C 22,2 C 77 % 1017,7 hPa 0,0 mm 6,9 km/h (2 Bft) N-NW 341 1 min 0,000 mm 5,8 UV-I 951 W/m 18,0 C 9,7 km/h (2 Bft)
26.07.2016 10:47 22,2 C 22,2 C 76 % 1017,7 hPa 0,0 mm 4,8 km/h (1 Bft) NW 308 1 min 0,000 mm 5,7 UV-I 951 W/m 17,8 C 6,4 km/h (2 Bft)
26.07.2016 10:48 22,2 C 22,3 C 76 % 1017,6 hPa 0,0 mm 5,4 km/h (1 Bft) N-NW 340 1 min 0,000 mm 4,2 UV-I 951 W/m 17,8 C 8,0 km/h (2 Bft)
26.07.2016 10:49 22,2 C 22,2 C 78 % 1017,7 hPa 0,0 mm 6,7 km/h (2 Bft) W 263 1 min 0,000 mm 4,1 UV-I 951 W/m 18,2 C 9,7 km/h (2 Bft)
26.07.2016 10:50 22,2 C 22,2 C 75 % 1017,7 hPa 0,0 mm 6,0 km/h (2 Bft) W-NW 298 1 min 0,000 mm 5,3 UV-I 951 W/m 17,5 C 11,3 km/h (2 Bft)
26.07.2016 10:51 22,2 C 22,2 C 75 % 1017,7 hPa 0,0 mm 5,0 km/h (1 Bft) W-NW 302 1 min 0,000 mm 4,9 UV-I 912 W/m 17,5 C 6,4 km/h (2 Bft)
26.07.2016 10:52 22,2 C 22,2 C 74 % 1017,7 hPa 0,0 mm 8,3 km/h (2 Bft) NW 312 0 min 0,000 mm 3,3 UV-I 294 W/m 17,3 C 11,3 km/h (2 Bft)
26.07.2016 10:53 22,0 C 22,2 C 75 % 1017,7 hPa 0,0 mm 6,3 km/h (2 Bft) NW 317 0 min 0,000 mm 3,1 UV-I 274 W/m 17,4 C 11,3 km/h (2 Bft)
26.07.2016 10:54 21,8 C 22,0 C 76 % 1017,7 hPa 0,0 mm 4,2 km/h (1 Bft) NW 315 0 min 0,000 mm 3,1 UV-I 258 W/m 17,4 C 9,7 km/h (2 Bft)
26.07.2016 10:55 21,7 C 21,8 C 77 % 1017,7 hPa 0,0 mm 5,2 km/h (1 Bft) NW 325 0 min 0,000 mm 3,1 UV-I 251 W/m 17,5 C 8,0 km/h (2 Bft)
26.07.2016 10:56 21,4 C 21,7 C 77 % 1017,7 hPa 0,0 mm 5,0 km/h (1 Bft) NW 304 0 min 0,000 mm 3,1 UV-I 250 W/m 17,2 C 6,4 km/h (2 Bft)
26.07.2016 10:57 21,3 C 21,4 C 77 % 1017,7 hPa 0,0 mm 6,2 km/h (2 Bft) W-NW 303 0 min 0,000 mm 3,1 UV-I 255 W/m 17,1 C 11,3 km/h (2 Bft)
26.07.2016 10:58 21,3 C 21,3 C 77 % 1017,7 hPa 0,0 mm 3,2 km/h (1 Bft) NW 317 0 min 0,000 mm 3,1 UV-I 258 W/m 17,1 C 6,4 km/h (2 Bft)
26.07.2016 10:59 21,2 C 21,3 C 76 % 1017,7 hPa 0,0 mm 4,4 km/h (1 Bft) NW 316 0 min 0,000 mm 3,2 UV-I 260 W/m 16,8 C 6,4 km/h (2 Bft)
26.07.2016 11:00 21,2 C 21,2 C 77 % 1017,7 hPa 0,0 mm 3,2 km/h (1 Bft) W-NW 284 0 min 0,381 mm 3,2 UV-I 255 W/m 17,0 C 4,8 km/h (1 Bft)
26.07.2016 11:01 21,1 C 21,2 C 77 % 1017,7 hPa 0,0 mm 3,2 km/h (1 Bft) W-NW 292 0 min 0,000 mm 3,2 UV-I 251 W/m 16,9 C 4,8 km/h (1 Bft)
26.07.2016 11:02 21,1 C 21,1 C 76 % 1017,7 hPa 0,0 mm 1,3 km/h (1 Bft) W-NW 292 0 min 0,000 mm 3,2 UV-I 253 W/m 16,7 C 3,2 km/h (1 Bft)
26.07.2016 11:03 21,0 C 21,1 C 77 % 1017,6 hPa 0,0 mm 1,3 km/h (1 Bft) W-NW 290 0 min 0,000 mm 3,3 UV-I 313 W/m 16,8 C 3,2 km/h (1 Bft)
26.07.2016 11:04 21,1 C 21,1 C 79 % 1017,6 hPa 0,0 mm 0,7 km/h (0 Bft) W-NW 298 0 min 0,000 mm 5,6 UV-I 313 W/m 17,3 C 3,2 km/h (1 Bft)
26.07.2016 11:05 21,2 C 21,2 C 79 % 1017,7 hPa 0,0 mm 3,0 km/h (1 Bft) N-NW 344 1 min 0,000 mm 5,8 UV-I 884 W/m 17,4 C 4,8 km/h (1 Bft)
26.07.2016 11:06 21,4 C 21,4 C 79 % 1017,7 hPa 0,0 mm 4,3 km/h (1 Bft) N-NW 331 1 min 0,000 mm 5,8 UV-I 939 W/m 17,6 C 6,4 km/h (2 Bft)
26.07.2016 11:07 21,7 C 21,7 C 81 % 1017,6 hPa 0,0 mm 3,7 km/h (1 Bft) N 360 1 min 0,000 mm 5,6 UV-I 844 W/m 18,3 C 4,8 km/h (1 Bft)
26.07.2016 11:08 21,9 C 21,9 C 79 % 1017,7 hPa 0,0 mm 5,9 km/h (2 Bft) W-NW 301 1 min 0,000 mm 5,7 UV-I 795 W/m 18,1 C 9,7 km/h (2 Bft)
26.07.2016 11:09 22,1 C 22,1 C 77 % 1017,7 hPa 0,0 mm 6,6 km/h (2 Bft) W-NW 300 1 min 0,000 mm 5,6 UV-I 780 W/m 17,9 C 11,3 km/h (2 Bft)
26.07.2016 11:10 22,1 C 22,1 C 78 % 1017,6 hPa 0,0 mm 5,8 km/h (2 Bft) NW 314 1 min 0,000 mm 4,7 UV-I 520 W/m 18,1 C 11,3 km/h (2 Bft)
26.07.2016 11:11 22,1 C 22,1 C 78 % 1017,6 hPa 0,0 mm 5,0 km/h (1 Bft) W-NW 302 1 min 0,000 mm 5,4 UV-I 603 W/m 18,1 C 8,0 km/h (2 Bft)
26.07.2016 11:12 21,8 C 22,1 C 74 % 1017,6 hPa 0,0 mm 1,4 km/h (1 Bft) N-NW 337 1 min 0,000 mm 5,4 UV-I 601 W/m 17,0 C 3,2 km/h (1 Bft)
26.07.2016 11:13 21,8 C 21,8 C 73 % 1017,6 hPa 0,0 mm 1,8 km/h (1 Bft) NW 310 1 min 0,000 mm 6,3 UV-I 601 W/m 16,7 C 3,2 km/h (1 Bft)
26.07.2016 11:14 21,8 C 21,8 C 76 % 1017,6 hPa 0,0 mm 4,2 km/h (1 Bft) NW 310 1 min 0,000 mm 6,2 UV-I 937 W/m 17,4 C 8,0 km/h (2 Bft)
26.07.2016 11:15 21,9 C 21,9 C 79 % 1017,7 hPa 0,0 mm 6,1 km/h (2 Bft) W-NW 292 1 min 0,000 mm 6,0 UV-I 882 W/m 18,1 C 11,3 km/h (2 Bft)
26.07.2016 11:16 21,9 C 21,9 C 75 % 1017,6 hPa 0,0 mm 4,9 km/h (1 Bft) NW 320 1 min 0,000 mm 5,8 UV-I 819 W/m 17,3 C 8,0 km/h (2 Bft)
26.07.2016 11:17 21,9 C 21,9 C 73 % 1017,6 hPa 0,0 mm 6,7 km/h (2 Bft) N-NW 336 1 min 0,000 mm 5,1 UV-I 819 W/m 16,8 C 11,3 km/h (2 Bft)
26.07.2016 11:18 21,9 C 21,9 C 75 % 1017,6 hPa 0,0 mm 5,9 km/h (2 Bft) NW 310 1 min 0,000 mm 5,3 UV-I 578 W/m 17,3 C 9,7 km/h (2 Bft)
26.07.2016 11:19 22,1 C 22,1 C 74 % 1017,6 hPa 0,0 mm 6,2 km/h (2 Bft) NW 307 1 min 0,000 mm 5,8 UV-I 578 W/m 17,2 C 9,7 km/h (2 Bft)
26.07.2016 11:20 22,1 C 22,1 C 75 % 1017,6 hPa 0,0 mm 6,7 km/h (2 Bft) W-NW 296 1 min 0,000 mm 5,8 UV-I 578 W/m 17,5 C 9,7 km/h (2 Bft)
26.07.2016 11:21 22,2 C 22,2 C 76 % 1017,7 hPa 0,0 mm 3,4 km/h (1 Bft) N-NW 346 1 min 0,000 mm 5,7 UV-I 578 W/m 17,8 C 6,4 km/h (2 Bft)
26.07.2016 11:22 22,3 C 22,3 C 77 % 1017,6 hPa 0,0 mm 6,4 km/h (2 Bft) N 355 1 min 0,000 mm 5,8 UV-I 578 W/m 18,1 C 8,0 km/h (2 Bft)
26.07.2016 11:23 22,5 C 22,5 C 77 % 1017,6 hPa 0,0 mm 6,5 km/h (2 Bft) N-NW 334 1 min 0,000 mm 5,7 UV-I 765 W/m 18,3 C 9,7 km/h (2 Bft)
26.07.2016 11:24 22,4 C 22,5 C 72 % 1017,6 hPa 0,0 mm 3,6 km/h (1 Bft) NW 319 1 min 0,000 mm 5,8 UV-I 710 W/m 17,1 C 6,4 km/h (2 Bft)
26.07.2016 11:25 22,3 C 22,4 C 75 % 1017,6 hPa 0,0 mm 5,5 km/h (1 Bft) N-NW 337 1 min 0,000 mm 5,6 UV-I 645 W/m 17,6 C 8,0 km/h (2 Bft)
26.07.2016 11:26 22,1 C 22,3 C 75 % 1017,6 hPa 0,0 mm 7,6 km/h (2 Bft) N 5 1 min 0,000 mm 6,0 UV-I 684 W/m 17,5 C 12,9 km/h (3 Bft)
26.07.2016 11:27 22,0 C 22,1 C 73 % 1017,6 hPa 0,0 mm 8,1 km/h (2 Bft) N 9 1 min 0,000 mm 6,9 UV-I 1035 W/m 16,9 C 12,9 km/h (3 Bft)
26.07.2016 11:28 21,9 C 22,1 C 71 % 1017,7 hPa 0,0 mm 6,2 km/h (2 Bft) N-NO 15 1 min 0,000 mm 6,6 UV-I 1035 W/m 16,4 C 9,7 km/h (2 Bft)
26.07.2016 11:29 22,0 C 22,0 C 74 % 1017,6 hPa 0,0 mm 5,9 km/h (2 Bft) NW 315 1 min 0,000 mm 5,9 UV-I 1035 W/m 17,1 C 12,9 km/h (3 Bft)
26.07.2016 11:30 22,1 C 22,1 C 75 % 1017,6 hPa 0,0 mm 9,8 km/h (2 Bft) NW 307 1 min 0,000 mm 6,2 UV-I 807 W/m 17,5 C 12,9 km/h (3 Bft)
26.07.2016 11:31 22,1 C 22,2 C 73 % 1017,6 hPa 0,0 mm 9,1 km/h (2 Bft) N 355 1 min 0,000 mm 6,2 UV-I 858 W/m 17,0 C 12,9 km/h (3 Bft)
26.07.2016 11:32 22,1 C 22,1 C 71 % 1017,6 hPa 0,0 mm 7,7 km/h (2 Bft) N 350 1 min 0,000 mm 6,1 UV-I 721 W/m 16,6 C 12,9 km/h (3 Bft)
26.07.2016 11:33 22,1 C 22,1 C 74 % 1017,6 hPa 0,0 mm 6,2 km/h (2 Bft) NW 324 1 min 0,000 mm 5,6 UV-I 789 W/m 17,2 C 11,3 km/h (2 Bft)
26.07.2016 11:34 22,2 C 22,2 C 75 % 1017,6 hPa 0,0 mm 6,1 km/h (2 Bft) N-NW 330 1 min 0,000 mm 6,6 UV-I 789 W/m 17,5 C 8,0 km/h (2 Bft)
26.07.2016 11:35 22,4 C 22,4 C 75 % 1017,6 hPa 0,0 mm 6,6 km/h (2 Bft) N 355 1 min 0,000 mm 6,7 UV-I 932 W/m 17,7 C 8,0 km/h (2 Bft)
26.07.2016 11:36 22,4 C 22,4 C 71 % 1017,6 hPa 0,0 mm 7,8 km/h (2 Bft) W-NW 300 1 min 0,000 mm 6,8 UV-I 967 W/m 16,9 C 9,7 km/h (2 Bft)
26.07.2016 11:37 22,4 C 22,4 C 75 % 1017,6 hPa 0,0 mm 8,0 km/h (2 Bft) N-NW 336 1 min 0,000 mm 6,8 UV-I 963 W/m 17,7 C 12,9 km/h (3 Bft)
26.07.2016 11:38 22,4 C 22,4 C 73 % 1017,6 hPa 0,0 mm 9,9 km/h (2 Bft) N-NW 328 1 min 0,000 mm 6,8 UV-I 963 W/m 17,3 C 12,9 km/h (3 Bft)
26.07.2016 11:39 22,3 C 22,4 C 71 % 1017,6 hPa 0,0 mm 5,4 km/h (1 Bft) W-NW 302 1 min 0,000 mm 6,8 UV-I 914 W/m 16,8 C 8,0 km/h (2 Bft)
26.07.2016 11:40 22,3 C 22,3 C 73 % 1017,6 hPa 0,0 mm 6,7 km/h (2 Bft) N-NO 29 1 min 0,000 mm 6,2 UV-I 914 W/m 17,2 C 11,3 km/h (2 Bft)
26.07.2016 11:41 22,3 C 22,3 C 75 % 1017,6 hPa 0,0 mm 5,8 km/h (2 Bft) N-NW 346 1 min 0,000 mm 6,1 UV-I 751 W/m 17,6 C 9,7 km/h (2 Bft)
26.07.2016 11:42 22,4 C 22,4 C 73 % 1017,6 hPa 0,0 mm 8,4 km/h (2 Bft) N-NO 19 1 min 0,000 mm 5,9 UV-I 684 W/m 17,3 C 12,9 km/h (3 Bft)
26.07.2016 11:43 22,4 C 22,4 C 71 % 1017,5 hPa 0,0 mm 7,8 km/h (2 Bft) N-NW 340 1 min 0,000 mm 5,7 UV-I 619 W/m 16,9 C 12,9 km/h (3 Bft)
26.07.2016 11:44 22,3 C 22,4 C 71 % 1017,5 hPa 0,0 mm 4,9 km/h (1 Bft) NO 42 1 min 0,000 mm 5,9 UV-I 694 W/m 16,8 C 8,0 km/h (2 Bft)
26.07.2016 11:45 22,3 C 22,3 C 71 % 1017,5 hPa 0,0 mm 6,9 km/h (2 Bft) N-NW 329 1 min 0,000 mm 6,1 UV-I 789 W/m 16,8 C 9,7 km/h (2 Bft)
26.07.2016 11:46 22,2 C 22,3 C 73 % 1017,5 hPa 0,0 mm 7,9 km/h (2 Bft) N-NW 329 1 min 0,000 mm 6,3 UV-I 738 W/m 17,1 C 9,7 km/h (2 Bft)
26.07.2016 11:47 22,2 C 22,2 C 73 % 1017,5 hPa 0,0 mm 5,5 km/h (1 Bft) NW 312 1 min 0,000 mm 6,8 UV-I 738 W/m 17,1 C 8,0 km/h (2 Bft)
26.07.2016 11:48 22,1 C 22,2 C 70 % 1017,5 hPa 0,0 mm 3,5 km/h (1 Bft) NW 309 1 min 0,000 mm 7,0 UV-I 974 W/m 16,4 C 4,8 km/h (1 Bft)
26.07.2016 11:49 22,2 C 22,2 C 73 % 1017,5 hPa 0,0 mm 7,2 km/h (2 Bft) NW 315 1 min 0,000 mm 7,0 UV-I 970 W/m 17,1 C 9,7 km/h (2 Bft)
26.07.2016 11:50 22,2 C 22,3 C 72 % 1017,6 hPa 0,0 mm 6,2 km/h (2 Bft) N 355 1 min 0,000 mm 7,1 UV-I 970 W/m 16,9 C 9,7 km/h (2 Bft)
26.07.2016 11:51 22,3 C 22,3 C 74 % 1017,5 hPa 0,0 mm 5,2 km/h (1 Bft) NO 42 1 min 0,000 mm 7,2 UV-I 981 W/m 17,4 C 8,0 km/h (2 Bft)
26.07.2016 11:52 22,3 C 22,3 C 71 % 1017,6 hPa 0,0 mm 1,9 km/h (1 Bft) N-NW 331 1 min 0,000 mm 7,2 UV-I 997 W/m 16,8 C 3,2 km/h (1 Bft)
26.07.2016 11:53 22,4 C 22,4 C 75 % 1017,6 hPa 0,0 mm 4,9 km/h (1 Bft) W-NW 297 1 min 0,000 mm 7,2 UV-I 1002 W/m 17,7 C 8,0 km/h (2 Bft)
26.07.2016 11:54 22,7 C 22,7 C 73 % 1017,6 hPa 0,0 mm 5,0 km/h (1 Bft) N 355 1 min 0,000 mm 5,4 UV-I 1009 W/m 17,6 C 6,4 km/h (2 Bft)
26.07.2016 11:55 22,8 C 22,8 C 76 % 1017,6 hPa 0,0 mm 5,6 km/h (1 Bft) N 355 1 min 0,000 mm 6,0 UV-I 984 W/m 18,3 C 6,4 km/h (2 Bft)
26.07.2016 11:56 22,9 C 22,9 C 70 % 1017,6 hPa 0,0 mm 4,7 km/h (1 Bft) N-NO 13 1 min 0,000 mm 6,0 UV-I 851 W/m 17,1 C 6,4 km/h (2 Bft)
26.07.2016 11:57 22,9 C 22,9 C 71 % 1017,6 hPa 0,0 mm 3,6 km/h (1 Bft) N-NW 348 1 min 0,000 mm 5,0 UV-I 851 W/m 17,4 C 6,4 km/h (2 Bft)
26.07.2016 11:58 22,9 C 22,9 C 69 % 1017,6 hPa 0,0 mm 2,7 km/h (1 Bft) NW 309 1 min 0,000 mm 6,2 UV-I 480 W/m 16,9 C 4,8 km/h (1 Bft)
26.07.2016 11:59 22,8 C 22,9 C 67 % 1017,6 hPa 0,0 mm 1,9 km/h (1 Bft) NW 321 1 min 0,000 mm 5,8 UV-I 480 W/m 16,3 C 3,2 km/h (1 Bft)
26.07.2016 12:00 22,7 C 22,8 C 68 % 1017,6 hPa 0,0 mm 3,2 km/h (1 Bft) N-NO 19 1 min 0,000 mm 5,0 UV-I 480 W/m 16,5 C 4,8 km/h (1 Bft)
26.07.2016 12:01 22,6 C 22,7 C 70 % 1017,5 hPa 0,0 mm 4,2 km/h (1 Bft) N-NW 338 1 min 0,483 mm 5,0 UV-I 480 W/m 16,8 C 6,4 km/h (2 Bft)
26.07.2016 12:02 22,7 C 22,7 C 70 % 1017,6 hPa 0,0 mm 7,2 km/h (2 Bft) W-NW 302 1 min 0,000 mm 7,0 UV-I 914 W/m 16,9 C 9,7 km/h (2 Bft)
26.07.2016 12:03 22,7 C 22,7 C 71 % 1017,5 hPa 0,0 mm 5,2 km/h (1 Bft) NW 317 1 min 0,000 mm 7,0 UV-I 911 W/m 17,2 C 8,0 km/h (2 Bft)
26.07.2016 12:04 22,8 C 22,8 C 75 % 1017,5 hPa 0,0 mm 4,4 km/h (1 Bft) W-NW 283 1 min 0,000 mm 6,9 UV-I 902 W/m 18,1 C 6,4 km/h (2 Bft)
26.07.2016 12:05 22,7 C 22,8 C 70 % 1017,5 hPa 0,0 mm 2,1 km/h (1 Bft) W-NW 293 1 min 0,000 mm 6,8 UV-I 886 W/m 16,9 C 3,2 km/h (1 Bft)
26.07.2016 12:06 22,6 C 22,7 C 74 % 1017,4 hPa 0,0 mm 3,1 km/h (1 Bft) W-NW 291 1 min 0,000 mm 6,8 UV-I 803 W/m 17,7 C 4,8 km/h (1 Bft)
26.07.2016 12:07 22,6 C 22,6 C 71 % 1017,4 hPa 0,0 mm 3,6 km/h (1 Bft) N-NW 329 1 min 0,000 mm 6,8 UV-I 846 W/m 17,1 C 4,8 km/h (1 Bft)
26.07.2016 12:08 22,6 C 22,6 C 70 % 1017,4 hPa 0,0 mm 1,7 km/h (1 Bft) N-NW 331 1 min 0,000 mm 6,8 UV-I 905 W/m 16,8 C 3,2 km/h (1 Bft)
26.07.2016 12:09 22,6 C 22,6 C 70 % 1017,4 hPa 0,0 mm 3,1 km/h (1 Bft) N-NW 343 1 min 0,000 mm 7,0 UV-I 907 W/m 16,8 C 6,4 km/h (2 Bft)
26.07.2016 12:10 22,6 C 22,6 C 73 % 1017,3 hPa 0,0 mm 4,3 km/h (1 Bft) N 355 1 min 0,000 mm 7,1 UV-I 919 W/m 17,5 C 6,4 km/h (2 Bft)
26.07.2016 12:11 22,7 C 22,7 C 69 % 1017,3 hPa 0,0 mm 8,6 km/h (2 Bft) NW 310 1 min 0,000 mm 7,0 UV-I 919 W/m 16,7 C 12,9 km/h (3 Bft)
26.07.2016 12:12 22,7 C 22,7 C 73 % 1017,3 hPa 0,0 mm 3,2 km/h (1 Bft) NW 323 1 min 0,000 mm 6,9 UV-I 923 W/m 17,6 C 6,4 km/h (2 Bft)
26.07.2016 12:13 22,8 C 22,8 C 73 % 1017,3 hPa 0,0 mm 1,5 km/h (1 Bft) W-SW 238 1 min 0,000 mm 6,9 UV-I 895 W/m 17,7 C 3,2 km/h (1 Bft)
26.07.2016 12:14 22,7 C 22,8 C 71 % 1017,3 hPa 0,0 mm 1,0 km/h (0 Bft) O 101 1 min 0,000 mm 6,7 UV-I 928 W/m 17,2 C 1,6 km/h (1 Bft)
26.07.2016 12:15 22,7 C 22,7 C 71 % 1017,3 hPa 0,0 mm 2,4 km/h (1 Bft) O-NO 75 1 min 0,000 mm 7,0 UV-I 956 W/m 17,2 C 4,8 km/h (1 Bft)
26.07.2016 12:16 22,7 C 22,7 C 73 % 1017,3 hPa 0,0 mm 5,9 km/h (2 Bft) NO 45 1 min 0,000 mm 6,3 UV-I 946 W/m 17,6 C 9,7 km/h (2 Bft)
26.07.2016 12:17 22,7 C 22,7 C 70 % 1017,3 hPa 0,0 mm 4,6 km/h (1 Bft) N-NW 346 1 min 0,000 mm 6,8 UV-I 933 W/m 16,9 C 6,4 km/h (2 Bft)
26.07.2016 12:18 22,7 C 22,7 C 70 % 1017,3 hPa 0,0 mm 3,3 km/h (1 Bft) N-NW 341 1 min 0,000 mm 7,0 UV-I 949 W/m 16,9 C 4,8 km/h (1 Bft)
26.07.2016 12:19 22,8 C 22,8 C 72 % 1017,3 hPa 0,0 mm 5,4 km/h (1 Bft) W-NW 284 1 min 0,000 mm 7,0 UV-I 967 W/m 17,5 C 11,3 km/h (2 Bft)
26.07.2016 12:20 23,0 C 23,0 C 73 % 1017,3 hPa 0,0 mm 3,0 km/h (1 Bft) W-SW 250 1 min 0,000 mm 7,1 UV-I 967 W/m 17,9 C 3,2 km/h (1 Bft)
26.07.2016 12:21 22,9 C 23,0 C 70 % 1017,3 hPa 0,0 mm 3,6 km/h (1 Bft) N-NW 341 1 min 0,000 mm 7,0 UV-I 965 W/m 17,1 C 6,4 km/h (2 Bft)
26.07.2016 12:22 23,1 C 23,1 C 72 % 1017,3 hPa 0,0 mm 6,5 km/h (2 Bft) N 11 1 min 0,000 mm 5,4 UV-I 956 W/m 17,8 C 8,0 km/h (2 Bft)
26.07.2016 12:23 23,2 C 23,2 C 73 % 1017,3 hPa 0,0 mm 4,6 km/h (1 Bft) N-NW 327 1 min 0,000 mm 6,8 UV-I 965 W/m 18,1 C 6,4 km/h (2 Bft)
26.07.2016 12:24 23,2 C 23,2 C 71 % 1017,2 hPa 0,0 mm 2,7 km/h (1 Bft) NW 309 1 min 0,000 mm 6,6 UV-I 962 W/m 17,6 C 6,4 km/h (2 Bft)
26.07.2016 12:25 23,2 C 23,2 C 71 % 1017,2 hPa 0,0 mm 5,6 km/h (1 Bft) NW 306 1 min 0,000 mm 6,3 UV-I 974 W/m 17,6 C 9,7 km/h (2 Bft)
26.07.2016 12:26 23,1 C 23,2 C 72 % 1017,2 hPa 0,0 mm 6,4 km/h (2 Bft) W 275 1 min 0,000 mm 3,2 UV-I 974 W/m 17,8 C 11,3 km/h (2 Bft)
26.07.2016 12:27 23,0 C 23,1 C 74 % 1017,2 hPa 0,0 mm 6,2 km/h (2 Bft) NW 315 0 min 0,000 mm 3,0 UV-I 232 W/m 18,1 C 9,7 km/h (2 Bft)
26.07.2016 12:28 22,8 C 23,0 C 75 % 1017,3 hPa 0,0 mm 6,0 km/h (2 Bft) SW 232 0 min 0,000 mm 3,0 UV-I 237 W/m 18,1 C 11,3 km/h (2 Bft)
26.07.2016 12:29 22,6 C 22,8 C 74 % 1017,2 hPa 0,0 mm 6,7 km/h (2 Bft) W-NW 291 0 min 0,000 mm 3,0 UV-I 237 W/m 17,7 C 11,3 km/h (2 Bft)
26.07.2016 12:30 22,3 C 22,6 C 73 % 1017,2 hPa 0,0 mm 6,8 km/h (2 Bft) W 273 0 min 0,000 mm 3,0 UV-I 232 W/m 17,2 C 11,3 km/h (2 Bft)
26.07.2016 12:31 22,1 C 22,3 C 75 % 1017,2 hPa 0,0 mm 9,4 km/h (2 Bft) W 270 0 min 0,000 mm 3,0 UV-I 209 W/m 17,5 C 12,9 km/h (3 Bft)
26.07.2016 12:32 22,0 C 22,1 C 74 % 1017,2 hPa 0,0 mm 6,6 km/h (2 Bft) W-SW 248 0 min 0,000 mm 3,0 UV-I 202 W/m 17,1 C 11,3 km/h (2 Bft)
26.07.2016 12:33 21,8 C 22,0 C 75 % 1017,2 hPa 0,0 mm 4,3 km/h (1 Bft) W 279 0 min 0,000 mm 3,0 UV-I 197 W/m 17,2 C 4,8 km/h (1 Bft)
26.07.2016 12:34 21,7 C 21,8 C 76 % 1017,2 hPa 0,0 mm 4,4 km/h (1 Bft) W-NW 283 0 min 0,000 mm 3,1 UV-I 193 W/m 17,3 C 6,4 km/h (2 Bft)
26.07.2016 12:35 21,7 C 21,7 C 76 % 1017,2 hPa 0,0 mm 3,6 km/h (1 Bft) W 273 0 min 0,000 mm 3,1 UV-I 192 W/m 17,3 C 4,8 km/h (1 Bft)
26.07.2016 12:36 21,6 C 21,7 C 77 % 1017,2 hPa 0,0 mm 3,1 km/h (1 Bft) W 269 0 min 0,000 mm 3,2 UV-I 195 W/m 17,4 C 4,8 km/h (1 Bft)
26.07.2016 12:37 21,6 C 21,6 C 76 % 1017,2 hPa 0,0 mm 3,1 km/h (1 Bft) W-NW 300 0 min 0,000 mm 3,3 UV-I 218 W/m 17,2 C 3,2 km/h (1 Bft)
26.07.2016 12:38 21,6 C 21,6 C 78 % 1017,2 hPa 0,0 mm 4,2 km/h (1 Bft) W-SW 245 0 min 0,000 mm 4,5 UV-I 264 W/m 17,6 C 6,4 km/h (2 Bft)
26.07.2016 12:39 21,7 C 21,7 C 78 % 1017,3 hPa 0,0 mm 5,8 km/h (2 Bft) W 269 0 min 0,000 mm 6,6 UV-I 264 W/m 17,7 C 8,0 km/h (2 Bft)
26.07.2016 12:40 21,8 C 21,8 C 76 % 1017,2 hPa 0,0 mm 3,5 km/h (1 Bft) W 271 1 min 0,000 mm 6,6 UV-I 925 W/m 17,4 C 4,8 km/h (1 Bft)
26.07.2016 12:41 21,9 C 21,9 C 76 % 1017,2 hPa 0,0 mm 3,0 km/h (1 Bft) W-SW 255 1 min 0,000 mm 7,1 UV-I 912 W/m 17,5 C 4,8 km/h (1 Bft)
26.07.2016 12:42 22,1 C 22,1 C 77 % 1017,2 hPa 0,0 mm 4,5 km/h (1 Bft) W-NW 288 1 min 0,000 mm 7,1 UV-I 905 W/m 17,9 C 6,4 km/h (2 Bft)
26.07.2016 12:43 22,3 C 22,3 C 78 % 1017,2 hPa 0,0 mm 4,4 km/h (1 Bft) W-SW 250 1 min 0,000 mm 7,1 UV-I 893 W/m 18,3 C 4,8 km/h (1 Bft)
26.07.2016 12:44 22,5 C 22,5 C 75 % 1017,2 hPa 0,0 mm 3,6 km/h (1 Bft) W 276 1 min 0,000 mm 6,9 UV-I 884 W/m 17,8 C 9,7 km/h (2 Bft)
26.07.2016 12:45 22,4 C 22,5 C 74 % 1017,2 hPa 0,0 mm 5,0 km/h (1 Bft) W 272 1 min 0,000 mm 6,9 UV-I 882 W/m 17,5 C 9,7 km/h (2 Bft)
26.07.2016 12:46 22,4 C 22,4 C 73 % 1017,2 hPa 0,0 mm 5,2 km/h (1 Bft) W-NW 287 1 min 0,000 mm 6,9 UV-I 884 W/m 17,3 C 9,7 km/h (2 Bft)
26.07.2016 12:47 22,4 C 22,4 C 73 % 1017,2 hPa 0,0 mm 1,5 km/h (1 Bft) S-SO 148 1 min 0,000 mm 7,1 UV-I 918 W/m 17,3 C 3,2 km/h (1 Bft)
26.07.2016 12:48 22,5 C 22,5 C 74 % 1017,1 hPa 0,0 mm 2,4 km/h (1 Bft) NW 304 1 min 0,000 mm 7,2 UV-I 937 W/m 17,6 C 4,8 km/h (1 Bft)
26.07.2016 12:49 22,7 C 22,7 C 75 % 1017,1 hPa 0,0 mm 3,6 km/h (1 Bft) W-SW 242 1 min 0,000 mm 7,1 UV-I 893 W/m 18,0 C 4,8 km/h (1 Bft)
26.07.2016 12:50 22,8 C 22,8 C 78 % 1017,1 hPa 0,0 mm 4,2 km/h (1 Bft) NW 312 1 min 0,000 mm 4,6 UV-I 893 W/m 18,8 C 6,4 km/h (2 Bft)
26.07.2016 12:51 22,8 C 22,8 C 73 % 1017,1 hPa 0,0 mm 3,5 km/h (1 Bft) W-SW 238 1 min 0,000 mm 6,2 UV-I 893 W/m 17,7 C 4,8 km/h (1 Bft)
26.07.2016 12:52 22,8 C 22,8 C 74 % 1017,1 hPa 0,0 mm 3,6 km/h (1 Bft) NW 306 1 min 0,000 mm 7,2 UV-I 893 W/m 17,9 C 6,4 km/h (2 Bft)
26.07.2016 12:53 22,8 C 22,8 C 74 % 1017,1 hPa 0,0 mm 4,9 km/h (1 Bft) W-NW 297 1 min 0,000 mm 7,2 UV-I 939 W/m 17,9 C 8,0 km/h (2 Bft)
26.07.2016 12:54 23,0 C 23,0 C 75 % 1017,1 hPa 0,0 mm 5,0 km/h (1 Bft) W-NW 292 1 min 0,000 mm 7,1 UV-I 942 W/m 18,3 C 8,0 km/h (2 Bft)
26.07.2016 12:55 23,1 C 23,1 C 70 % 1017,1 hPa 0,0 mm 5,8 km/h (2 Bft) W-NW 296 1 min 0,000 mm 6,8 UV-I 933 W/m 17,3 C 8,0 km/h (2 Bft)
26.07.2016 12:56 23,1 C 23,2 C 68 % 1017,1 hPa 0,0 mm 2,3 km/h (1 Bft) NW 313 1 min 0,000 mm 6,7 UV-I 967 W/m 16,9 C 4,8 km/h (1 Bft)
26.07.2016 12:57 23,2 C 23,2 C 68 % 1017,1 hPa 0,0 mm 3,8 km/h (1 Bft) W 281 1 min 0,000 mm 4,4 UV-I 967 W/m 17,0 C 6,4 km/h (2 Bft)
26.07.2016 12:58 23,2 C 23,2 C 70 % 1017,2 hPa 0,0 mm 4,2 km/h (1 Bft) W-NW 290 1 min 0,000 mm 4,0 UV-I 504 W/m 17,4 C 6,4 km/h (2 Bft)
26.07.2016 12:59 23,2 C 23,2 C 70 % 1017,2 hPa 0,0 mm 3,8 km/h (1 Bft) W-NW 292 1 min 0,000 mm 4,0 UV-I 504 W/m 17,4 C 6,4 km/h (2 Bft)
26.07.2016 13:00 23,0 C 23,2 C 71 % 1017,1 hPa 0,0 mm 1,8 km/h (1 Bft) W-NW 292 0 min 0,000 mm 5,2 UV-I 332 W/m 17,4 C 3,2 km/h (1 Bft)
26.07.2016 13:01 22,9 C 23,0 C 75 % 1017,1 hPa 0,0 mm 4,8 km/h (1 Bft) NW 326 0 min 0,457 mm 4,8 UV-I 332 W/m 18,2 C 8,0 km/h (2 Bft)
26.07.2016 13:02 22,9 C 22,9 C 72 % 1017,1 hPa 0,0 mm 4,5 km/h (1 Bft) W-NW 293 0 min 0,000 mm 6,2 UV-I 332 W/m 17,6 C 6,4 km/h (2 Bft)
26.07.2016 13:03 22,9 C 23,0 C 73 % 1017,2 hPa 0,0 mm 6,1 km/h (2 Bft) W 273 0 min 0,000 mm 6,6 UV-I 332 W/m 17,8 C 9,7 km/h (2 Bft)
26.07.2016 13:04 22,9 C 22,9 C 72 % 1017,1 hPa 0,0 mm 3,2 km/h (1 Bft) W 267 1 min 0,000 mm 6,6 UV-I 965 W/m 17,6 C 6,4 km/h (2 Bft)
26.07.2016 13:05 22,9 C 22,9 C 72 % 1017,1 hPa 0,0 mm 1,9 km/h (1 Bft) SW 221 1 min 0,000 mm 6,4 UV-I 884 W/m 17,6 C 4,8 km/h (1 Bft)
26.07.2016 13:06 23,2 C 23,2 C 75 % 1017,2 hPa 0,0 mm 2,3 km/h (1 Bft) NO 42 1 min 0,000 mm 6,5 UV-I 939 W/m 18,5 C 4,8 km/h (1 Bft)
26.07.2016 13:07 23,3 C 23,3 C 69 % 1017,1 hPa 0,0 mm 3,5 km/h (1 Bft) N 5 1 min 0,000 mm 5,3 UV-I 939 W/m 17,3 C 4,8 km/h (1 Bft)
26.07.2016 13:08 23,3 C 23,3 C 68 % 1017,1 hPa 0,0 mm 3,8 km/h (1 Bft) N-NO 17 1 min 0,000 mm 5,6 UV-I 939 W/m 17,1 C 4,8 km/h (1 Bft)
26.07.2016 13:09 23,3 C 23,3 C 70 % 1017,1 hPa 0,0 mm 4,1 km/h (1 Bft) N-NO 24 1 min 0,000 mm 5,8 UV-I 773 W/m 17,5 C 6,4 km/h (2 Bft)
26.07.2016 13:10 23,4 C 23,4 C 66 % 1017,1 hPa 0,0 mm 2,3 km/h (1 Bft) NO 44 1 min 0,000 mm 4,1 UV-I 773 W/m 16,7 C 3,2 km/h (1 Bft)
26.07.2016 13:11 23,2 C 23,4 C 64 % 1017,1 hPa 0,0 mm 1,7 km/h (1 Bft) NO 44 1 min 0,000 mm 3,2 UV-I 773 W/m 16,0 C 3,2 km/h (1 Bft)
26.07.2016 13:12 23,0 C 23,2 C 65 % 1017,1 hPa 0,0 mm 1,9 km/h (1 Bft) NO 43 0 min 0,000 mm 3,0 UV-I 183 W/m 16,1 C 3,2 km/h (1 Bft)
26.07.2016 13:13 22,8 C 23,0 C 68 % 1017,1 hPa 0,0 mm 2,0 km/h (1 Bft) O-NO 64 0 min 0,000 mm 2,7 UV-I 169 W/m 16,6 C 3,2 km/h (1 Bft)
26.07.2016 13:14 22,7 C 22,8 C 69 % 1017,0 hPa 0,0 mm 1,5 km/h (1 Bft) N 360 0 min 0,000 mm 2,7 UV-I 165 W/m 16,7 C 3,2 km/h (1 Bft)
26.07.2016 13:15 22,7 C 22,7 C 70 % 1017,1 hPa 0,0 mm 3,0 km/h (1 Bft) NW 318 0 min 0,000 mm 2,7 UV-I 165 W/m 16,9 C 3,2 km/h (1 Bft)
26.07.2016 13:16 22,6 C 22,7 C 68 % 1017,1 hPa 0,0 mm 1,9 km/h (1 Bft) NW 317 0 min 0,000 mm 2,7 UV-I 174 W/m 16,4 C 3,2 km/h (1 Bft)
26.07.2016 13:17 22,4 C 22,6 C 69 % 1017,1 hPa 0,0 mm 1,4 km/h (1 Bft) NW 317 0 min 0,000 mm 2,7 UV-I 174 W/m 16,4 C 3,2 km/h (1 Bft)
26.07.2016 13:18 22,4 C 22,4 C 72 % 1017,1 hPa 0,0 mm 1,9 km/h (1 Bft) NW 315 0 min 0,000 mm 2,9 UV-I 206 W/m 17,1 C 3,2 km/h (1 Bft)
26.07.2016 13:19 22,3 C 22,4 C 73 % 1017,1 hPa 0,0 mm 1,9 km/h (1 Bft) NW 315 0 min 0,000 mm 3,0 UV-I 213 W/m 17,2 C 3,2 km/h (1 Bft)
26.07.2016 13:20 22,3 C 22,3 C 72 % 1017,1 hPa 0,0 mm 0,8 km/h (0 Bft) NW 315 0 min 0,000 mm 3,1 UV-I 225 W/m 17,0 C 1,6 km/h (1 Bft)
26.07.2016 13:21 22,3 C 22,3 C 70 % 1017,0 hPa 0,0 mm 1,9 km/h (1 Bft) W-NW 291 0 min 0,000 mm 3,3 UV-I 244 W/m 16,6 C 3,2 km/h (1 Bft)
26.07.2016 13:22 22,3 C 22,3 C 70 % 1017,0 hPa 0,0 mm 4,3 km/h (1 Bft) W-NW 290 0 min 0,000 mm 3,5 UV-I 269 W/m 16,6 C 4,8 km/h (1 Bft)
26.07.2016 13:23 22,3 C 22,3 C 69 % 1017,1 hPa 0,0 mm 2,2 km/h (1 Bft) W-NW 289 0 min 0,000 mm 3,7 UV-I 294 W/m 16,3 C 4,8 km/h (1 Bft)
26.07.2016 13:24 22,3 C 22,3 C 70 % 1017,0 hPa 0,0 mm 2,3 km/h (1 Bft) W-NW 299 0 min 0,000 mm 3,9 UV-I 299 W/m 16,6 C 3,2 km/h (1 Bft)
26.07.2016 13:25 22,4 C 22,4 C 70 % 1017,0 hPa 0,0 mm 3,3 km/h (1 Bft) W-NW 298 0 min 0,000 mm 4,1 UV-I 323 W/m 16,7 C 4,8 km/h (1 Bft)
26.07.2016 13:26 22,4 C 22,4 C 68 % 1016,9 hPa 0,0 mm 1,1 km/h (1 Bft) W-NW 298 0 min 0,000 mm 3,7 UV-I 323 W/m 16,2 C 3,2 km/h (1 Bft)
26.07.2016 13:27 22,5 C 22,5 C 68 % 1016,9 hPa 0,0 mm 1,3 km/h (1 Bft) N 355 1 min 0,000 mm 4,7 UV-I 531 W/m 16,3 C 3,2 km/h (1 Bft)
26.07.2016 13:28 22,6 C 22,6 C 67 % 1016,9 hPa 0,0 mm 1,9 km/h (1 Bft) N 355 1 min 0,000 mm 5,4 UV-I 566 W/m 16,2 C 3,2 km/h (1 Bft)
26.07.2016 13:29 22,6 C 22,6 C 67 % 1016,9 hPa 0,0 mm 0,5 km/h (0 Bft) N 355 1 min 0,000 mm 5,5 UV-I 640 W/m 16,2 C 1,6 km/h (1 Bft)
26.07.2016 13:30 22,7 C 22,7 C 69 % 1016,8 hPa 0,0 mm 1,8 km/h (1 Bft) O-NO 74 1 min 0,000 mm 5,8 UV-I 770 W/m 16,7 C 3,2 km/h (1 Bft)
26.07.2016 13:31 22,8 C 22,8 C 70 % 1016,8 hPa 0,0 mm 2,9 km/h (1 Bft) O-NO 61 1 min 0,000 mm 5,8 UV-I 770 W/m 17,0 C 4,8 km/h (1 Bft)
26.07.2016 13:32 22,9 C 22,9 C 68 % 1016,8 hPa 0,0 mm 3,1 km/h (1 Bft) O-NO 76 1 min 0,000 mm 5,9 UV-I 694 W/m 16,7 C 4,8 km/h (1 Bft)
26.07.2016 13:33 22,9 C 22,9 C 75 % 1016,8 hPa 0,0 mm 2,7 km/h (1 Bft) O-NO 76 1 min 0,000 mm 6,0 UV-I 694 W/m 18,2 C 3,2 km/h (1 Bft)
26.07.2016 13:34 22,9 C 22,9 C 66 % 1016,8 hPa 0,0 mm 2,3 km/h (1 Bft) O-NO 60 1 min 0,000 mm 6,7 UV-I 912 W/m 16,2 C 3,2 km/h (1 Bft)
26.07.2016 13:35 23,1 C 23,1 C 67 % 1016,8 hPa 0,0 mm 1,7 km/h (1 Bft) N-NO 27 1 min 0,000 mm 6,7 UV-I 912 W/m 16,6 C 3,2 km/h (1 Bft)
26.07.2016 13:36 23,2 C 23,2 C 72 % 1016,8 hPa 0,0 mm 2,2 km/h (1 Bft) O-NO 59 1 min 0,000 mm 5,6 UV-I 912 W/m 17,9 C 4,8 km/h (1 Bft)
26.07.2016 13:37 23,2 C 23,2 C 72 % 1016,7 hPa 0,0 mm 3,3 km/h (1 Bft) NO 54 1 min 0,000 mm 3,7 UV-I 912 W/m 17,9 C 4,8 km/h (1 Bft)
26.07.2016 13:38 23,1 C 23,2 C 67 % 1016,7 hPa 0,0 mm 3,6 km/h (1 Bft) NO 45 0 min 0,000 mm 3,2 UV-I 276 W/m 16,6 C 4,8 km/h (1 Bft)
26.07.2016 13:39 23,0 C 23,1 C 65 % 1016,7 hPa 0,0 mm 3,4 km/h (1 Bft) NO 45 0 min 0,000 mm 3,1 UV-I 250 W/m 16,1 C 4,8 km/h (1 Bft)
26.07.2016 13:40 22,8 C 23,0 C 67 % 1016,7 hPa 0,0 mm 2,0 km/h (1 Bft) NO 44 0 min 0,000 mm 2,9 UV-I 232 W/m 16,3 C 3,2 km/h (1 Bft)
26.07.2016 13:41 22,8 C 22,8 C 68 % 1016,7 hPa 0,0 mm 1,2 km/h (1 Bft) NO 44 0 min 0,000 mm 2,9 UV-I 214 W/m 16,6 C 1,6 km/h (1 Bft)
26.07.2016 13:42 22,7 C 22,8 C 69 % 1016,7 hPa 0,0 mm 0,2 km/h (0 Bft) NO 44 0 min 0,000 mm 2,7 UV-I 192 W/m 16,7 C 1,6 km/h (1 Bft)
26.07.2016 13:43 22,7 C 22,7 C 70 % 1016,7 hPa 0,0 mm 0,0 km/h (0 Bft) NO 44 0 min 0,000 mm 2,6 UV-I 183 W/m 16,9 C 0,0 km/h (0 Bft)
26.07.2016 13:44 22,6 C 22,7 C 71 % 1016,6 hPa 0,0 mm 0,3 km/h (0 Bft) NO 44 0 min 0,000 mm 2,6 UV-I 176 W/m 17,1 C 1,6 km/h (1 Bft)
26.07.2016 13:45 22,5 C 22,6 C 73 % 1016,6 hPa 0,0 mm 0,6 km/h (0 Bft) NO 44 0 min 0,000 mm 2,6 UV-I 171 W/m 17,4 C 1,6 km/h (1 Bft)
26.07.2016 13:46 22,3 C 22,5 C 70 % 1016,6 hPa 0,0 mm 0,4 km/h (0 Bft) NO 44 0 min 0,000 mm 2,7 UV-I 171 W/m 16,6 C 1,6 km/h (1 Bft)
26.07.2016 13:47 22,2 C 22,3 C 71 % 1016,6 hPa 0,0 mm 1,9 km/h (1 Bft) NW 325 0 min 0,000 mm 2,7 UV-I 174 W/m 16,7 C 3,2 km/h (1 Bft)
26.07.2016 13:48 22,1 C 22,2 C 76 % 1016,6 hPa 0,0 mm 0,9 km/h (0 Bft) NW 325 0 min 0,000 mm 2,9 UV-I 181 W/m 17,7 C 3,2 km/h (1 Bft)
26.07.2016 13:49 22,1 C 22,1 C 72 % 1016,6 hPa 0,0 mm 1,1 km/h (1 Bft) NW 325 0 min 0,000 mm 3,0 UV-I 197 W/m 16,8 C 3,2 km/h (1 Bft)
26.07.2016 13:50 22,1 C 22,1 C 71 % 1016,6 hPa 0,0 mm 1,0 km/h (0 Bft) NW 325 0 min 0,000 mm 3,1 UV-I 214 W/m 16,6 C 1,6 km/h (1 Bft)
26.07.2016 13:51 22,2 C 22,2 C 71 % 1016,6 hPa 0,0 mm 1,5 km/h (1 Bft) NW 325 0 min 0,000 mm 3,6 UV-I 255 W/m 16,7 C 3,2 km/h (1 Bft)
26.07.2016 13:52 22,2 C 22,2 C 81 % 1016,6 hPa 0,0 mm 1,7 km/h (1 Bft) NW 325 0 min 0,000 mm 3,6 UV-I 295 W/m 18,8 C 3,2 km/h (1 Bft)
26.07.2016 13:53 22,1 C 22,2 C 81 % 1016,6 hPa 0,0 mm 1,9 km/h (1 Bft) NW 325 0 min 0,000 mm 3,6 UV-I 297 W/m 18,7 C 3,2 km/h (1 Bft)
26.07.2016 13:54 22,2 C 22,2 C 80 % 1016,6 hPa 0,0 mm 1,0 km/h (0 Bft) NW 322 0 min 0,000 mm 3,6 UV-I 301 W/m 18,6 C 1,6 km/h (1 Bft)
26.07.2016 13:55 22,2 C 22,2 C 76 % 1016,6 hPa 0,0 mm 2,2 km/h (1 Bft) W 264 0 min 0,000 mm 3,6 UV-I 294 W/m 17,8 C 4,8 km/h (1 Bft)
26.07.2016 13:56 22,2 C 22,2 C 77 % 1016,6 hPa 0,0 mm 0,7 km/h (0 Bft) W 264 0 min 0,000 mm 3,6 UV-I 295 W/m 18,0 C 3,2 km/h (1 Bft)
26.07.2016 13:57 22,2 C 22,2 C 76 % 1016,6 hPa 0,0 mm 1,9 km/h (1 Bft) W 264 0 min 0,000 mm 3,6 UV-I 287 W/m 17,8 C 3,2 km/h (1 Bft)
26.07.2016 13:58 22,2 C 22,2 C 78 % 1016,6 hPa 0,0 mm 0,8 km/h (0 Bft) SW 233 0 min 0,000 mm 3,6 UV-I 283 W/m 18,2 C 1,6 km/h (1 Bft)
26.07.2016 13:59 22,1 C 22,2 C 78 % 1016,6 hPa 0,0 mm 2,1 km/h (1 Bft) S 182 0 min 0,000 mm 3,7 UV-I 292 W/m 18,1 C 3,2 km/h (1 Bft)
26.07.2016 14:00 22,1 C 22,2 C 76 % 1016,6 hPa 0,0 mm 2,3 km/h (1 Bft) S 189 0 min 0,254 mm 3,9 UV-I 304 W/m 17,7 C 4,8 km/h (1 Bft)
26.07.2016 14:01 22,2 C 22,2 C 76 % 1016,6 hPa 0,0 mm 3,8 km/h (1 Bft) S-SW 206 0 min 0,000 mm 4,2 UV-I 352 W/m 17,8 C 4,8 km/h (1 Bft)
26.07.2016 14:02 22,2 C 22,2 C 75 % 1016,6 hPa 0,0 mm 3,9 km/h (1 Bft) S-SW 194 0 min 0,000 mm 4,4 UV-I 387 W/m 17,5 C 8,0 km/h (2 Bft)
26.07.2016 14:03 22,2 C 22,2 C 75 % 1016,6 hPa 0,0 mm 3,7 km/h (1 Bft) S-SW 211 1 min 0,000 mm 5,2 UV-I 485 W/m 17,5 C 8,0 km/h (2 Bft)
26.07.2016 14:04 22,2 C 22,2 C 74 % 1016,6 hPa 0,0 mm 3,0 km/h (1 Bft) W-SW 240 1 min 0,000 mm 6,3 UV-I 485 W/m 17,3 C 4,8 km/h (1 Bft)
26.07.2016 14:05 22,3 C 22,3 C 76 % 1016,5 hPa 0,0 mm 2,3 km/h (1 Bft) W-SW 245 1 min 0,000 mm 5,1 UV-I 485 W/m 17,9 C 3,2 km/h (1 Bft)
26.07.2016 14:06 22,6 C 22,6 C 80 % 1016,6 hPa 0,0 mm 2,7 km/h (1 Bft) W-SW 244 1 min 0,000 mm 6,1 UV-I 860 W/m 19,0 C 4,8 km/h (1 Bft)
26.07.2016 14:07 22,8 C 22,8 C 77 % 1016,6 hPa 0,0 mm 4,9 km/h (1 Bft) S-SW 211 1 min 0,000 mm 6,4 UV-I 860 W/m 18,5 C 8,0 km/h (2 Bft)
26.07.2016 14:08 22,8 C 22,9 C 75 % 1016,6 hPa 0,0 mm 4,0 km/h (1 Bft) W-SW 254 1 min 0,000 mm 6,4 UV-I 726 W/m 18,1 C 6,4 km/h (2 Bft)
26.07.2016 14:09 22,9 C 23,0 C 74 % 1016,5 hPa 0,0 mm 3,9 km/h (1 Bft) S-SO 150 1 min 0,000 mm 5,1 UV-I 726 W/m 18,0 C 6,4 km/h (2 Bft)
26.07.2016 14:10 23,0 C 23,0 C 77 % 1016,5 hPa 0,0 mm 3,0 km/h (1 Bft) W 278 1 min 0,000 mm 5,1 UV-I 519 W/m 18,7 C 4,8 km/h (1 Bft)
26.07.2016 14:11 23,1 C 23,1 C 77 % 1016,5 hPa 0,0 mm 4,7 km/h (1 Bft) W-SW 246 1 min 0,000 mm 6,5 UV-I 519 W/m 18,8 C 6,4 km/h (2 Bft)
26.07.2016 14:12 23,2 C 23,2 C 76 % 1016,5 hPa 0,0 mm 5,6 km/h (1 Bft) SW 233 1 min 0,000 mm 6,8 UV-I 519 W/m 18,7 C 8,0 km/h (2 Bft)
26.07.2016 14:13 23,2 C 23,2 C 74 % 1016,5 hPa 0,0 mm 3,6 km/h (1 Bft) W 281 1 min 0,000 mm 7,2 UV-I 954 W/m 18,3 C 6,4 km/h (2 Bft)
26.07.2016 14:14 23,3 C 23,3 C 75 % 1016,5 hPa 0,0 mm 7,0 km/h (2 Bft) W-NW 283 1 min 0,000 mm 6,9 UV-I 954 W/m 18,6 C 11,3 km/h (2 Bft)
26.07.2016 14:15 23,4 C 23,4 C 76 % 1016,5 hPa 0,0 mm 4,5 km/h (1 Bft) W 269 1 min 0,000 mm 7,3 UV-I 977 W/m 18,9 C 9,7 km/h (2 Bft)
26.07.2016 14:16 23,6 C 23,6 C 75 % 1016,5 hPa 0,0 mm 8,8 km/h (2 Bft) W-SW 256 1 min 0,000 mm 7,4 UV-I 1076 W/m 18,9 C 14,5 km/h (3 Bft)
26.07.2016 14:17 23,6 C 23,6 C 74 % 1016,4 hPa 0,0 mm 7,8 km/h (2 Bft) S 171 1 min 0,000 mm 7,4 UV-I 1055 W/m 18,7 C 11,3 km/h (2 Bft)
26.07.2016 14:18 23,7 C 23,7 C 73 % 1016,4 hPa 0,0 mm 4,2 km/h (1 Bft) W-SW 257 1 min 0,000 mm 7,2 UV-I 1069 W/m 18,6 C 6,4 km/h (2 Bft)
26.07.2016 14:19 23,8 C 23,8 C 71 % 1016,5 hPa 0,0 mm 2,5 km/h (1 Bft) W-NW 287 1 min 0,000 mm 7,0 UV-I 1063 W/m 18,2 C 4,8 km/h (1 Bft)
26.07.2016 14:20 23,8 C 23,8 C 73 % 1016,4 hPa 0,0 mm 2,8 km/h (1 Bft) O-SO 117 1 min 0,000 mm 6,8 UV-I 1058 W/m 18,7 C 4,8 km/h (1 Bft)
26.07.2016 14:21 23,9 C 23,9 C 70 % 1016,4 hPa 0,0 mm 2,2 km/h (1 Bft) SO 141 1 min 0,000 mm 6,9 UV-I 1049 W/m 18,1 C 6,4 km/h (2 Bft)
26.07.2016 14:22 23,9 C 24,0 C 68 % 1016,5 hPa 0,0 mm 4,8 km/h (1 Bft) S-SO 148 1 min 0,000 mm 7,0 UV-I 1023 W/m 17,6 C 8,0 km/h (2 Bft)
26.07.2016 14:23 23,9 C 23,9 C 74 % 1016,4 hPa 0,0 mm 1,5 km/h (1 Bft) O-SO 105 1 min 0,000 mm 7,0 UV-I 1030 W/m 19,0 C 3,2 km/h (1 Bft)
26.07.2016 14:24 24,0 C 24,0 C 69 % 1016,4 hPa 0,0 mm 2,4 km/h (1 Bft) S-SO 167 1 min 0,000 mm 6,9 UV-I 1018 W/m 18,0 C 6,4 km/h (2 Bft)
26.07.2016 14:25 23,9 C 24,0 C 65 % 1016,4 hPa 0,0 mm 4,7 km/h (1 Bft) S 186 1 min 0,000 mm 6,8 UV-I 1013 W/m 16,9 C 9,7 km/h (2 Bft)
26.07.2016 14:26 23,8 C 23,9 C 65 % 1016,4 hPa 0,0 mm 3,3 km/h (1 Bft) O-SO 113 1 min 0,000 mm 6,7 UV-I 997 W/m 16,8 C 6,4 km/h (2 Bft)
26.07.2016 14:27 23,7 C 23,8 C 67 % 1016,4 hPa 0,0 mm 4,0 km/h (1 Bft) SO 126 1 min 0,000 mm 6,4 UV-I 956 W/m 17,2 C 8,0 km/h (2 Bft)
26.07.2016 14:28 23,7 C 23,7 C 71 % 1016,4 hPa 0,0 mm 2,7 km/h (1 Bft) SO 128 1 min 0,000 mm 4,2 UV-I 956 W/m 18,1 C 3,2 km/h (1 Bft)
26.07.2016 14:29 23,7 C 23,7 C 69 % 1016,4 hPa 0,0 mm 4,1 km/h (1 Bft) S-SO 159 0 min 0,000 mm 3,3 UV-I 265 W/m 17,7 C 6,4 km/h (2 Bft)
26.07.2016 14:30 23,7 C 23,7 C 69 % 1016,4 hPa 0,0 mm 1,5 km/h (1 Bft) S-SO 167 0 min 0,000 mm 3,2 UV-I 260 W/m 17,7 C 4,8 km/h (1 Bft)
26.07.2016 14:31 23,6 C 23,7 C 66 % 1016,4 hPa 0,0 mm 0,7 km/h (0 Bft) S-SO 167 0 min 0,000 mm 3,1 UV-I 257 W/m 16,9 C 1,6 km/h (1 Bft)
26.07.2016 14:32 23,4 C 23,6 C 70 % 1016,4 hPa 0,0 mm 1,7 km/h (1 Bft) W-SW 250 0 min 0,000 mm 3,1 UV-I 253 W/m 17,6 C 3,2 km/h (1 Bft)
26.07.2016 14:33 23,4 C 23,4 C 68 % 1016,4 hPa 0,0 mm 3,8 km/h (1 Bft) NW 312 0 min 0,000 mm 3,1 UV-I 255 W/m 17,1 C 6,4 km/h (2 Bft)
26.07.2016 14:34 23,3 C 23,4 C 70 % 1016,4 hPa 0,0 mm 3,8 km/h (1 Bft) N-NW 335 0 min 0,000 mm 3,2 UV-I 279 W/m 17,5 C 6,4 km/h (2 Bft)
26.07.2016 14:35 23,3 C 23,3 C 70 % 1016,4 hPa 0,0 mm 4,8 km/h (1 Bft) NW 311 0 min 0,000 mm 3,7 UV-I 329 W/m 17,5 C 6,4 km/h (2 Bft)
26.07.2016 14:36 23,3 C 23,3 C 69 % 1016,4 hPa 0,0 mm 3,4 km/h (1 Bft) W-NW 296 0 min 0,000 mm 4,2 UV-I 329 W/m 17,3 C 4,8 km/h (1 Bft)
26.07.2016 14:37 23,3 C 23,3 C 69 % 1016,3 hPa 0,0 mm 2,9 km/h (1 Bft) W 264 0 min 0,000 mm 3,8 UV-I 329 W/m 17,3 C 4,8 km/h (1 Bft)
26.07.2016 14:38 23,2 C 23,3 C 70 % 1016,3 hPa 0,0 mm 6,6 km/h (2 Bft) W 265 0 min 0,000 mm 3,8 UV-I 309 W/m 17,4 C 9,7 km/h (2 Bft)
26.07.2016 14:39 23,2 C 23,2 C 68 % 1016,3 hPa 0,0 mm 4,3 km/h (1 Bft) W-NW 291 0 min 0,000 mm 3,8 UV-I 308 W/m 17,0 C 4,8 km/h (1 Bft)
26.07.2016 14:40 23,2 C 23,2 C 68 % 1016,2 hPa 0,0 mm 4,8 km/h (1 Bft) W-NW 303 0 min 0,000 mm 3,9 UV-I 338 W/m 17,0 C 6,4 km/h (2 Bft)
26.07.2016 14:41 23,2 C 23,2 C 69 % 1016,3 hPa 0,0 mm 1,9 km/h (1 Bft) NW 310 0 min 0,000 mm 6,0 UV-I 338 W/m 17,2 C 4,8 km/h (1 Bft)
26.07.2016 14:42 23,3 C 23,3 C 73 % 1016,2 hPa 0,0 mm 1,2 km/h (1 Bft) N-NW 331 1 min 0,000 mm 6,5 UV-I 861 W/m 18,2 C 3,2 km/h (1 Bft)
26.07.2016 14:43 23,4 C 23,4 C 73 % 1016,2 hPa 0,0 mm 1,1 km/h (1 Bft) NW 304 1 min 0,000 mm 6,8 UV-I 861 W/m 18,3 C 3,2 km/h (1 Bft)
26.07.2016 14:44 23,7 C 23,7 C 73 % 1016,2 hPa 0,0 mm 2,2 km/h (1 Bft) W 267 1 min 0,000 mm 7,0 UV-I 995 W/m 18,6 C 3,2 km/h (1 Bft)
26.07.2016 14:45 23,7 C 23,7 C 66 % 1016,2 hPa 0,0 mm 1,3 km/h (1 Bft) S-SW 209 1 min 0,000 mm 7,1 UV-I 1014 W/m 17,0 C 3,2 km/h (1 Bft)
26.07.2016 14:46 23,8 C 23,8 C 68 % 1016,2 hPa 0,0 mm 1,3 km/h (1 Bft) S-SW 205 1 min 0,000 mm 7,1 UV-I 1009 W/m 17,5 C 3,2 km/h (1 Bft)
26.07.2016 14:47 23,9 C 23,9 C 69 % 1016,2 hPa 0,0 mm 2,8 km/h (1 Bft) W-SW 244 1 min 0,000 mm 6,7 UV-I 993 W/m 17,9 C 4,8 km/h (1 Bft)
26.07.2016 14:48 24,0 C 24,0 C 63 % 1016,2 hPa 0,0 mm 2,8 km/h (1 Bft) SW 216 1 min 0,000 mm 6,4 UV-I 995 W/m 16,5 C 4,8 km/h (1 Bft)
26.07.2016 14:49 24,1 C 24,1 C 61 % 1016,2 hPa 0,0 mm 1,6 km/h (1 Bft) S-SW 213 1 min 0,000 mm 6,0 UV-I 995 W/m 16,1 C 3,2 km/h (1 Bft)
26.07.2016 14:50 24,1 C 24,2 C 66 % 1016,2 hPa 0,0 mm 2,7 km/h (1 Bft) SW 229 1 min 0,000 mm 4,2 UV-I 995 W/m 17,3 C 4,8 km/h (1 Bft)
26.07.2016 14:51 24,0 C 24,1 C 66 % 1016,2 hPa 0,0 mm 2,7 km/h (1 Bft) W-NW 303 0 min 0,000 mm 4,2 UV-I 390 W/m 17,2 C 4,8 km/h (1 Bft)
26.07.2016 14:52 24,0 C 24,1 C 61 % 1016,2 hPa 0,0 mm 2,7 km/h (1 Bft) NW 306 0 min 0,000 mm 4,9 UV-I 390 W/m 16,0 C 4,8 km/h (1 Bft)
26.07.2016 14:53 24,0 C 24,0 C 64 % 1016,2 hPa 0,0 mm 1,0 km/h (0 Bft) N-NW 347 1 min 0,000 mm 5,0 UV-I 868 W/m 16,8 C 1,6 km/h (1 Bft)
26.07.2016 14:54 23,9 C 24,0 C 66 % 1016,1 hPa 0,0 mm 4,6 km/h (1 Bft) NO 55 1 min 0,000 mm 3,6 UV-I 868 W/m 17,1 C 9,7 km/h (2 Bft)
26.07.2016 14:55 23,9 C 23,9 C 66 % 1016,2 hPa 0,0 mm 6,4 km/h (2 Bft) N-NO 18 0 min 0,000 mm 2,4 UV-I 287 W/m 17,1 C 11,3 km/h (2 Bft)
26.07.2016 14:56 23,7 C 23,9 C 69 % 1016,2 hPa 0,0 mm 11,6 km/h (2 Bft) N-NO 26 0 min 0,000 mm 2,2 UV-I 257 W/m 17,7 C 19,3 km/h (3 Bft)
26.07.2016 14:57 23,6 C 23,7 C 68 % 1016,3 hPa 0,0 mm 12,3 km/h (3 Bft) O-NO 69 0 min 0,000 mm 2,0 UV-I 237 W/m 17,3 C 16,1 km/h (3 Bft)
26.07.2016 14:58 23,3 C 23,6 C 71 % 1016,2 hPa 0,0 mm 7,3 km/h (2 Bft) NO 54 0 min 0,000 mm 1,9 UV-I 214 W/m 17,7 C 11,3 km/h (2 Bft)
26.07.2016 14:59 23,2 C 23,3 C 70 % 1016,2 hPa 0,0 mm 6,3 km/h (2 Bft) NO 39 0 min 0,000 mm 1,9 UV-I 216 W/m 17,4 C 11,3 km/h (2 Bft)
26.07.2016 15:00 23,1 C 23,2 C 71 % 1016,3 hPa 0,0 mm 7,5 km/h (2 Bft) O-NO 78 0 min 0,000 mm 1,9 UV-I 223 W/m 17,5 C 11,3 km/h (2 Bft)
26.07.2016 15:01 22,9 C 23,1 C 71 % 1016,2 hPa 0,0 mm 7,6 km/h (2 Bft) O 91 0 min 0,432 mm 1,9 UV-I 229 W/m 17,4 C 14,5 km/h (3 Bft)
26.07.2016 15:02 22,8 C 22,9 C 71 % 1016,2 hPa 0,0 mm 6,0 km/h (2 Bft) O 95 0 min 0,000 mm 2,0 UV-I 236 W/m 17,3 C 11,3 km/h (2 Bft)
26.07.2016 15:03 22,7 C 22,8 C 72 % 1016,3 hPa 0,0 mm 9,7 km/h (2 Bft) O-NO 57 0 min 0,000 mm 2,1 UV-I 251 W/m 17,4 C 14,5 km/h (3 Bft)
26.07.2016 15:04 22,7 C 22,7 C 72 % 1016,2 hPa 0,0 mm 6,6 km/h (2 Bft) O-NO 74 0 min 0,000 mm 2,2 UV-I 250 W/m 17,4 C 9,7 km/h (2 Bft)
26.07.2016 15:05 22,7 C 22,7 C 73 % 1016,3 hPa 0,0 mm 6,2 km/h (2 Bft) NO 41 0 min 0,000 mm 2,3 UV-I 255 W/m 17,6 C 8,0 km/h (2 Bft)
26.07.2016 15:06 22,6 C 22,7 C 73 % 1016,2 hPa 0,0 mm 7,4 km/h (2 Bft) O 83 0 min 0,000 mm 2,4 UV-I 264 W/m 17,5 C 12,9 km/h (3 Bft)
26.07.2016 15:07 22,7 C 22,7 C 76 % 1016,3 hPa 0,0 mm 8,6 km/h (2 Bft) O-NO 69 0 min 0,000 mm 4,6 UV-I 264 W/m 18,2 C 11,3 km/h (2 Bft)
26.07.2016 15:08 22,7 C 22,7 C 75 % 1016,2 hPa 0,0 mm 4,1 km/h (1 Bft) O 98 1 min 0,000 mm 4,7 UV-I 895 W/m 18,0 C 6,4 km/h (2 Bft)
26.07.2016 15:09 22,8 C 22,8 C 76 % 1016,2 hPa 0,0 mm 3,9 km/h (1 Bft) O-NO 71 1 min 0,000 mm 4,6 UV-I 875 W/m 18,3 C 8,0 km/h (2 Bft)
26.07.2016 15:10 22,9 C 22,9 C 76 % 1016,2 hPa 0,0 mm 5,0 km/h (1 Bft) O-SO 103 1 min 0,000 mm 4,5 UV-I 875 W/m 18,4 C 11,3 km/h (2 Bft)
26.07.2016 15:11 23,0 C 23,0 C 72 % 1016,2 hPa 0,0 mm 5,6 km/h (1 Bft) O-NO 61 1 min 0,000 mm 4,4 UV-I 849 W/m 17,7 C 12,9 km/h (3 Bft)
26.07.2016 15:12 23,1 C 23,1 C 73 % 1016,2 hPa 0,0 mm 9,7 km/h (2 Bft) O-NO 65 1 min 0,000 mm 4,2 UV-I 844 W/m 18,0 C 14,5 km/h (3 Bft)
26.07.2016 15:13 23,1 C 23,1 C 72 % 1016,1 hPa 0,0 mm 6,4 km/h (2 Bft) NO 51 1 min 0,000 mm 3,3 UV-I 844 W/m 17,8 C 9,7 km/h (2 Bft)
26.07.2016 15:14 23,1 C 23,1 C 74 % 1016,1 hPa 0,0 mm 5,8 km/h (2 Bft) NO 55 1 min 0,000 mm 2,6 UV-I 844 W/m 18,2 C 9,7 km/h (2 Bft)
26.07.2016 15:15 23,1 C 23,2 C 74 % 1016,1 hPa 0,0 mm 5,2 km/h (1 Bft) NO 51 0 min 0,000 mm 2,7 UV-I 248 W/m 18,2 C 6,4 km/h (2 Bft)
26.07.2016 15:16 23,1 C 23,1 C 72 % 1016,1 hPa 0,0 mm 4,4 km/h (1 Bft) O-NO 64 0 min 0,000 mm 2,2 UV-I 223 W/m 17,8 C 4,8 km/h (1 Bft)
26.07.2016 15:17 23,0 C 23,1 C 72 % 1016,1 hPa 0,0 mm 4,6 km/h (1 Bft) NO 48 0 min 0,000 mm 2,1 UV-I 206 W/m 17,7 C 6,4 km/h (2 Bft)
26.07.2016 15:18 22,9 C 23,0 C 72 % 1016,0 hPa 0,0 mm 3,2 km/h (1 Bft) O-NO 78 0 min 0,000 mm 2,1 UV-I 204 W/m 17,6 C 4,8 km/h (1 Bft)
26.07.2016 15:19 22,9 C 22,9 C 73 % 1016,1 hPa 0,0 mm 1,1 km/h (1 Bft) O-NO 78 0 min 0,000 mm 2,0 UV-I 200 W/m 17,8 C 3,2 km/h (1 Bft)
26.07.2016 15:20 22,8 C 22,9 C 74 % 1016,1 hPa 0,0 mm 1,5 km/h (1 Bft) O 90 0 min 0,000 mm 1,9 UV-I 190 W/m 17,9 C 3,2 km/h (1 Bft)
26.07.2016 15:21 22,7 C 22,8 C 70 % 1016,1 hPa 0,0 mm 1,1 km/h (1 Bft) O 90 0 min 0,000 mm 1,9 UV-I 179 W/m 16,9 C 3,2 km/h (1 Bft)
26.07.2016 15:22 22,6 C 22,7 C 73 % 1016,0 hPa 0,0 mm 1,1 km/h (1 Bft) O-SO 117 0 min 0,000 mm 1,9 UV-I 181 W/m 17,5 C 3,2 km/h (1 Bft)
26.07.2016 15:23 22,6 C 22,6 C 72 % 1016,1 hPa 0,0 mm 0,9 km/h (0 Bft) O-SO 117 0 min 0,000 mm 1,9 UV-I 183 W/m 17,3 C 3,2 km/h (1 Bft)
26.07.2016 15:24 22,6 C 22,6 C 74 % 1016,0 hPa 0,0 mm 1,7 km/h (1 Bft) O-SO 113 0 min 0,000 mm 2,0 UV-I 185 W/m 17,7 C 3,2 km/h (1 Bft)
26.07.2016 15:25 22,5 C 22,6 C 74 % 1016,0 hPa 0,0 mm 1,9 km/h (1 Bft) O 88 0 min 0,000 mm 2,0 UV-I 185 W/m 17,6 C 4,8 km/h (1 Bft)
26.07.2016 15:26 22,5 C 22,5 C 73 % 1016,1 hPa 0,0 mm 3,3 km/h (1 Bft) O 88 0 min 0,000 mm 2,1 UV-I 188 W/m 17,4 C 4,8 km/h (1 Bft)
26.07.2016 15:27 22,5 C 22,5 C 73 % 1016,1 hPa 0,0 mm 3,4 km/h (1 Bft) O 95 0 min 0,000 mm 2,1 UV-I 193 W/m 17,4 C 4,8 km/h (1 Bft)
26.07.2016 15:28 22,4 C 22,5 C 73 % 1016,1 hPa 0,0 mm 1,7 km/h (1 Bft) O 95 0 min 0,000 mm 2,1 UV-I 190 W/m 17,3 C 3,2 km/h (1 Bft)
26.07.2016 15:29 22,4 C 22,4 C 74 % 1016,0 hPa 0,0 mm 2,5 km/h (1 Bft) O 95 0 min 0,000 mm 2,1 UV-I 188 W/m 17,5 C 3,2 km/h (1 Bft)
26.07.2016 15:30 22,4 C 22,4 C 74 % 1016,0 hPa 0,0 mm 2,8 km/h (1 Bft) O 95 0 min 0,000 mm 2,1 UV-I 188 W/m 17,5 C 3,2 km/h (1 Bft)
26.07.2016 15:31 22,3 C 22,4 C 76 % 1016,0 hPa 0,0 mm 2,1 km/h (1 Bft) O 94 0 min 0,000 mm 2,1 UV-I 188 W/m 17,9 C 3,2 km/h (1 Bft)
26.07.2016 15:32 22,3 C 22,3 C 76 % 1016,1 hPa 0,0 mm 2,5 km/h (1 Bft) O 94 0 min 0,000 mm 2,1 UV-I 188 W/m 17,9 C 3,2 km/h (1 Bft)
26.07.2016 15:33 22,3 C 22,3 C 78 % 1016,0 hPa 0,0 mm 3,7 km/h (1 Bft) O-NO 69 0 min 0,000 mm 2,1 UV-I 190 W/m 18,3 C 6,4 km/h (2 Bft)
26.07.2016 15:34 22,2 C 22,3 C 79 % 1016,0 hPa 0,0 mm 1,9 km/h (1 Bft) O-NO 69 0 min 0,000 mm 2,2 UV-I 202 W/m 18,4 C 3,2 km/h (1 Bft)
26.07.2016 15:35 22,1 C 22,2 C 78 % 1016,0 hPa 0,0 mm 0,9 km/h (0 Bft) O-NO 69 0 min 0,000 mm 2,3 UV-I 220 W/m 18,1 C 1,6 km/h (1 Bft)
26.07.2016 15:36 22,1 C 22,2 C 78 % 1016,0 hPa 0,0 mm 2,9 km/h (1 Bft) O-NO 67 0 min 0,000 mm 2,6 UV-I 262 W/m 18,1 C 6,4 km/h (2 Bft)
26.07.2016 15:37 22,2 C 22,2 C 80 % 1016,0 hPa 0,0 mm 5,6 km/h (1 Bft) O-NO 76 0 min 0,000 mm 2,6 UV-I 262 W/m 18,6 C 8,0 km/h (2 Bft)
26.07.2016 15:38 22,3 C 22,3 C 80 % 1016,0 hPa 0,0 mm 4,8 km/h (1 Bft) O-NO 64 0 min 0,000 mm 2,5 UV-I 236 W/m 18,7 C 8,0 km/h (2 Bft)
26.07.2016 15:39 22,3 C 22,3 C 80 % 1016,0 hPa 0,0 mm 4,6 km/h (1 Bft) O-NO 72 0 min 0,000 mm 2,4 UV-I 232 W/m 18,7 C 6,4 km/h (2 Bft)
26.07.2016 15:40 22,2 C 22,3 C 80 % 1016,0 hPa 0,0 mm 4,0 km/h (1 Bft) O-NO 77 0 min 0,000 mm 2,3 UV-I 232 W/m 18,6 C 6,4 km/h (2 Bft)
26.07.2016 15:41 22,2 C 22,2 C 77 % 1016,1 hPa 0,0 mm 6,2 km/h (2 Bft) NO 41 0 min 0,000 mm 2,2 UV-I 223 W/m 18,0 C 11,3 km/h (2 Bft)
26.07.2016 15:42 22,3 C 22,3 C 75 % 1016,1 hPa 0,0 mm 6,0 km/h (2 Bft) NO 46 0 min 0,000 mm 2,1 UV-I 204 W/m 17,6 C 8,0 km/h (2 Bft)
26.07.2016 15:43 22,4 C 22,4 C 73 % 1016,1 hPa 0,0 mm 4,0 km/h (1 Bft) NO 49 0 min 0,000 mm 2,0 UV-I 197 W/m 17,3 C 6,4 km/h (2 Bft)
26.07.2016 15:44 22,4 C 22,4 C 72 % 1016,1 hPa 0,0 mm 4,0 km/h (1 Bft) O-NO 57 0 min 0,000 mm 2,0 UV-I 185 W/m 17,1 C 6,4 km/h (2 Bft)
26.07.2016 15:45 22,4 C 22,4 C 72 % 1016,1 hPa 0,0 mm 6,2 km/h (2 Bft) NO 51 0 min 0,000 mm 1,9 UV-I 179 W/m 17,1 C 8,0 km/h (2 Bft)
26.07.2016 15:46 22,4 C 22,4 C 73 % 1016,1 hPa 0,0 mm 5,4 km/h (1 Bft) NO 40 0 min 0,000 mm 1,9 UV-I 178 W/m 17,3 C 8,0 km/h (2 Bft)
26.07.2016 15:47 22,4 C 22,4 C 74 % 1016,1 hPa 0,0 mm 5,9 km/h (2 Bft) O-NO 64 0 min 0,000 mm 1,9 UV-I 178 W/m 17,5 C 8,0 km/h (2 Bft)
26.07.2016 15:48 22,3 C 22,4 C 76 % 1016,1 hPa 0,0 mm 4,8 km/h (1 Bft) O 98 0 min 0,000 mm 1,9 UV-I 179 W/m 17,9 C 8,0 km/h (2 Bft)
26.07.2016 15:49 22,2 C 22,3 C 75 % 1016,1 hPa 0,0 mm 3,1 km/h (1 Bft) O 80 0 min 0,000 mm 2,0 UV-I 181 W/m 17,5 C 6,4 km/h (2 Bft)
26.07.2016 15:50 22,1 C 22,2 C 77 % 1016,1 hPa 0,0 mm 4,8 km/h (1 Bft) O 86 0 min 0,000 mm 2,0 UV-I 185 W/m 17,9 C 9,7 km/h (2 Bft)
26.07.2016 15:51 22,1 C 22,1 C 76 % 1016,1 hPa 0,0 mm 1,4 km/h (1 Bft) O 92 0 min 0,000 mm 2,0 UV-I 185 W/m 17,7 C 3,2 km/h (1 Bft)
26.07.2016 15:52 21,9 C 22,1 C 75 % 1016,1 hPa 0,0 mm 3,8 km/h (1 Bft) O-SO 123 0 min 0,000 mm 2,0 UV-I 185 W/m 17,3 C 8,0 km/h (2 Bft)
26.07.2016 15:53 21,9 C 22,0 C 77 % 1016,1 hPa 0,0 mm 4,7 km/h (1 Bft) O-SO 109 0 min 0,000 mm 2,0 UV-I 181 W/m 17,7 C 9,7 km/h (2 Bft)
26.07.2016 15:54 21,9 C 21,9 C 73 % 1016,1 hPa 0,0 mm 4,0 km/h (1 Bft) O-NO 58 0 min 0,000 mm 2,0 UV-I 178 W/m 16,8 C 9,7 km/h (2 Bft)
26.07.2016 15:55 21,9 C 21,9 C 76 % 1016,1 hPa 0,0 mm 3,0 km/h (1 Bft) O 97 0 min 0,000 mm 1,9 UV-I 174 W/m 17,5 C 6,4 km/h (2 Bft)
26.07.2016 15:56 21,8 C 21,9 C 76 % 1016,1 hPa 0,0 mm 4,9 km/h (1 Bft) O-SO 109 0 min 0,000 mm 1,9 UV-I 167 W/m 17,4 C 8,0 km/h (2 Bft)
26.07.2016 15:57 21,8 C 21,8 C 75 % 1016,1 hPa 0,0 mm 3,6 km/h (1 Bft) O-NO 69 0 min 0,000 mm 1,8 UV-I 162 W/m 17,2 C 6,4 km/h (2 Bft)
26.07.2016 15:58 21,7 C 21,8 C 74 % 1016,1 hPa 0,0 mm 4,0 km/h (1 Bft) O-NO 73 0 min 0,000 mm 1,7 UV-I 153 W/m 16,9 C 6,4 km/h (2 Bft)
26.07.2016 15:59 21,7 C 21,7 C 80 % 1016,1 hPa 0,0 mm 5,5 km/h (1 Bft) O 90 0 min 0,000 mm 1,7 UV-I 144 W/m 18,1 C 8,0 km/h (2 Bft)
26.07.2016 16:00 21,6 C 21,7 C 78 % 1016,0 hPa 0,0 mm 3,8 km/h (1 Bft) O 82 0 min 0,000 mm 1,6 UV-I 135 W/m 17,6 C 6,4 km/h (2 Bft)
26.07.2016 16:01 21,5 C 21,6 C 74 % 1016,0 hPa 0,0 mm 2,0 km/h (1 Bft) O 80 0 min 0,178 mm 1,5 UV-I 127 W/m 16,7 C 3,2 km/h (1 Bft)
26.07.2016 16:02 21,4 C 21,5 C 75 % 1016,1 hPa 0,0 mm 2,4 km/h (1 Bft) O-NO 71 0 min 0,000 mm 1,4 UV-I 113 W/m 16,8 C 4,8 km/h (1 Bft)
26.07.2016 16:03 21,4 C 21,5 C 79 % 1016,1 hPa 0,0 mm 1,2 km/h (1 Bft) O-SO 109 0 min 0,000 mm 1,3 UV-I 109 W/m 17,6 C 3,2 km/h (1 Bft)
26.07.2016 16:04 21,4 C 21,4 C 77 % 1016,1 hPa 0,0 mm 3,8 km/h (1 Bft) O-SO 105 0 min 0,000 mm 1,2 UV-I 104 W/m 17,2 C 6,4 km/h (2 Bft)
26.07.2016 16:05 21,3 C 21,4 C 78 % 1016,1 hPa 0,0 mm 3,0 km/h (1 Bft) O-NO 65 0 min 0,000 mm 1,1 UV-I 97 W/m 17,3 C 4,8 km/h (1 Bft)
26.07.2016 16:06 21,2 C 21,3 C 78 % 1016,1 hPa 0,0 mm 1,9 km/h (1 Bft) O-NO 65 0 min 0,000 mm 1,1 UV-I 93 W/m 17,2 C 3,2 km/h (1 Bft)
26.07.2016 16:07 21,2 C 21,2 C 82 % 1015,9 hPa 0,0 mm 1,4 km/h (1 Bft) O-NO 65 0 min 0,000 mm 1,1 UV-I 91 W/m 18,0 C 3,2 km/h (1 Bft)
26.07.2016 16:08 21,1 C 21,2 C 80 % 1015,9 hPa 0,0 mm 3,6 km/h (1 Bft) O 88 0 min 0,000 mm 1,0 UV-I 83 W/m 17,5 C 6,4 km/h (2 Bft)
26.07.2016 16:09 21,1 C 21,1 C 81 % 1015,9 hPa 0,0 mm 2,0 km/h (1 Bft) O 88 0 min 0,000 mm 0,9 UV-I 79 W/m 17,7 C 3,2 km/h (1 Bft)
26.07.2016 16:10 20,9 C 21,1 C 82 % 1015,9 hPa 0,0 mm 3,4 km/h (1 Bft) O-NO 76 0 min 0,000 mm 0,9 UV-I 76 W/m 17,7 C 4,8 km/h (1 Bft)
26.07.2016 16:11 20,9 C 20,9 C 81 % 1015,9 hPa 0,0 mm 4,2 km/h (1 Bft) O 89 0 min 0,000 mm 0,9 UV-I 72 W/m 17,5 C 8,0 km/h (2 Bft)
26.07.2016 16:12 20,8 C 20,9 C 83 % 1015,9 hPa 0,0 mm 3,4 km/h (1 Bft) O 86 0 min 0,000 mm 0,8 UV-I 70 W/m 17,8 C 4,8 km/h (1 Bft)
26.07.2016 16:13 20,8 C 20,8 C 81 % 1015,9 hPa 0,0 mm 3,7 km/h (1 Bft) O 87 0 min 0,000 mm 0,8 UV-I 70 W/m 17,4 C 4,8 km/h (1 Bft)
26.07.2016 16:14 20,7 C 20,8 C 82 % 1015,9 hPa 0,0 mm 2,9 km/h (1 Bft) O-NO 75 0 min 0,000 mm 0,8 UV-I 72 W/m 17,5 C 3,2 km/h (1 Bft)
26.07.2016 16:15 20,6 C 20,7 C 86 % 1015,8 hPa 0,0 mm 1,7 km/h (1 Bft) O-NO 75 0 min 0,000 mm 0,8 UV-I 72 W/m 18,2 C 3,2 km/h (1 Bft)
26.07.2016 16:16 20,5 C 20,6 C 84 % 1015,8 hPa 0,0 mm 2,6 km/h (1 Bft) O 98 0 min 0,000 mm 0,8 UV-I 74 W/m 17,7 C 3,2 km/h (1 Bft)
26.07.2016 16:17 20,4 C 20,5 C 84 % 1015,8 hPa 0,2 mm 2,3 km/h (1 Bft) O 94 0 min 0,000 mm 0,8 UV-I 76 W/m 17,6 C 3,2 km/h (1 Bft)
26.07.2016 16:18 20,3 C 20,4 C 86 % 1015,9 hPa 0,0 mm 0,5 km/h (0 Bft) O 94 0 min 0,000 mm 0,8 UV-I 77 W/m 17,9 C 1,6 km/h (1 Bft)
26.07.2016 16:19 20,2 C 20,3 C 85 % 1015,9 hPa 0,0 mm 0,4 km/h (0 Bft) O 94 0 min 0,000 mm 0,8 UV-I 77 W/m 17,6 C 1,6 km/h (1 Bft)
26.07.2016 16:20 20,1 C 20,2 C 86 % 1015,9 hPa 0,0 mm 0,6 km/h (0 Bft) O 94 0 min 0,000 mm 0,7 UV-I 76 W/m 17,7 C 1,6 km/h (1 Bft)
26.07.2016 16:21 19,9 C 20,1 C 86 % 1015,9 hPa 0,4 mm 1,8 km/h (1 Bft) O 95 0 min 0,000 mm 0,7 UV-I 76 W/m 17,5 C 3,2 km/h (1 Bft)
26.07.2016 16:22 19,8 C 19,9 C 87 % 1015,9 hPa 0,8 mm 3,2 km/h (1 Bft) O-SO 121 0 min 0,000 mm 0,7 UV-I 76 W/m 17,6 C 4,8 km/h (1 Bft)
26.07.2016 16:23 19,7 C 19,8 C 88 % 1015,9 hPa 0,4 mm 3,6 km/h (1 Bft) SO 124 0 min 0,000 mm 0,7 UV-I 77 W/m 17,7 C 4,8 km/h (1 Bft)
26.07.2016 16:24 19,4 C 19,7 C 89 % 1015,9 hPa 0,2 mm 4,1 km/h (1 Bft) SO 124 0 min 0,000 mm 0,7 UV-I 77 W/m 17,5 C 4,8 km/h (1 Bft)
26.07.2016 16:25 19,3 C 19,4 C 90 % 1015,8 hPa 0,4 mm 3,9 km/h (1 Bft) O-SO 119 0 min 0,000 mm 0,7 UV-I 79 W/m 17,6 C 6,4 km/h (2 Bft)
26.07.2016 16:26 19,2 C 19,3 C 91 % 1015,8 hPa 0,0 mm 4,3 km/h (1 Bft) SO 136 0 min 0,000 mm 0,7 UV-I 79 W/m 17,7 C 4,8 km/h (1 Bft)
26.07.2016 16:27 19,1 C 19,2 C 91 % 1015,8 hPa 0,2 mm 3,7 km/h (1 Bft) SO 141 0 min 0,000 mm 0,6 UV-I 76 W/m 17,6 C 4,8 km/h (1 Bft)
26.07.2016 16:28 19,1 C 19,1 C 92 % 1015,8 hPa 0,0 mm 3,7 km/h (1 Bft) SO 144 0 min 0,000 mm 0,6 UV-I 67 W/m 17,8 C 4,8 km/h (1 Bft)
26.07.2016 16:29 19,1 C 19,1 C 92 % 1015,8 hPa 0,2 mm 3,8 km/h (1 Bft) SO 134 0 min 0,000 mm 0,5 UV-I 58 W/m 17,8 C 4,8 km/h (1 Bft)
26.07.2016 16:30 19,1 C 19,2 C 92 % 1015,8 hPa 0,0 mm 3,3 km/h (1 Bft) SO 134 0 min 0,000 mm 0,5 UV-I 53 W/m 17,8 C 4,8 km/h (1 Bft)
26.07.2016 16:31 19,1 C 19,2 C 92 % 1015,9 hPa 0,0 mm 2,5 km/h (1 Bft) SO 134 0 min 0,000 mm 0,0 UV-I 46 W/m 17,8 C 3,2 km/h (1 Bft)
26.07.2016 16:32 19,1 C 19,1 C 93 % 1015,9 hPa 0,4 mm 11,0 km/h (2 Bft) S-SO 161 0 min 0,000 mm 0,0 UV-I 44 W/m 17,9 C 20,9 km/h (4 Bft)
26.07.2016 16:33 19,0 C 19,1 C 88 % 1015,9 hPa 0,4 mm 13,1 km/h (3 Bft) S-SO 159 0 min 0,000 mm 0,0 UV-I 44 W/m 17,0 C 19,3 km/h (3 Bft)
26.07.2016 16:34 19,1 C 19,1 C 88 % 1016,0 hPa 0,4 mm 11,7 km/h (2 Bft) SO 140 0 min 0,000 mm 0,0 UV-I 44 W/m 17,1 C 14,5 km/h (3 Bft)
26.07.2016 16:35 19,2 C 19,2 C 81 % 1015,9 hPa 0,0 mm 8,6 km/h (2 Bft) S 171 0 min 0,000 mm 0,0 UV-I 44 W/m 15,9 C 11,3 km/h (2 Bft)
26.07.2016 16:36 19,2 C 19,2 C 85 % 1015,9 hPa 0,2 mm 9,2 km/h (2 Bft) O-SO 123 0 min 0,000 mm 0,0 UV-I 46 W/m 16,6 C 16,1 km/h (3 Bft)
26.07.2016 16:37 18,9 C 19,2 C 84 % 1015,9 hPa 0,2 mm 4,8 km/h (1 Bft) S-SO 149 0 min 0,000 mm 0,0 UV-I 47 W/m 16,1 C 9,7 km/h (2 Bft)
26.07.2016 16:38 18,8 C 18,9 C 84 % 1016,0 hPa 0,2 mm 2,5 km/h (1 Bft) O-SO 113 0 min 0,000 mm 0,0 UV-I 53 W/m 16,0 C 3,2 km/h (1 Bft)
26.07.2016 16:39 18,7 C 18,8 C 85 % 1015,9 hPa 0,6 mm 3,4 km/h (1 Bft) O 88 0 min 0,000 mm 0,0 UV-I 56 W/m 16,1 C 4,8 km/h (1 Bft)
26.07.2016 16:40 18,5 C 18,7 C 88 % 1016,0 hPa 0,6 mm 3,6 km/h (1 Bft) NO 51 0 min 0,000 mm 0,5 UV-I 60 W/m 16,5 C 4,8 km/h (1 Bft)
26.07.2016 16:41 18,3 C 18,5 C 88 % 1015,9 hPa 0,6 mm 3,4 km/h (1 Bft) O 95 0 min 0,000 mm 0,5 UV-I 63 W/m 16,3 C 4,8 km/h (1 Bft)
26.07.2016 16:42 18,2 C 18,3 C 89 % 1016,0 hPa 0,8 mm 5,8 km/h (2 Bft) SO 134 0 min 0,000 mm 0,5 UV-I 65 W/m 16,4 C 9,7 km/h (2 Bft)
26.07.2016 16:43 18,1 C 18,2 C 89 % 1016,0 hPa 0,4 mm 8,4 km/h (2 Bft) S-SO 150 0 min 0,000 mm 0,5 UV-I 67 W/m 16,3 C 14,5 km/h (3 Bft)
26.07.2016 16:44 17,9 C 18,1 C 89 % 1016,0 hPa 0,6 mm 8,1 km/h (2 Bft) SO 141 0 min 0,000 mm 0,5 UV-I 65 W/m 16,1 C 11,3 km/h (2 Bft)
26.07.2016 16:45 17,9 C 18,0 C 89 % 1015,9 hPa 0,2 mm 9,7 km/h (2 Bft) O 96 0 min 0,000 mm 0,5 UV-I 63 W/m 16,1 C 16,1 km/h (3 Bft)
26.07.2016 16:46 17,9 C 17,9 C 89 % 1015,9 hPa 0,2 mm 10,6 km/h (2 Bft) O 96 0 min 0,000 mm 0,5 UV-I 62 W/m 16,1 C 14,5 km/h (3 Bft)
26.07.2016 16:47 17,8 C 17,9 C 89 % 1016,0 hPa 0,0 mm 5,9 km/h (2 Bft) O 85 0 min 0,000 mm 0,5 UV-I 56 W/m 16,0 C 8,0 km/h (2 Bft)
26.07.2016 16:48 17,8 C 17,8 C 88 % 1016,1 hPa 0,0 mm 5,3 km/h (1 Bft) N-NO 26 0 min 0,000 mm 0,0 UV-I 44 W/m 15,8 C 9,7 km/h (2 Bft)
26.07.2016 16:49 17,8 C 17,8 C 89 % 1016,3 hPa 0,0 mm 9,9 km/h (2 Bft) N 5 0 min 0,000 mm 0,0 UV-I 23 W/m 16,0 C 16,1 km/h (3 Bft)
26.07.2016 16:50 17,8 C 17,8 C 89 % 1016,4 hPa 0,0 mm 7,8 km/h (2 Bft) O-NO 77 0 min 0,000 mm 0,0 UV-I 14 W/m 16,0 C 16,1 km/h (3 Bft)
26.07.2016 16:51 17,9 C 17,9 C 89 % 1016,5 hPa 0,0 mm 11,9 km/h (2 Bft) N-NO 13 0 min 0,000 mm 0,0 UV-I 9 W/m 16,1 C 17,7 km/h (3 Bft)
26.07.2016 16:52 17,9 C 17,9 C 90 % 1016,7 hPa 0,0 mm 12,0 km/h (2 Bft) NW 317 0 min 0,000 mm 0,0 UV-I 0 W/m 16,2 C 22,5 km/h (4 Bft)
26.07.2016 16:53 18,0 C 18,0 C 90 % 1016,9 hPa 0,0 mm 10,0 km/h (2 Bft) N 5 0 min 0,000 mm 0,0 UV-I 0 W/m 16,3 C 27,4 km/h (4 Bft)
26.07.2016 16:54 18,1 C 18,1 C 90 % 1016,9 hPa 0,8 mm 19,3 km/h (3 Bft) NO 50 0 min 0,000 mm 0,0 UV-I 0 W/m 16,4 C 27,4 km/h (4 Bft)
26.07.2016 16:55 17,9 C 18,1 C 90 % 1017,0 hPa 1,4 mm 20,0 km/h (4 Bft) N 5 0 min 0,000 mm 0,0 UV-I 0 W/m 16,2 C 32,2 km/h (5 Bft)
26.07.2016 16:56 17,8 C 17,9 C 89 % 1017,0 hPa 1,8 mm 11,6 km/h (2 Bft) NO 34 0 min 0,000 mm 0,0 UV-I 0 W/m 16,0 C 24,1 km/h (4 Bft)
26.07.2016 16:57 17,6 C 17,8 C 90 % 1017,5 hPa 1,2 mm 28,6 km/h (4 Bft) N 9 0 min 0,000 mm 0,0 UV-I 0 W/m 15,9 C 37,0 km/h (5 Bft)
26.07.2016 16:58 17,3 C 17,6 C 89 % 1017,4 hPa 2,6 mm 29,7 km/h (5 Bft) NO 40 0 min 0,000 mm 0,0 UV-I 0 W/m 15,5 C 45,1 km/h (6 Bft)
26.07.2016 16:59 17,1 C 17,3 C 88 % 1017,6 hPa 2,4 mm 24,3 km/h (4 Bft) N-NO 31 0 min 0,000 mm 0,0 UV-I 0 W/m 15,1 C 32,2 km/h (5 Bft)
26.07.2016 17:00 16,9 C 17,1 C 89 % 1017,4 hPa 1,6 mm 17,2 km/h (3 Bft) N-NO 15 0 min 0,050 mm 0,0 UV-I 5 W/m 15,1 C 37,0 km/h (5 Bft)
26.07.2016 17:01 16,7 C 16,9 C 89 % 1017,5 hPa 1,8 mm 18,9 km/h (3 Bft) N-NO 24 0 min 0,000 mm 0,0 UV-I 5 W/m 14,9 C 33,8 km/h (5 Bft)
26.07.2016 17:02 16,6 C 16,7 C 90 % 1017,2 hPa 1,8 mm 22,7 km/h (4 Bft) N 360 0 min 0,000 mm 0,0 UV-I 5 W/m 15,0 C 30,6 km/h (5 Bft)
26.07.2016 17:03 16,4 C 16,6 C 90 % 1017,2 hPa 1,2 mm 21,7 km/h (4 Bft) N-NW 333 0 min 0,000 mm 0,0 UV-I 5 W/m 14,8 C 32,2 km/h (5 Bft)
26.07.2016 17:04 16,3 C 16,4 C 91 % 1017,2 hPa 1,6 mm 15,4 km/h (3 Bft) N 360 0 min 0,000 mm 0,0 UV-I 5 W/m 14,8 C 22,5 km/h (4 Bft)
26.07.2016 17:05 16,2 C 16,3 C 92 % 1017,3 hPa 1,6 mm 5,4 km/h (1 Bft) N-NO 21 0 min 0,000 mm 0,0 UV-I 5 W/m 14,9 C 11,3 km/h (2 Bft)
26.07.2016 17:06 16,1 C 16,2 C 92 % 1017,6 hPa 0,8 mm 7,6 km/h (2 Bft) N-NO 32 0 min 0,000 mm 0,0 UV-I 5 W/m 14,8 C 12,9 km/h (3 Bft)
26.07.2016 17:07 16,1 C 16,1 C 92 % 1017,8 hPa 1,0 mm 13,5 km/h (3 Bft) N 5 0 min 0,000 mm 0,0 UV-I 5 W/m 14,8 C 24,1 km/h (4 Bft)
26.07.2016 17:08 16,0 C 16,1 C 91 % 1017,8 hPa 1,2 mm 10,5 km/h (2 Bft) N-NO 19 0 min 0,000 mm 0,0 UV-I 5 W/m 14,5 C 16,1 km/h (3 Bft)
26.07.2016 17:09 16,0 C 16,0 C 91 % 1017,8 hPa 1,2 mm 5,6 km/h (1 Bft) N-NO 15 0 min 0,000 mm 0,0 UV-I 5 W/m 14,5 C 12,9 km/h (3 Bft)
26.07.2016 17:10 16,0 C 16,0 C 91 % 1017,9 hPa 1,0 mm 5,8 km/h (2 Bft) N-NW 343 0 min 0,000 mm 0,0 UV-I 5 W/m 14,5 C 8,0 km/h (2 Bft)
26.07.2016 17:11 16,0 C 16,0 C 92 % 1017,9 hPa 0,8 mm 4,6 km/h (1 Bft) O-NO 71 0 min 0,000 mm 0,0 UV-I 5 W/m 14,7 C 9,7 km/h (2 Bft)
26.07.2016 17:12 15,9 C 16,0 C 92 % 1017,9 hPa 1,6 mm 3,3 km/h (1 Bft) O-NO 63 0 min 0,000 mm 0,0 UV-I 5 W/m 14,6 C 8,0 km/h (2 Bft)
26.07.2016 17:13 15,9 C 16,0 C 92 % 1017,9 hPa 0,8 mm 5,0 km/h (1 Bft) SO 125 0 min 0,000 mm 0,0 UV-I 5 W/m 14,6 C 6,4 km/h (2 Bft)
26.07.2016 17:14 15,9 C 15,9 C 92 % 1017,9 hPa 1,0 mm 5,4 km/h (1 Bft) S-SO 163 0 min 0,000 mm 0,0 UV-I 5 W/m 14,6 C 8,0 km/h (2 Bft)
26.07.2016 17:15 15,9 C 15,9 C 92 % 1017,8 hPa 1,0 mm 6,0 km/h (2 Bft) S-SO 150 0 min 0,000 mm 0,0 UV-I 5 W/m 14,6 C 9,7 km/h (2 Bft)
26.07.2016 17:16 15,8 C 15,9 C 93 % 1017,8 hPa 1,0 mm 3,2 km/h (1 Bft) S-SO 162 0 min 0,000 mm 0,0 UV-I 5 W/m 14,7 C 6,4 km/h (2 Bft)
26.07.2016 17:17 15,8 C 15,8 C 93 % 1017,8 hPa 1,0 mm 3,4 km/h (1 Bft) S-SO 163 0 min 0,000 mm 0,0 UV-I 5 W/m 14,7 C 6,4 km/h (2 Bft)
26.07.2016 17:18 15,8 C 15,8 C 93 % 1017,7 hPa 0,4 mm 4,6 km/h (1 Bft) S-SO 148 0 min 0,000 mm 0,0 UV-I 5 W/m 14,7 C 6,4 km/h (2 Bft)
26.07.2016 17:19 15,8 C 15,8 C 93 % 1017,7 hPa 0,8 mm 3,6 km/h (1 Bft) S-SO 150 0 min 0,000 mm 0,0 UV-I 5 W/m 14,7 C 4,8 km/h (1 Bft)
26.07.2016 17:20 15,7 C 15,8 C 93 % 1017,8 hPa 0,4 mm 2,3 km/h (1 Bft) SO 142 0 min 0,000 mm 0,0 UV-I 5 W/m 14,6 C 4,8 km/h (1 Bft)
26.07.2016 17:21 15,7 C 15,7 C 93 % 1017,8 hPa 0,4 mm 2,1 km/h (1 Bft) O-SO 107 0 min 0,000 mm 0,0 UV-I 5 W/m 14,6 C 3,2 km/h (1 Bft)
26.07.2016 17:22 15,7 C 15,7 C 93 % 1017,8 hPa 0,4 mm 1,9 km/h (1 Bft) S 185 0 min 0,000 mm 0,0 UV-I 5 W/m 14,6 C 3,2 km/h (1 Bft)
26.07.2016 17:23 15,7 C 15,7 C 93 % 1017,8 hPa 0,4 mm 3,8 km/h (1 Bft) S-SW 203 0 min 0,000 mm 0,0 UV-I 5 W/m 14,6 C 4,8 km/h (1 Bft)
26.07.2016 17:24 15,7 C 15,7 C 93 % 1017,9 hPa 0,6 mm 2,8 km/h (1 Bft) S-SO 163 0 min 0,000 mm 0,0 UV-I 5 W/m 14,6 C 6,4 km/h (2 Bft)
26.07.2016 17:25 15,7 C 15,7 C 94 % 1018,0 hPa 0,4 mm 8,1 km/h (2 Bft) SO 136 0 min 0,000 mm 0,0 UV-I 5 W/m 14,7 C 14,5 km/h (3 Bft)
26.07.2016 17:26 15,7 C 15,7 C 94 % 1018,0 hPa 0,4 mm 5,7 km/h (1 Bft) S-SO 159 0 min 0,000 mm 0,0 UV-I 5 W/m 14,7 C 8,0 km/h (2 Bft)
26.07.2016 17:27 15,7 C 15,8 C 94 % 1018,0 hPa 0,4 mm 5,1 km/h (1 Bft) S 186 0 min 0,000 mm 0,0 UV-I 5 W/m 14,7 C 8,0 km/h (2 Bft)
26.07.2016 17:28 15,7 C 15,7 C 94 % 1018,0 hPa 0,2 mm 7,1 km/h (2 Bft) S 171 0 min 0,000 mm 0,0 UV-I 5 W/m 14,7 C 12,9 km/h (3 Bft)
26.07.2016 17:29 15,7 C 15,7 C 94 % 1017,9 hPa 0,2 mm 6,7 km/h (2 Bft) S-SO 161 0 min 0,000 mm 0,0 UV-I 5 W/m 14,7 C 8,0 km/h (2 Bft)
26.07.2016 17:30 15,7 C 15,7 C 94 % 1017,9 hPa 0,2 mm 5,0 km/h (1 Bft) SO 144 0 min 0,000 mm 0,0 UV-I 5 W/m 14,7 C 8,0 km/h (2 Bft)
26.07.2016 17:31 15,7 C 15,7 C 94 % 1018,0 hPa 0,2 mm 2,5 km/h (1 Bft) SO 137 0 min 0,000 mm 0,0 UV-I 5 W/m 14,7 C 4,8 km/h (1 Bft)
26.07.2016 17:32 15,7 C 15,7 C 94 % 1018,0 hPa 0,2 mm 3,6 km/h (1 Bft) S 185 0 min 0,000 mm 0,0 UV-I 5 W/m 14,7 C 8,0 km/h (2 Bft)
26.07.2016 17:33 15,7 C 15,7 C 94 % 1018,0 hPa 0,2 mm 5,9 km/h (2 Bft) O-SO 123 0 min 0,000 mm 0,0 UV-I 5 W/m 14,7 C 8,0 km/h (2 Bft)
26.07.2016 17:34 15,7 C 15,7 C 94 % 1017,9 hPa 0,2 mm 4,5 km/h (1 Bft) S-SO 168 0 min 0,000 mm 0,0 UV-I 5 W/m 14,7 C 6,4 km/h (2 Bft)
26.07.2016 17:35 15,7 C 15,7 C 94 % 1017,9 hPa 0,2 mm 2,2 km/h (1 Bft) S-SW 195 0 min 0,000 mm 0,0 UV-I 5 W/m 14,7 C 4,8 km/h (1 Bft)
26.07.2016 17:36 15,7 C 15,7 C 94 % 1018,0 hPa 0,2 mm 4,6 km/h (1 Bft) S 190 0 min 0,000 mm 0,0 UV-I 5 W/m 14,7 C 6,4 km/h (2 Bft)
26.07.2016 17:37 15,7 C 15,7 C 94 % 1018,0 hPa 0,2 mm 4,2 km/h (1 Bft) SO 144 0 min 0,000 mm 0,0 UV-I 5 W/m 14,7 C 6,4 km/h (2 Bft)
26.07.2016 17:38 15,7 C 15,7 C 94 % 1018,0 hPa 0,2 mm 4,8 km/h (1 Bft) S-SW 200 0 min 0,000 mm 0,0 UV-I 5 W/m 14,7 C 8,0 km/h (2 Bft)
26.07.2016 17:39 15,7 C 15,7 C 94 % 1018,0 hPa 0,0 mm 4,3 km/h (1 Bft) S-SW 195 0 min 0,000 mm 0,0 UV-I 5 W/m 14,7 C 6,4 km/h (2 Bft)
26.07.2016 17:40 15,7 C 15,7 C 94 % 1018,0 hPa 0,2 mm 5,0 km/h (1 Bft) S-SW 198 0 min 0,000 mm 0,0 UV-I 5 W/m 14,7 C 8,0 km/h (2 Bft)
26.07.2016 17:41 15,7 C 15,7 C 94 % 1018,0 hPa 0,2 mm 4,4 km/h (1 Bft) S-SW 210 0 min 0,000 mm 0,0 UV-I 5 W/m 14,7 C 8,0 km/h (2 Bft)
26.07.2016 17:42 15,7 C 15,7 C 94 % 1018,0 hPa 0,0 mm 7,7 km/h (2 Bft) S 174 0 min 0,000 mm 0,0 UV-I 5 W/m 14,7 C 11,3 km/h (2 Bft)
26.07.2016 17:43 15,7 C 15,7 C 94 % 1018,0 hPa 0,2 mm 4,4 km/h (1 Bft) S-SW 201 0 min 0,000 mm 0,0 UV-I 5 W/m 14,7 C 8,0 km/h (2 Bft)
26.07.2016 17:44 15,7 C 15,7 C 94 % 1017,9 hPa 0,0 mm 3,5 km/h (1 Bft) S-SW 209 0 min 0,000 mm 0,0 UV-I 5 W/m 14,7 C 6,4 km/h (2 Bft)
26.07.2016 17:45 15,7 C 15,7 C 94 % 1018,0 hPa 0,2 mm 3,5 km/h (1 Bft) W-SW 250 0 min 0,000 mm 0,0 UV-I 5 W/m 14,7 C 6,4 km/h (2 Bft)
26.07.2016 17:46 15,7 C 15,7 C 94 % 1018,0 hPa 0,0 mm 3,2 km/h (1 Bft) W-SW 241 0 min 0,000 mm 0,0 UV-I 5 W/m 14,7 C 4,8 km/h (1 Bft)
26.07.2016 17:47 15,7 C 15,7 C 94 % 1018,0 hPa 0,0 mm 0,1 km/h (0 Bft) W-SW 241 0 min 0,000 mm 0,0 UV-I 5 W/m 14,7 C 1,6 km/h (1 Bft)
26.07.2016 17:48 15,7 C 15,7 C 94 % 1018,0 hPa 0,0 mm 1,3 km/h (1 Bft) SW 234 0 min 0,000 mm 0,0 UV-I 5 W/m 14,7 C 3,2 km/h (1 Bft)
26.07.2016 17:49 15,6 C 15,7 C 94 % 1018,0 hPa 0,0 mm 1,1 km/h (1 Bft) SW 236 0 min 0,000 mm 0,0 UV-I 5 W/m 14,6 C 3,2 km/h (1 Bft)
26.07.2016 17:50 15,6 C 15,6 C 94 % 1017,9 hPa 0,0 mm 1,1 km/h (1 Bft) SW 235 0 min 0,000 mm 0,0 UV-I 5 W/m 14,6 C 3,2 km/h (1 Bft)
26.07.2016 17:51 15,6 C 15,6 C 94 % 1017,8 hPa 0,0 mm 0,8 km/h (0 Bft) SW 235 0 min 0,000 mm 0,0 UV-I 5 W/m 14,6 C 1,6 km/h (1 Bft)
26.07.2016 17:52 15,6 C 15,6 C 94 % 1017,8 hPa 0,0 mm 0,1 km/h (0 Bft) SW 235 0 min 0,000 mm 0,0 UV-I 5 W/m 14,6 C 1,6 km/h (1 Bft)
26.07.2016 17:53 15,6 C 15,6 C 94 % 1017,8 hPa 0,0 mm 0,0 km/h (0 Bft) SW 235 0 min 0,000 mm 0,0 UV-I 5 W/m 14,6 C 0,0 km/h (0 Bft)
26.07.2016 17:54 15,6 C 15,6 C 94 % 1017,7 hPa 0,0 mm 0,4 km/h (0 Bft) SW 235 0 min 0,000 mm 0,0 UV-I 5 W/m 14,6 C 1,6 km/h (1 Bft)
26.07.2016 17:55 15,6 C 15,6 C 95 % 1017,8 hPa 0,2 mm 1,2 km/h (1 Bft) SW 235 0 min 0,000 mm 0,0 UV-I 5 W/m 14,8 C 3,2 km/h (1 Bft)
26.07.2016 17:56 15,6 C 15,6 C 95 % 1017,8 hPa 0,0 mm 2,5 km/h (1 Bft) W-SW 250 0 min 0,000 mm 0,0 UV-I 5 W/m 14,8 C 4,8 km/h (1 Bft)
26.07.2016 17:57 15,6 C 15,6 C 95 % 1017,8 hPa 0,0 mm 1,4 km/h (1 Bft) SW 230 0 min 0,000 mm 0,0 UV-I 5 W/m 14,8 C 3,2 km/h (1 Bft)
26.07.2016 17:58 15,6 C 15,6 C 95 % 1017,8 hPa 0,0 mm 3,4 km/h (1 Bft) S-SW 213 0 min 0,000 mm 0,0 UV-I 5 W/m 14,8 C 4,8 km/h (1 Bft)
26.07.2016 17:59 15,5 C 15,6 C 95 % 1017,7 hPa 0,0 mm 2,2 km/h (1 Bft) SW 231 0 min 0,000 mm 0,0 UV-I 7 W/m 14,7 C 4,8 km/h (1 Bft)
26.07.2016 18:00 15,6 C 15,6 C 95 % 1017,7 hPa 0,0 mm 2,3 km/h (1 Bft) W-SW 243 0 min 0,000 mm 0,0 UV-I 7 W/m 14,8 C 4,8 km/h (1 Bft)
26.07.2016 18:01 15,6 C 15,6 C 95 % 1017,7 hPa 0,0 mm 3,0 km/h (1 Bft) SW 236 0 min 0,000 mm 0,0 UV-I 7 W/m 14,8 C 4,8 km/h (1 Bft)
26.07.2016 18:02 15,6 C 15,6 C 94 % 1017,7 hPa 0,0 mm 2,6 km/h (1 Bft) W-SW 246 0 min 0,000 mm 0,0 UV-I 7 W/m 14,6 C 4,8 km/h (1 Bft)
26.07.2016 18:03 15,6 C 15,6 C 94 % 1017,7 hPa 0,0 mm 1,2 km/h (1 Bft) W-SW 246 0 min 0,000 mm 0,0 UV-I 7 W/m 14,6 C 3,2 km/h (1 Bft)
26.07.2016 18:04 15,6 C 15,6 C 95 % 1017,7 hPa 0,2 mm 3,4 km/h (1 Bft) SW 217 0 min 0,000 mm 0,0 UV-I 7 W/m 14,8 C 4,8 km/h (1 Bft)
26.07.2016 18:05 15,5 C 15,6 C 94 % 1017,7 hPa 0,0 mm 3,6 km/h (1 Bft) W-SW 238 0 min 0,000 mm 0,0 UV-I 7 W/m 14,5 C 4,8 km/h (1 Bft)
26.07.2016 18:06 15,6 C 15,6 C 94 % 1017,6 hPa 0,0 mm 1,3 km/h (1 Bft) W-SW 247 0 min 0,000 mm 0,0 UV-I 7 W/m 14,6 C 3,2 km/h (1 Bft)
26.07.2016 18:07 15,6 C 15,6 C 94 % 1017,6 hPa 0,0 mm 2,5 km/h (1 Bft) NW 309 0 min 0,000 mm 0,0 UV-I 7 W/m 14,6 C 4,8 km/h (1 Bft)
26.07.2016 18:08 15,6 C 15,6 C 94 % 1017,6 hPa 0,0 mm 2,7 km/h (1 Bft) S-SW 209 0 min 0,000 mm 0,0 UV-I 7 W/m 14,6 C 3,2 km/h (1 Bft)
26.07.2016 18:09 15,6 C 15,6 C 95 % 1017,5 hPa 0,0 mm 2,4 km/h (1 Bft) W 274 0 min 0,000 mm 0,0 UV-I 7 W/m 14,8 C 4,8 km/h (1 Bft)
26.07.2016 18:10 15,6 C 15,6 C 95 % 1017,5 hPa 0,0 mm 3,4 km/h (1 Bft) W 269 0 min 0,000 mm 0,0 UV-I 7 W/m 14,8 C 4,8 km/h (1 Bft)
26.07.2016 18:11 15,5 C 15,6 C 94 % 1017,5 hPa 0,0 mm 2,1 km/h (1 Bft) W 265 0 min 0,000 mm 0,0 UV-I 7 W/m 14,5 C 3,2 km/h (1 Bft)
26.07.2016 18:12 15,6 C 15,6 C 94 % 1017,4 hPa 0,0 mm 1,5 km/h (1 Bft) W 267 0 min 0,000 mm 0,0 UV-I 7 W/m 14,6 C 3,2 km/h (1 Bft)
26.07.2016 18:13 15,5 C 15,6 C 94 % 1017,4 hPa 0,0 mm 3,2 km/h (1 Bft) S 184 0 min 0,000 mm 0,0 UV-I 7 W/m 14,5 C 6,4 km/h (2 Bft)
26.07.2016 18:14 15,5 C 15,6 C 94 % 1017,3 hPa 0,0 mm 1,9 km/h (1 Bft) W-SW 250 0 min 0,000 mm 0,0 UV-I 7 W/m 14,5 C 3,2 km/h (1 Bft)
26.07.2016 18:15 15,6 C 15,6 C 94 % 1017,3 hPa 0,0 mm 3,9 km/h (1 Bft) W 267 0 min 0,000 mm 0,0 UV-I 7 W/m 14,6 C 6,4 km/h (2 Bft)
26.07.2016 18:16 15,5 C 15,6 C 95 % 1017,3 hPa 0,0 mm 3,3 km/h (1 Bft) W-NW 301 0 min 0,000 mm 0,0 UV-I 7 W/m 14,7 C 4,8 km/h (1 Bft)
26.07.2016 18:17 15,6 C 15,6 C 95 % 1017,4 hPa 0,0 mm 1,3 km/h (1 Bft) W-NW 301 0 min 0,000 mm 0,0 UV-I 7 W/m 14,8 C 1,6 km/h (1 Bft)
26.07.2016 18:18 15,5 C 15,6 C 94 % 1017,4 hPa 0,0 mm 1,9 km/h (1 Bft) W 275 0 min 0,000 mm 0,0 UV-I 7 W/m 14,5 C 3,2 km/h (1 Bft)
26.07.2016 18:19 15,5 C 15,5 C 94 % 1017,4 hPa 0,0 mm 1,3 km/h (1 Bft) W 275 0 min 0,000 mm 0,0 UV-I 7 W/m 14,5 C 1,6 km/h (1 Bft)
26.07.2016 18:20 15,5 C 15,5 C 95 % 1017,3 hPa 0,0 mm 1,1 km/h (1 Bft) W 271 0 min 0,000 mm 0,0 UV-I 7 W/m 14,7 C 3,2 km/h (1 Bft)
26.07.2016 18:21 15,5 C 15,5 C 95 % 1017,3 hPa 0,0 mm 0,7 km/h (0 Bft) W 271 0 min 0,000 mm 0,0 UV-I 7 W/m 14,7 C 3,2 km/h (1 Bft)
26.07.2016 18:22 15,4 C 15,5 C 95 % 1017,3 hPa 0,0 mm 1,7 km/h (1 Bft) W 271 0 min 0,000 mm 0,0 UV-I 9 W/m 14,6 C 3,2 km/h (1 Bft)
26.07.2016 18:23 15,4 C 15,4 C 95 % 1017,3 hPa 0,0 mm 1,6 km/h (1 Bft) W 271 0 min 0,000 mm 0,0 UV-I 9 W/m 14,6 C 3,2 km/h (1 Bft)
26.07.2016 18:24 15,4 C 15,4 C 95 % 1017,3 hPa 0,0 mm 1,6 km/h (1 Bft) W 271 0 min 0,000 mm 0,0 UV-I 9 W/m 14,6 C 3,2 km/h (1 Bft)
26.07.2016 18:25 15,4 C 15,4 C 95 % 1017,3 hPa 0,0 mm 1,5 km/h (1 Bft) W 272 0 min 0,000 mm 0,0 UV-I 9 W/m 14,6 C 3,2 km/h (1 Bft)
26.07.2016 18:26 15,4 C 15,4 C 95 % 1017,3 hPa 0,0 mm 1,4 km/h (1 Bft) W 272 0 min 0,000 mm 0,0 UV-I 9 W/m 14,6 C 3,2 km/h (1 Bft)
26.07.2016 18:27 15,4 C 15,4 C 95 % 1017,3 hPa 0,0 mm 2,7 km/h (1 Bft) W-NW 294 0 min 0,000 mm 0,0 UV-I 9 W/m 14,6 C 4,8 km/h (1 Bft)
26.07.2016 18:28 15,3 C 15,4 C 95 % 1017,3 hPa 0,0 mm 3,2 km/h (1 Bft) W-SW 248 0 min 0,000 mm 0,0 UV-I 9 W/m 14,5 C 6,4 km/h (2 Bft)
26.07.2016 18:29 15,4 C 15,4 C 95 % 1017,3 hPa 0,0 mm 3,2 km/h (1 Bft) S-SW 202 0 min 0,000 mm 0,0 UV-I 9 W/m 14,6 C 6,4 km/h (2 Bft)
26.07.2016 18:30 15,3 C 15,4 C 95 % 1017,4 hPa 0,0 mm 3,1 km/h (1 Bft) W-SW 247 0 min 0,000 mm 0,0 UV-I 9 W/m 14,5 C 4,8 km/h (1 Bft)
26.07.2016 18:31 15,4 C 15,4 C 95 % 1017,4 hPa 0,0 mm 2,9 km/h (1 Bft) SW 215 0 min 0,000 mm 0,0 UV-I 9 W/m 14,6 C 6,4 km/h (2 Bft)
26.07.2016 18:32 15,4 C 15,4 C 95 % 1017,4 hPa 0,0 mm 1,0 km/h (0 Bft) W-NW 295 0 min 0,000 mm 0,0 UV-I 9 W/m 14,6 C 4,8 km/h (1 Bft)
26.07.2016 18:33 15,4 C 15,4 C 95 % 1017,4 hPa 0,0 mm 2,5 km/h (1 Bft) W 267 0 min 0,000 mm 0,0 UV-I 9 W/m 14,6 C 4,8 km/h (1 Bft)
26.07.2016 18:34 15,3 C 15,4 C 95 % 1017,4 hPa 0,0 mm 4,8 km/h (1 Bft) W-SW 250 0 min 0,000 mm 0,0 UV-I 11 W/m 14,5 C 6,4 km/h (2 Bft)
26.07.2016 18:35 15,4 C 15,4 C 95 % 1017,4 hPa 0,0 mm 3,8 km/h (1 Bft) W 265 0 min 0,000 mm 0,0 UV-I 11 W/m 14,6 C 8,0 km/h (2 Bft)
26.07.2016 18:36 15,4 C 15,4 C 95 % 1017,4 hPa 0,0 mm 3,6 km/h (1 Bft) W-SW 243 0 min 0,000 mm 0,0 UV-I 11 W/m 14,6 C 4,8 km/h (1 Bft)
26.07.2016 18:37 15,4 C 15,4 C 95 % 1017,3 hPa 0,0 mm 3,3 km/h (1 Bft) W 280 0 min 0,000 mm 0,0 UV-I 11 W/m 14,6 C 4,8 km/h (1 Bft)
26.07.2016 18:38 15,4 C 15,4 C 95 % 1017,4 hPa 0,0 mm 3,3 km/h (1 Bft) W-SW 252 0 min 0,000 mm 0,0 UV-I 11 W/m 14,6 C 4,8 km/h (1 Bft)
26.07.2016 18:39 15,4 C 15,4 C 95 % 1017,4 hPa 0,0 mm 2,7 km/h (1 Bft) SW 223 0 min 0,000 mm 0,0 UV-I 11 W/m 14,6 C 4,8 km/h (1 Bft)
26.07.2016 18:40 15,4 C 15,4 C 95 % 1017,4 hPa 0,0 mm 2,5 km/h (1 Bft) W-SW 243 0 min 0,000 mm 0,0 UV-I 11 W/m 14,6 C 3,2 km/h (1 Bft)
26.07.2016 18:41 15,4 C 15,4 C 95 % 1017,4 hPa 0,0 mm 2,7 km/h (1 Bft) W 280 0 min 0,000 mm 0,0 UV-I 12 W/m 14,6 C 4,8 km/h (1 Bft)
26.07.2016 18:42 15,4 C 15,4 C 95 % 1017,5 hPa 0,0 mm 2,2 km/h (1 Bft) W-SW 247 0 min 0,000 mm 0,0 UV-I 12 W/m 14,6 C 3,2 km/h (1 Bft)
26.07.2016 18:43 15,4 C 15,4 C 95 % 1017,4 hPa 0,0 mm 3,4 km/h (1 Bft) W-SW 250 0 min 0,000 mm 0,0 UV-I 12 W/m 14,6 C 8,0 km/h (2 Bft)
26.07.2016 18:44 15,4 C 15,4 C 95 % 1017,4 hPa 0,0 mm 6,1 km/h (2 Bft) W 260 0 min 0,000 mm 0,0 UV-I 12 W/m 14,6 C 9,7 km/h (2 Bft)
26.07.2016 18:45 15,4 C 15,4 C 95 % 1017,5 hPa 0,0 mm 3,6 km/h (1 Bft) W 264 0 min 0,000 mm 0,0 UV-I 12 W/m 14,6 C 6,4 km/h (2 Bft)
26.07.2016 18:46 15,4 C 15,4 C 94 % 1017,6 hPa 0,0 mm 1,3 km/h (1 Bft) W 264 0 min 0,000 mm 0,0 UV-I 12 W/m 14,4 C 3,2 km/h (1 Bft)
26.07.2016 18:47 15,4 C 15,5 C 95 % 1017,6 hPa 0,0 mm 2,5 km/h (1 Bft) N 355 0 min 0,000 mm 0,0 UV-I 12 W/m 14,6 C 4,8 km/h (1 Bft)
26.07.2016 18:48 15,4 C 15,4 C 95 % 1017,6 hPa 0,0 mm 1,7 km/h (1 Bft) NO 54 0 min 0,000 mm 0,0 UV-I 12 W/m 14,6 C 3,2 km/h (1 Bft)
26.07.2016 18:49 15,4 C 15,4 C 95 % 1017,6 hPa 0,0 mm 2,1 km/h (1 Bft) O-SO 102 0 min 0,000 mm 0,0 UV-I 12 W/m 14,6 C 3,2 km/h (1 Bft)
26.07.2016 18:50 15,4 C 15,4 C 95 % 1017,5 hPa 0,0 mm 0,9 km/h (0 Bft) O-SO 104 0 min 0,000 mm 0,0 UV-I 12 W/m 14,6 C 1,6 km/h (1 Bft)
26.07.2016 18:51 15,4 C 15,4 C 95 % 1017,6 hPa 0,0 mm 0,1 km/h (0 Bft) O-SO 104 0 min 0,000 mm 0,0 UV-I 12 W/m 14,6 C 1,6 km/h (1 Bft)
26.07.2016 18:52 15,4 C 15,4 C 95 % 1017,6 hPa 0,0 mm 1,9 km/h (1 Bft) N 360 0 min 0,000 mm 0,0 UV-I 12 W/m 14,6 C 3,2 km/h (1 Bft)
26.07.2016 18:53 15,4 C 15,4 C 95 % 1017,5 hPa 0,0 mm 3,2 km/h (1 Bft) W-NW 301 0 min 0,000 mm 0,0 UV-I 12 W/m 14,6 C 4,8 km/h (1 Bft)
26.07.2016 18:54 15,4 C 15,4 C 95 % 1017,6 hPa 0,0 mm 2,7 km/h (1 Bft) W-SW 253 0 min 0,000 mm 0,0 UV-I 12 W/m 14,6 C 4,8 km/h (1 Bft)
26.07.2016 18:55 15,4 C 15,4 C 95 % 1017,5 hPa 0,0 mm 1,8 km/h (1 Bft) SW 232 0 min 0,000 mm 0,0 UV-I 12 W/m 14,6 C 3,2 km/h (1 Bft)
26.07.2016 18:56 15,4 C 15,4 C 95 % 1017,5 hPa 0,0 mm 1,5 km/h (1 Bft) SW 233 0 min 0,000 mm 0,0 UV-I 14 W/m 14,6 C 3,2 km/h (1 Bft)
26.07.2016 18:57 15,4 C 15,4 C 95 % 1017,5 hPa 0,0 mm 0,3 km/h (0 Bft) SW 233 0 min 0,000 mm 0,0 UV-I 14 W/m 14,6 C 1,6 km/h (1 Bft)
26.07.2016 18:58 15,3 C 15,4 C 95 % 1017,5 hPa 0,2 mm 0,3 km/h (0 Bft) SW 233 0 min 0,000 mm 0,0 UV-I 14 W/m 14,5 C 1,6 km/h (1 Bft)
26.07.2016 18:59 15,3 C 15,3 C 95 % 1017,5 hPa 0,0 mm 0,2 km/h (0 Bft) SW 233 0 min 0,000 mm 0,0 UV-I 14 W/m 14,5 C 1,6 km/h (1 Bft)
26.07.2016 19:00 15,3 C 15,3 C 95 % 1017,5 hPa 0,0 mm 1,1 km/h (1 Bft) N-NW 334 0 min 0,000 mm 0,0 UV-I 14 W/m 14,5 C 3,2 km/h (1 Bft)
26.07.2016 19:01 15,3 C 15,3 C 95 % 1017,5 hPa 0,0 mm 0,7 km/h (0 Bft) N-NW 333 0 min 0,000 mm 0,0 UV-I 14 W/m 14,5 C 1,6 km/h (1 Bft)
26.07.2016 19:02 15,3 C 15,3 C 95 % 1017,5 hPa 0,0 mm 1,7 km/h (1 Bft) W-NW 289 0 min 0,000 mm 0,0 UV-I 14 W/m 14,5 C 4,8 km/h (1 Bft)
26.07.2016 19:03 15,3 C 15,3 C 95 % 1017,5 hPa 0,0 mm 1,7 km/h (1 Bft) SW 221 0 min 0,000 mm 0,0 UV-I 14 W/m 14,5 C 3,2 km/h (1 Bft)
26.07.2016 19:04 15,3 C 15,3 C 95 % 1017,5 hPa 0,0 mm 0,3 km/h (0 Bft) SW 221 0 min 0,000 mm 0,0 UV-I 14 W/m 14,5 C 1,6 km/h (1 Bft)
26.07.2016 19:05 15,3 C 15,3 C 95 % 1017,5 hPa 0,0 mm 0,5 km/h (0 Bft) SW 221 0 min 0,000 mm 0,0 UV-I 14 W/m 14,5 C 1,6 km/h (1 Bft)
26.07.2016 19:06 15,3 C 15,3 C 95 % 1017,6 hPa 0,0 mm 0,4 km/h (0 Bft) SW 221 0 min 0,000 mm 0,0 UV-I 14 W/m 14,5 C 1,6 km/h (1 Bft)
26.07.2016 19:07 15,3 C 15,3 C 95 % 1017,6 hPa 0,0 mm 0,1 km/h (0 Bft) SW 221 0 min 0,000 mm 0,0 UV-I 14 W/m 14,5 C 1,6 km/h (1 Bft)
26.07.2016 19:08 15,3 C 15,3 C 95 % 1017,6 hPa 0,0 mm 0,1 km/h (0 Bft) SW 221 0 min 0,000 mm 0,0 UV-I 16 W/m 14,5 C 1,6 km/h (1 Bft)
26.07.2016 19:09 15,3 C 15,3 C 95 % 1017,6 hPa 0,0 mm 0,7 km/h (0 Bft) SW 221 0 min 0,000 mm 0,0 UV-I 16 W/m 14,5 C 1,6 km/h (1 Bft)
26.07.2016 19:10 15,3 C 15,3 C 95 % 1017,5 hPa 0,0 mm 1,0 km/h (0 Bft) SW 228 0 min 0,000 mm 0,0 UV-I 18 W/m 14,5 C 3,2 km/h (1 Bft)
26.07.2016 19:11 15,3 C 15,3 C 95 % 1017,5 hPa 0,0 mm 0,7 km/h (0 Bft) SW 228 0 min 0,000 mm 0,0 UV-I 18 W/m 14,5 C 1,6 km/h (1 Bft)
26.07.2016 19:12 15,3 C 15,3 C 95 % 1017,5 hPa 0,2 mm 0,5 km/h (0 Bft) SW 227 0 min 0,000 mm 0,0 UV-I 19 W/m 14,5 C 1,6 km/h (1 Bft)
26.07.2016 19:13 15,3 C 15,3 C 95 % 1017,5 hPa 0,0 mm 0,5 km/h (0 Bft) SW 227 0 min 0,000 mm 0,0 UV-I 19 W/m 14,5 C 1,6 km/h (1 Bft)
26.07.2016 19:14 15,3 C 15,3 C 95 % 1017,5 hPa 0,0 mm 0,4 km/h (0 Bft) SW 227 0 min 0,000 mm 0,0 UV-I 19 W/m 14,5 C 1,6 km/h (1 Bft)
26.07.2016 19:15 15,3 C 15,3 C 95 % 1017,4 hPa 0,0 mm 0,0 km/h (0 Bft) SW 227 0 min 0,000 mm 0,0 UV-I 21 W/m 14,5 C 0,0 km/h (0 Bft)
26.07.2016 19:16 15,3 C 15,3 C 95 % 1017,4 hPa 0,0 mm 0,1 km/h (0 Bft) SW 227 0 min 0,000 mm 0,0 UV-I 23 W/m 14,5 C 1,6 km/h (1 Bft)
26.07.2016 19:17 15,3 C 15,3 C 95 % 1017,4 hPa 0,0 mm 0,0 km/h (0 Bft) SW 227 0 min 0,000 mm 0,0 UV-I 23 W/m 14,5 C 0,0 km/h (0 Bft)
26.07.2016 19:18 15,3 C 15,3 C 95 % 1017,4 hPa 0,0 mm 1,7 km/h (1 Bft) SW 222 0 min 0,000 mm 0,0 UV-I 23 W/m 14,5 C 3,2 km/h (1 Bft)
26.07.2016 19:19 15,3 C 15,3 C 95 % 1017,4 hPa 0,0 mm 0,6 km/h (0 Bft) SW 222 0 min 0,000 mm 0,0 UV-I 25 W/m 14,5 C 1,6 km/h (1 Bft)
26.07.2016 19:20 15,3 C 15,3 C 95 % 1017,4 hPa 0,0 mm 0,2 km/h (0 Bft) SW 222 0 min 0,000 mm 0,0 UV-I 25 W/m 14,5 C 1,6 km/h (1 Bft)
26.07.2016 19:21 15,3 C 15,3 C 95 % 1017,4 hPa 0,0 mm 2,4 km/h (1 Bft) N 349 0 min 0,000 mm 0,0 UV-I 25 W/m 14,5 C 4,8 km/h (1 Bft)
26.07.2016 19:22 15,3 C 15,3 C 95 % 1017,4 hPa 0,0 mm 0,6 km/h (0 Bft) N 349 0 min 0,000 mm 0,0 UV-I 26 W/m 14,5 C 1,6 km/h (1 Bft)
26.07.2016 19:23 15,3 C 15,3 C 95 % 1017,5 hPa 0,2 mm 0,7 km/h (0 Bft) N 349 0 min 0,000 mm 0,0 UV-I 26 W/m 14,5 C 3,2 km/h (1 Bft)
26.07.2016 19:24 15,3 C 15,3 C 95 % 1017,4 hPa 0,0 mm 0,6 km/h (0 Bft) N-NW 348 0 min 0,000 mm 0,0 UV-I 26 W/m 14,5 C 1,6 km/h (1 Bft)
26.07.2016 19:25 15,3 C 15,3 C 95 % 1017,5 hPa 0,0 mm 1,9 km/h (1 Bft) N-NW 348 0 min 0,000 mm 0,0 UV-I 26 W/m 14,5 C 3,2 km/h (1 Bft)
26.07.2016 19:26 15,3 C 15,3 C 95 % 1017,4 hPa 0,0 mm 1,8 km/h (1 Bft) N-NW 336 0 min 0,000 mm 0,0 UV-I 26 W/m 14,5 C 3,2 km/h (1 Bft)
26.07.2016 19:27 15,3 C 15,3 C 95 % 1017,5 hPa 0,0 mm 1,5 km/h (1 Bft) N-NW 329 0 min 0,000 mm 0,0 UV-I 26 W/m 14,5 C 1,6 km/h (1 Bft)
26.07.2016 19:28 15,3 C 15,3 C 95 % 1017,5 hPa 0,0 mm 1,9 km/h (1 Bft) N-NW 329 0 min 0,000 mm 0,0 UV-I 26 W/m 14,5 C 3,2 km/h (1 Bft)
26.07.2016 19:29 15,3 C 15,3 C 95 % 1017,5 hPa 0,0 mm 1,6 km/h (1 Bft) NW 323 0 min 0,000 mm 0,0 UV-I 26 W/m 14,5 C 3,2 km/h (1 Bft)
26.07.2016 19:30 15,3 C 15,3 C 95 % 1017,5 hPa 0,0 mm 1,2 km/h (1 Bft) NW 323 0 min 0,000 mm 0,0 UV-I 26 W/m 14,5 C 1,6 km/h (1 Bft)
26.07.2016 19:31 15,4 C 15,4 C 96 % 1017,5 hPa 0,0 mm 1,8 km/h (1 Bft) NW 309 0 min 0,000 mm 0,0 UV-I 26 W/m 14,8 C 3,2 km/h (1 Bft)
26.07.2016 19:32 15,4 C 15,4 C 95 % 1017,6 hPa 0,0 mm 3,2 km/h (1 Bft) W-SW 256 0 min 0,000 mm 0,0 UV-I 26 W/m 14,6 C 4,8 km/h (1 Bft)
26.07.2016 19:33 15,4 C 15,4 C 95 % 1017,6 hPa 0,0 mm 2,5 km/h (1 Bft) W 259 0 min 0,000 mm 0,0 UV-I 26 W/m 14,6 C 3,2 km/h (1 Bft)
26.07.2016 19:34 15,4 C 15,4 C 95 % 1017,6 hPa 0,0 mm 2,6 km/h (1 Bft) W 266 0 min 0,000 mm 0,0 UV-I 26 W/m 14,6 C 3,2 km/h (1 Bft)
26.07.2016 19:35 15,4 C 15,5 C 95 % 1017,6 hPa 0,0 mm 0,9 km/h (0 Bft) W 263 0 min 0,000 mm 0,0 UV-I 25 W/m 14,6 C 3,2 km/h (1 Bft)
26.07.2016 19:36 15,4 C 15,4 C 95 % 1017,6 hPa 0,0 mm 0,0 km/h (0 Bft) W 263 0 min 0,000 mm 0,0 UV-I 25 W/m 14,6 C 0,0 km/h (0 Bft)
26.07.2016 19:37 15,4 C 15,4 C 95 % 1017,6 hPa 0,0 mm 0,0 km/h (0 Bft) W 263 0 min 0,000 mm 0,0 UV-I 25 W/m 14,6 C 0,0 km/h (0 Bft)
26.07.2016 19:38 15,4 C 15,4 C 95 % 1017,6 hPa 0,0 mm 0,0 km/h (0 Bft) W 263 0 min 0,000 mm 0,0 UV-I 25 W/m 14,6 C 0,0 km/h (0 Bft)
26.07.2016 19:39 15,4 C 15,4 C 95 % 1017,6 hPa 0,0 mm 0,5 km/h (0 Bft) W 263 0 min 0,000 mm 0,0 UV-I 23 W/m 14,6 C 1,6 km/h (1 Bft)
26.07.2016 19:40 15,4 C 15,4 C 95 % 1017,7 hPa 0,0 mm 2,3 km/h (1 Bft) W 279 0 min 0,000 mm 0,0 UV-I 21 W/m 14,6 C 4,8 km/h (1 Bft)
26.07.2016 19:41 15,4 C 15,4 C 95 % 1017,7 hPa 0,0 mm 2,7 km/h (1 Bft) S 171 0 min 0,000 mm 0,0 UV-I 21 W/m 14,6 C 4,8 km/h (1 Bft)
26.07.2016 19:42 15,4 C 15,4 C 95 % 1017,7 hPa 0,0 mm 3,4 km/h (1 Bft) W 272 0 min 0,000 mm 0,0 UV-I 21 W/m 14,6 C 4,8 km/h (1 Bft)
26.07.2016 19:43 15,4 C 15,4 C 95 % 1017,7 hPa 0,0 mm 5,9 km/h (2 Bft) W 260 0 min 0,000 mm 0,0 UV-I 21 W/m 14,6 C 9,7 km/h (2 Bft)
26.07.2016 19:44 15,4 C 15,5 C 95 % 1017,8 hPa 0,0 mm 4,8 km/h (1 Bft) W 280 0 min 0,000 mm 0,0 UV-I 19 W/m 14,6 C 9,7 km/h (2 Bft)
26.07.2016 19:45 15,5 C 15,5 C 94 % 1017,8 hPa 0,0 mm 6,6 km/h (2 Bft) W-NW 283 0 min 0,000 mm 0,0 UV-I 19 W/m 14,5 C 9,7 km/h (2 Bft)
26.07.2016 19:46 15,6 C 15,6 C 94 % 1017,8 hPa 0,0 mm 4,5 km/h (1 Bft) W-NW 288 0 min 0,000 mm 0,0 UV-I 19 W/m 14,6 C 11,3 km/h (2 Bft)
26.07.2016 19:47 15,6 C 15,6 C 94 % 1017,8 hPa 0,0 mm 4,5 km/h (1 Bft) W 261 0 min 0,000 mm 0,0 UV-I 19 W/m 14,6 C 6,4 km/h (2 Bft)
26.07.2016 19:48 15,7 C 15,7 C 94 % 1017,8 hPa 0,0 mm 2,1 km/h (1 Bft) W 260 0 min 0,000 mm 0,0 UV-I 19 W/m 14,7 C 4,8 km/h (1 Bft)
26.07.2016 19:49 15,7 C 15,7 C 94 % 1017,8 hPa 0,0 mm 2,5 km/h (1 Bft) W-SW 252 0 min 0,000 mm 0,0 UV-I 19 W/m 14,7 C 4,8 km/h (1 Bft)
26.07.2016 19:50 15,6 C 15,7 C 94 % 1017,7 hPa 0,0 mm 0,9 km/h (0 Bft) W-SW 253 0 min 0,000 mm 0,0 UV-I 19 W/m 14,6 C 1,6 km/h (1 Bft)
26.07.2016 19:51 15,6 C 15,7 C 94 % 1017,7 hPa 0,0 mm 0,9 km/h (0 Bft) W-SW 253 0 min 0,000 mm 0,0 UV-I 19 W/m 14,6 C 1,6 km/h (1 Bft)
26.07.2016 19:52 15,6 C 15,6 C 94 % 1017,7 hPa 0,0 mm 1,5 km/h (1 Bft) W-SW 240 0 min 0,000 mm 0,0 UV-I 19 W/m 14,6 C 3,2 km/h (1 Bft)
26.07.2016 19:53 15,5 C 15,6 C 94 % 1017,7 hPa 0,0 mm 2,2 km/h (1 Bft) W-SW 240 0 min 0,000 mm 0,0 UV-I 21 W/m 14,5 C 3,2 km/h (1 Bft)
26.07.2016 19:54 15,5 C 15,5 C 95 % 1017,6 hPa 0,0 mm 0,9 km/h (0 Bft) W-SW 240 0 min 0,000 mm 0,0 UV-I 21 W/m 14,7 C 1,6 km/h (1 Bft)
26.07.2016 19:55 15,4 C 15,5 C 95 % 1017,7 hPa 0,0 mm 0,6 km/h (0 Bft) W-SW 240 0 min 0,000 mm 0,0 UV-I 21 W/m 14,6 C 1,6 km/h (1 Bft)
26.07.2016 19:56 15,4 C 15,4 C 95 % 1017,6 hPa 0,0 mm 0,2 km/h (0 Bft) W-SW 250 0 min 0,000 mm 0,0 UV-I 21 W/m 14,6 C 1,6 km/h (1 Bft)
26.07.2016 19:57 15,4 C 15,4 C 95 % 1017,6 hPa 0,0 mm 0,1 km/h (0 Bft) W-SW 250 0 min 0,000 mm 0,0 UV-I 23 W/m 14,6 C 1,6 km/h (1 Bft)
26.07.2016 19:58 15,3 C 15,4 C 95 % 1017,6 hPa 0,0 mm 0,1 km/h (0 Bft) W-SW 250 0 min 0,000 mm 0,0 UV-I 23 W/m 14,5 C 1,6 km/h (1 Bft)
26.07.2016 19:59 15,3 C 15,4 C 95 % 1017,6 hPa 0,0 mm 0,2 km/h (0 Bft) W-SW 250 0 min 0,000 mm 0,0 UV-I 26 W/m 14,5 C 1,6 km/h (1 Bft)
26.07.2016 20:00 15,3 C 15,3 C 95 % 1017,5 hPa 0,0 mm 1,3 km/h (1 Bft) W-SW 250 0 min 0,000 mm 0,0 UV-I 26 W/m 14,5 C 3,2 km/h (1 Bft)
26.07.2016 20:01 15,3 C 15,3 C 95 % 1017,5 hPa 0,0 mm 4,0 km/h (1 Bft) NW 317 0 min 0,025 mm 0,0 UV-I 39 W/m 14,5 C 6,4 km/h (2 Bft)
26.07.2016 20:02 15,4 C 15,4 C 96 % 1017,5 hPa 0,0 mm 3,5 km/h (1 Bft) NW 313 0 min 0,001 mm 0,0 UV-I 44 W/m 14,8 C 4,8 km/h (1 Bft)
26.07.2016 20:03 15,4 C 15,4 C 96 % 1017,5 hPa 0,0 mm 2,9 km/h (1 Bft) NW 316 0 min 0,000 mm 0,0 UV-I 46 W/m 14,8 C 3,2 km/h (1 Bft)
26.07.2016 20:04 15,4 C 15,4 C 96 % 1017,4 hPa 0,0 mm 2,5 km/h (1 Bft) NW 309 0 min 0,000 mm 0,0 UV-I 47 W/m 14,8 C 4,8 km/h (1 Bft)
26.07.2016 20:05 15,4 C 15,4 C 96 % 1017,5 hPa 0,0 mm 2,1 km/h (1 Bft) NW 307 0 min 0,000 mm 0,0 UV-I 46 W/m 14,8 C 3,2 km/h (1 Bft)
26.07.2016 20:06 15,5 C 15,5 C 95 % 1017,5 hPa 0,0 mm 1,3 km/h (1 Bft) N-NW 329 0 min 0,000 mm 0,0 UV-I 39 W/m 14,7 C 3,2 km/h (1 Bft)
26.07.2016 20:07 15,6 C 15,6 C 95 % 1017,5 hPa 0,0 mm 0,5 km/h (0 Bft) N-NW 329 0 min 0,000 mm 0,0 UV-I 32 W/m 14,8 C 1,6 km/h (1 Bft)
26.07.2016 20:08 15,6 C 15,6 C 95 % 1017,5 hPa 0,0 mm 1,9 km/h (1 Bft) W-NW 289 0 min 0,000 mm 0,0 UV-I 25 W/m 14,8 C 4,8 km/h (1 Bft)
26.07.2016 20:09 15,6 C 15,6 C 95 % 1017,5 hPa 0,0 mm 3,6 km/h (1 Bft) W-NW 287 0 min 0,000 mm 0,0 UV-I 23 W/m 14,8 C 4,8 km/h (1 Bft)
26.07.2016 20:10 15,6 C 15,6 C 95 % 1017,5 hPa 0,0 mm 5,2 km/h (1 Bft) W 271 0 min 0,000 mm 0,0 UV-I 21 W/m 14,8 C 6,4 km/h (2 Bft)
26.07.2016 20:11 15,6 C 15,7 C 95 % 1017,5 hPa 0,0 mm 4,1 km/h (1 Bft) W-NW 300 0 min 0,000 mm 0,0 UV-I 21 W/m 14,8 C 6,4 km/h (2 Bft)
26.07.2016 20:12 15,6 C 15,7 C 95 % 1017,5 hPa 0,0 mm 4,7 km/h (1 Bft) W 272 0 min 0,000 mm 0,0 UV-I 19 W/m 14,8 C 6,4 km/h (2 Bft)
26.07.2016 20:13 15,6 C 15,6 C 94 % 1017,5 hPa 0,0 mm 6,0 km/h (2 Bft) W 281 0 min 0,000 mm 0,0 UV-I 19 W/m 14,6 C 9,7 km/h (2 Bft)
26.07.2016 20:14 15,6 C 15,6 C 94 % 1017,5 hPa 0,0 mm 5,2 km/h (1 Bft) W 267 0 min 0,000 mm 0,0 UV-I 18 W/m 14,6 C 9,7 km/h (2 Bft)
26.07.2016 20:15 15,6 C 15,6 C 94 % 1017,6 hPa 0,0 mm 5,3 km/h (1 Bft) W 271 0 min 0,000 mm 0,0 UV-I 18 W/m 14,6 C 8,0 km/h (2 Bft)
26.07.2016 20:16 15,6 C 15,6 C 94 % 1017,5 hPa 0,0 mm 3,6 km/h (1 Bft) W-SW 252 0 min 0,000 mm 0,0 UV-I 16 W/m 14,6 C 4,8 km/h (1 Bft)
26.07.2016 20:17 15,5 C 15,6 C 94 % 1017,5 hPa 0,0 mm 4,3 km/h (1 Bft) SW 217 0 min 0,000 mm 0,0 UV-I 16 W/m 14,5 C 6,4 km/h (2 Bft)
26.07.2016 20:18 15,5 C 15,5 C 94 % 1017,5 hPa 0,0 mm 2,6 km/h (1 Bft) W 281 0 min 0,000 mm 0,0 UV-I 16 W/m 14,5 C 4,8 km/h (1 Bft)
26.07.2016 20:19 15,4 C 15,5 C 94 % 1017,5 hPa 0,0 mm 4,3 km/h (1 Bft) W-SW 247 0 min 0,000 mm 0,0 UV-I 14 W/m 14,4 C 6,4 km/h (2 Bft)
26.07.2016 20:20 15,4 C 15,5 C 94 % 1017,5 hPa 0,0 mm 2,7 km/h (1 Bft) W 265 0 min 0,000 mm 0,0 UV-I 14 W/m 14,4 C 4,8 km/h (1 Bft)
26.07.2016 20:21 15,4 C 15,5 C 94 % 1017,5 hPa 0,0 mm 1,8 km/h (1 Bft) W 259 0 min 0,000 mm 0,0 UV-I 12 W/m 14,4 C 3,2 km/h (1 Bft)
26.07.2016 20:22 15,4 C 15,4 C 94 % 1017,6 hPa 0,0 mm 2,7 km/h (1 Bft) W-SW 238 0 min 0,000 mm 0,0 UV-I 12 W/m 14,4 C 4,8 km/h (1 Bft)
26.07.2016 20:23 15,4 C 15,5 C 94 % 1017,5 hPa 0,0 mm 3,0 km/h (1 Bft) W-SW 248 0 min 0,000 mm 0,0 UV-I 12 W/m 14,4 C 4,8 km/h (1 Bft)
26.07.2016 20:24 15,4 C 15,4 C 94 % 1017,5 hPa 0,0 mm 2,1 km/h (1 Bft) W-SW 257 0 min 0,000 mm 0,0 UV-I 12 W/m 14,4 C 3,2 km/h (1 Bft)
26.07.2016 20:25 15,4 C 15,5 C 94 % 1017,5 hPa 0,0 mm 0,8 km/h (0 Bft) W-SW 257 0 min 0,000 mm 0,0 UV-I 11 W/m 14,4 C 1,6 km/h (1 Bft)
26.07.2016 20:26 15,4 C 15,4 C 94 % 1017,5 hPa 0,0 mm 0,2 km/h (0 Bft) W-SW 257 0 min 0,000 mm 0,0 UV-I 11 W/m 14,4 C 1,6 km/h (1 Bft)
26.07.2016 20:27 15,4 C 15,4 C 95 % 1017,5 hPa 0,0 mm 0,8 km/h (0 Bft) W-SW 257 0 min 0,000 mm 0,0 UV-I 11 W/m 14,6 C 1,6 km/h (1 Bft)
26.07.2016 20:28 15,3 C 15,4 C 95 % 1017,5 hPa 0,0 mm 0,5 km/h (0 Bft) W-SW 257 0 min 0,000 mm 0,0 UV-I 9 W/m 14,5 C 1,6 km/h (1 Bft)
26.07.2016 20:29 15,3 C 15,4 C 95 % 1017,5 hPa 0,0 mm 1,1 km/h (1 Bft) W-SW 257 0 min 0,000 mm 0,0 UV-I 9 W/m 14,5 C 1,6 km/h (1 Bft)
26.07.2016 20:30 15,3 C 15,3 C 95 % 1017,5 hPa 0,0 mm 1,2 km/h (1 Bft) S-SW 197 0 min 0,000 mm 0,0 UV-I 9 W/m 14,5 C 3,2 km/h (1 Bft)
26.07.2016 20:31 15,2 C 15,3 C 95 % 1017,5 hPa 0,0 mm 1,9 km/h (1 Bft) S-SW 192 0 min 0,000 mm 0,0 UV-I 9 W/m 14,4 C 3,2 km/h (1 Bft)
26.07.2016 20:32 15,2 C 15,3 C 95 % 1017,5 hPa 0,0 mm 2,1 km/h (1 Bft) S-SW 192 0 min 0,000 mm 0,0 UV-I 7 W/m 14,4 C 3,2 km/h (1 Bft)
26.07.2016 20:33 15,2 C 15,2 C 95 % 1017,4 hPa 0,0 mm 1,7 km/h (1 Bft) S 187 0 min 0,000 mm 0,0 UV-I 7 W/m 14,4 C 3,2 km/h (1 Bft)
26.07.2016 20:34 15,2 C 15,2 C 95 % 1017,4 hPa 0,0 mm 1,9 km/h (1 Bft) SO 142 0 min 0,000 mm 0,0 UV-I 7 W/m 14,4 C 3,2 km/h (1 Bft)
26.07.2016 20:35 15,2 C 15,2 C 95 % 1017,4 hPa 0,0 mm 0,9 km/h (0 Bft) SO 142 0 min 0,000 mm 0,0 UV-I 7 W/m 14,4 C 1,6 km/h (1 Bft)
26.07.2016 20:36 15,1 C 15,2 C 95 % 1017,5 hPa 0,0 mm 1,1 km/h (1 Bft) SO 142 0 min 0,000 mm 0,0 UV-I 7 W/m 14,3 C 1,6 km/h (1 Bft)
26.07.2016 20:37 15,2 C 15,2 C 96 % 1017,5 hPa 0,0 mm 1,3 km/h (1 Bft) SO 142 0 min 0,000 mm 0,0 UV-I 7 W/m 14,6 C 3,2 km/h (1 Bft)
26.07.2016 20:38 15,1 C 15,2 C 96 % 1017,5 hPa 0,0 mm 0,5 km/h (0 Bft) SO 142 0 min 0,000 mm 0,0 UV-I 5 W/m 14,5 C 1,6 km/h (1 Bft)
26.07.2016 20:39 15,2 C 15,2 C 96 % 1017,5 hPa 0,0 mm 0,3 km/h (0 Bft) N-NO 28 0 min 0,000 mm 0,0 UV-I 5 W/m 14,6 C 1,6 km/h (1 Bft)
26.07.2016 20:40 15,1 C 15,2 C 96 % 1017,4 hPa 0,0 mm 0,8 km/h (0 Bft) N-NO 26 0 min 0,000 mm 0,0 UV-I 5 W/m 14,5 C 3,2 km/h (1 Bft)
26.07.2016 20:41 15,1 C 15,2 C 96 % 1017,5 hPa 0,0 mm 0,1 km/h (0 Bft) N-NO 26 0 min 0,000 mm 0,0 UV-I 5 W/m 14,5 C 1,6 km/h (1 Bft)
26.07.2016 20:42 15,1 C 15,1 C 96 % 1017,5 hPa 0,0 mm 0,0 km/h (0 Bft) N-NO 26 0 min 0,000 mm 0,0 UV-I 5 W/m 14,5 C 0,0 km/h (0 Bft)
26.07.2016 20:43 15,1 C 15,1 C 96 % 1017,5 hPa 0,0 mm 0,3 km/h (0 Bft) N-NO 26 0 min 0,000 mm 0,0 UV-I 5 W/m 14,5 C 1,6 km/h (1 Bft)
26.07.2016 20:44 15,1 C 15,1 C 96 % 1017,5 hPa 0,0 mm 0,3 km/h (0 Bft) N-NO 26 0 min 0,000 mm 0,0 UV-I 5 W/m 14,5 C 1,6 km/h (1 Bft)
26.07.2016 20:45 15,1 C 15,1 C 96 % 1017,5 hPa 0,0 mm 1,5 km/h (1 Bft) W-NW 292 0 min 0,000 mm 0,0 UV-I 0 W/m 14,5 C 3,2 km/h (1 Bft)
26.07.2016 20:46 15,1 C 15,1 C 96 % 1017,5 hPa 0,0 mm 0,5 km/h (0 Bft) W-NW 292 0 min 0,000 mm 0,0 UV-I 0 W/m 14,5 C 1,6 km/h (1 Bft)
26.07.2016 20:47 15,1 C 15,1 C 96 % 1017,5 hPa 0,0 mm 1,2 km/h (1 Bft) NW 310 0 min 0,000 mm 0,0 UV-I 0 W/m 14,5 C 3,2 km/h (1 Bft)
26.07.2016 20:48 15,1 C 15,1 C 96 % 1017,5 hPa 0,0 mm 0,1 km/h (0 Bft) NW 310 0 min 0,000 mm 0,0 UV-I 0 W/m 14,5 C 1,6 km/h (1 Bft)
26.07.2016 20:49 15,1 C 15,1 C 96 % 1017,5 hPa 0,0 mm 0,0 km/h (0 Bft) NW 310 0 min 0,000 mm 0,0 UV-I 0 W/m 14,5 C 0,0 km/h (0 Bft)
26.07.2016 20:50 15,0 C 15,1 C 96 % 1017,5 hPa 0,0 mm 0,5 km/h (0 Bft) N 360 0 min 0,000 mm 0,0 UV-I 0 W/m 14,4 C 3,2 km/h (1 Bft)
26.07.2016 20:51 15,0 C 15,1 C 96 % 1017,5 hPa 0,0 mm 1,9 km/h (1 Bft) N-NO 22 0 min 0,000 mm 0,0 UV-I 0 W/m 14,4 C 3,2 km/h (1 Bft)
26.07.2016 20:52 15,1 C 15,1 C 96 % 1017,5 hPa 0,0 mm 1,8 km/h (1 Bft) N 360 0 min 0,000 mm 0,0 UV-I 0 W/m 14,5 C 3,2 km/h (1 Bft)
26.07.2016 20:53 15,1 C 15,1 C 96 % 1017,6 hPa 0,0 mm 2,6 km/h (1 Bft) NW 324 0 min 0,000 mm 0,0 UV-I 0 W/m 14,5 C 3,2 km/h (1 Bft)
26.07.2016 20:54 15,0 C 15,1 C 96 % 1017,6 hPa 0,0 mm 1,5 km/h (1 Bft) NW 323 0 min 0,000 mm 0,0 UV-I 0 W/m 14,4 C 3,2 km/h (1 Bft)
26.07.2016 20:55 15,0 C 15,0 C 96 % 1017,6 hPa 0,0 mm 0,9 km/h (0 Bft) NW 323 0 min 0,000 mm 0,0 UV-I 0 W/m 14,4 C 1,6 km/h (1 Bft)
26.07.2016 20:56 15,0 C 15,0 C 96 % 1017,7 hPa 0,0 mm 0,6 km/h (0 Bft) NW 323 0 min 0,000 mm 0,0 UV-I 0 W/m 14,4 C 1,6 km/h (1 Bft)
26.07.2016 20:57 14,9 C 15,0 C 96 % 1017,7 hPa 0,0 mm 0,3 km/h (0 Bft) NW 323 0 min 0,000 mm 0,0 UV-I 0 W/m 14,3 C 1,6 km/h (1 Bft)
26.07.2016 20:58 15,0 C 15,0 C 96 % 1017,8 hPa 0,0 mm 0,5 km/h (0 Bft) NW 323 0 min 0,000 mm 0,0 UV-I 0 W/m 14,4 C 1,6 km/h (1 Bft)
26.07.2016 20:59 15,0 C 15,0 C 96 % 1017,8 hPa 0,0 mm 0,9 km/h (0 Bft) NW 323 0 min 0,000 mm 0,0 UV-I 0 W/m 14,4 C 1,6 km/h (1 Bft)
26.07.2016 21:00 14,9 C 15,0 C 96 % 1017,7 hPa 0,0 mm 1,1 km/h (1 Bft) NW 323 0 min 0,000 mm 0,0 UV-I 0 W/m 14,3 C 1,6 km/h (1 Bft)
26.07.2016 21:01 15,0 C 15,0 C 96 % 1017,8 hPa 0,0 mm 0,9 km/h (0 Bft) NW 323 0 min 0,000 mm 0,0 UV-I 0 W/m 14,4 C 1,6 km/h (1 Bft)
26.07.2016 21:02 15,0 C 15,0 C 96 % 1017,8 hPa 0,0 mm 2,0 km/h (1 Bft) O-NO 57 0 min 0,000 mm 0,0 UV-I 0 W/m 14,4 C 3,2 km/h (1 Bft)
26.07.2016 21:03 15,0 C 15,0 C 96 % 1017,8 hPa 0,0 mm 0,4 km/h (0 Bft) O-NO 57 0 min 0,000 mm 0,0 UV-I 0 W/m 14,4 C 1,6 km/h (1 Bft)
26.07.2016 21:04 14,9 C 15,0 C 96 % 1017,8 hPa 0,0 mm 0,0 km/h (0 Bft) O-NO 57 0 min 0,000 mm 0,0 UV-I 0 W/m 14,3 C 0,0 km/h (0 Bft)
26.07.2016 21:05 14,9 C 14,9 C 96 % 1017,8 hPa 0,0 mm 0,0 km/h (0 Bft) O-NO 57 0 min 0,000 mm 0,0 UV-I 0 W/m 14,3 C 0,0 km/h (0 Bft)
26.07.2016 21:06 14,9 C 14,9 C 96 % 1017,8 hPa 0,0 mm 0,1 km/h (0 Bft) O-NO 57 0 min 0,000 mm 0,0 UV-I 0 W/m 14,3 C 1,6 km/h (1 Bft)
26.07.2016 21:07 14,9 C 14,9 C 96 % 1017,8 hPa 0,0 mm 0,8 km/h (0 Bft) O-NO 57 0 min 0,000 mm 0,0 UV-I 0 W/m 14,3 C 1,6 km/h (1 Bft)
26.07.2016 21:08 14,9 C 14,9 C 96 % 1017,9 hPa 0,0 mm 0,5 km/h (0 Bft) O-NO 57 0 min 0,000 mm 0,0 UV-I 0 W/m 14,3 C 1,6 km/h (1 Bft)
26.07.2016 21:09 14,9 C 14,9 C 96 % 1017,9 hPa 0,0 mm 0,0 km/h (0 Bft) O-NO 57 0 min 0,000 mm 0,0 UV-I 0 W/m 14,3 C 0,0 km/h (0 Bft)
26.07.2016 21:10 14,9 C 14,9 C 96 % 1017,9 hPa 0,0 mm 0,0 km/h (0 Bft) O-NO 57 0 min 0,000 mm 0,0 UV-I 0 W/m 14,3 C 0,0 km/h (0 Bft)
26.07.2016 21:11 14,9 C 14,9 C 96 % 1017,9 hPa 0,0 mm 0,5 km/h (0 Bft) O-NO 57 0 min 0,000 mm 0,0 UV-I 0 W/m 14,3 C 1,6 km/h (1 Bft)
26.07.2016 21:12 14,9 C 14,9 C 96 % 1017,9 hPa 0,0 mm 1,5 km/h (1 Bft) O-NO 57 0 min 0,000 mm 0,0 UV-I 0 W/m 14,3 C 3,2 km/h (1 Bft)
26.07.2016 21:13 14,9 C 14,9 C 96 % 1017,9 hPa 0,0 mm 1,1 km/h (1 Bft) O-NO 57 0 min 0,000 mm 0,0 UV-I 0 W/m 14,3 C 1,6 km/h (1 Bft)
26.07.2016 21:14 14,9 C 14,9 C 96 % 1017,9 hPa 0,0 mm 1,7 km/h (1 Bft) O-NO 68 0 min 0,000 mm 0,0 UV-I 0 W/m 14,3 C 3,2 km/h (1 Bft)
26.07.2016 21:15 14,9 C 14,9 C 96 % 1017,8 hPa 0,0 mm 0,5 km/h (0 Bft) O-NO 68 0 min 0,000 mm 0,0 UV-I 0 W/m 14,3 C 1,6 km/h (1 Bft)
26.07.2016 21:16 14,9 C 14,9 C 96 % 1017,9 hPa 0,0 mm 0,0 km/h (0 Bft) O-NO 68 0 min 0,000 mm 0,0 UV-I 0 W/m 14,3 C 0,0 km/h (0 Bft)
26.07.2016 21:17 14,8 C 14,9 C 96 % 1017,8 hPa 0,0 mm 0,1 km/h (0 Bft) O-NO 68 0 min 0,000 mm 0,0 UV-I 0 W/m 14,2 C 1,6 km/h (1 Bft)
26.07.2016 21:18 14,8 C 14,9 C 96 % 1017,9 hPa 0,0 mm 0,9 km/h (0 Bft) O-NO 66 0 min 0,000 mm 0,0 UV-I 0 W/m 14,2 C 1,6 km/h (1 Bft)
26.07.2016 21:19 14,8 C 14,9 C 96 % 1017,8 hPa 0,0 mm 0,7 km/h (0 Bft) O-NO 66 0 min 0,000 mm 0,0 UV-I 0 W/m 14,2 C 1,6 km/h (1 Bft)
26.07.2016 21:20 14,8 C 14,8 C 96 % 1017,9 hPa 0,0 mm 1,1 km/h (1 Bft) O-NO 66 0 min 0,000 mm 0,0 UV-I 0 W/m 14,2 C 3,2 km/h (1 Bft)
26.07.2016 21:21 14,9 C 14,9 C 96 % 1017,9 hPa 0,0 mm 1,0 km/h (0 Bft) O-NO 66 0 min 0,000 mm 0,0 UV-I 0 W/m 14,3 C 3,2 km/h (1 Bft)
26.07.2016 21:22 14,8 C 14,9 C 96 % 1018,0 hPa 0,0 mm 2,7 km/h (1 Bft) W 279 0 min 0,000 mm 0,0 UV-I 0 W/m 14,2 C 3,2 km/h (1 Bft)
26.07.2016 21:23 14,8 C 14,8 C 96 % 1018,0 hPa 0,0 mm 3,4 km/h (1 Bft) W 270 0 min 0,000 mm 0,0 UV-I 0 W/m 14,2 C 4,8 km/h (1 Bft)
26.07.2016 21:24 14,8 C 14,9 C 96 % 1018,1 hPa 0,0 mm 3,4 km/h (1 Bft) W-SW 256 0 min 0,000 mm 0,0 UV-I 0 W/m 14,2 C 4,8 km/h (1 Bft)
26.07.2016 21:25 14,8 C 14,9 C 96 % 1018,1 hPa 0,0 mm 2,7 km/h (1 Bft) W-SW 257 0 min 0,000 mm 0,0 UV-I 0 W/m 14,2 C 4,8 km/h (1 Bft)
26.07.2016 21:26 14,9 C 14,9 C 96 % 1018,1 hPa 0,0 mm 4,9 km/h (1 Bft) W-NW 287 0 min 0,000 mm 0,0 UV-I 0 W/m 14,3 C 6,4 km/h (2 Bft)
26.07.2016 21:27 14,9 C 14,9 C 95 % 1018,1 hPa 0,0 mm 2,3 km/h (1 Bft) W 260 0 min 0,000 mm 0,0 UV-I 0 W/m 14,1 C 4,8 km/h (1 Bft)
26.07.2016 21:28 14,9 C 14,9 C 95 % 1018,1 hPa 0,0 mm 2,3 km/h (1 Bft) W 260 0 min 0,000 mm 0,0 UV-I 0 W/m 14,1 C 4,8 km/h (1 Bft)
26.07.2016 21:29 14,9 C 14,9 C 95 % 1018,0 hPa 0,0 mm 3,0 km/h (1 Bft) W 267 0 min 0,000 mm 0,0 UV-I 0 W/m 14,1 C 3,2 km/h (1 Bft)
26.07.2016 21:30 14,9 C 14,9 C 95 % 1018,0 hPa 0,0 mm 2,2 km/h (1 Bft) W 276 0 min 0,000 mm 0,0 UV-I 0 W/m 14,1 C 4,8 km/h (1 Bft)
26.07.2016 21:31 14,9 C 14,9 C 95 % 1018,0 hPa 0,0 mm 2,3 km/h (1 Bft) SW 224 0 min 0,000 mm 0,0 UV-I 0 W/m 14,1 C 6,4 km/h (2 Bft)
26.07.2016 21:32 14,9 C 14,9 C 95 % 1018,0 hPa 0,0 mm 1,6 km/h (1 Bft) W 273 0 min 0,000 mm 0,0 UV-I 0 W/m 14,1 C 3,2 km/h (1 Bft)
26.07.2016 21:33 14,8 C 14,9 C 95 % 1017,9 hPa 0,0 mm 1,6 km/h (1 Bft) W 273 0 min 0,000 mm 0,0 UV-I 0 W/m 14,0 C 3,2 km/h (1 Bft)
26.07.2016 21:34 14,8 C 14,8 C 95 % 1017,9 hPa 0,0 mm 1,5 km/h (1 Bft) W-SW 254 0 min 0,000 mm 0,0 UV-I 0 W/m 14,0 C 6,4 km/h (2 Bft)
26.07.2016 21:35 14,8 C 14,8 C 95 % 1017,9 hPa 0,0 mm 2,9 km/h (1 Bft) W 261 0 min 0,000 mm 0,0 UV-I 0 W/m 14,0 C 6,4 km/h (2 Bft)
26.07.2016 21:36 14,8 C 14,8 C 95 % 1018,0 hPa 0,0 mm 2,1 km/h (1 Bft) W 262 0 min 0,000 mm 0,0 UV-I 0 W/m 14,0 C 4,8 km/h (1 Bft)
26.07.2016 21:37 14,8 C 14,8 C 95 % 1017,9 hPa 0,0 mm 3,5 km/h (1 Bft) W-NW 286 0 min 0,000 mm 0,0 UV-I 0 W/m 14,0 C 6,4 km/h (2 Bft)
26.07.2016 21:38 14,7 C 14,8 C 95 % 1018,0 hPa 0,0 mm 2,0 km/h (1 Bft) O-NO 71 0 min 0,000 mm 0,0 UV-I 0 W/m 13,9 C 4,8 km/h (1 Bft)
26.07.2016 21:39 14,7 C 14,8 C 95 % 1017,9 hPa 0,0 mm 0,8 km/h (0 Bft) O-NO 71 0 min 0,000 mm 0,0 UV-I 0 W/m 13,9 C 1,6 km/h (1 Bft)
26.07.2016 21:40 14,7 C 14,8 C 95 % 1017,9 hPa 0,0 mm 0,4 km/h (0 Bft) O-NO 71 0 min 0,000 mm 0,0 UV-I 0 W/m 13,9 C 1,6 km/h (1 Bft)
26.07.2016 21:41 14,7 C 14,7 C 95 % 1017,9 hPa 0,0 mm 0,9 km/h (0 Bft) O-NO 71 0 min 0,000 mm 0,0 UV-I 0 W/m 13,9 C 1,6 km/h (1 Bft)
26.07.2016 21:42 14,7 C 14,7 C 95 % 1018,0 hPa 0,0 mm 0,3 km/h (0 Bft) O-NO 71 0 min 0,000 mm 0,0 UV-I 0 W/m 13,9 C 1,6 km/h (1 Bft)
26.07.2016 21:43 14,7 C 14,7 C 95 % 1017,9 hPa 0,0 mm 0,1 km/h (0 Bft) O-NO 71 0 min 0,000 mm 0,0 UV-I 0 W/m 13,9 C 1,6 km/h (1 Bft)
26.07.2016 21:44 14,7 C 14,7 C 96 % 1017,9 hPa 0,0 mm 0,6 km/h (0 Bft) O-NO 71 0 min 0,000 mm 0,0 UV-I 0 W/m 14,1 C 1,6 km/h (1 Bft)
26.07.2016 21:45 14,6 C 14,7 C 95 % 1017,9 hPa 0,0 mm 0,1 km/h (0 Bft) O-NO 71 0 min 0,000 mm 0,0 UV-I 0 W/m 13,8 C 1,6 km/h (1 Bft)
26.07.2016 21:46 14,6 C 14,6 C 96 % 1017,8 hPa 0,0 mm 0,0 km/h (0 Bft) O-NO 71 0 min 0,000 mm 0,0 UV-I 0 W/m 14,0 C 0,0 km/h (0 Bft)
26.07.2016 21:47 14,6 C 14,6 C 95 % 1017,9 hPa 0,0 mm 0,0 km/h (0 Bft) O-NO 71 0 min 0,000 mm 0,0 UV-I 0 W/m 13,8 C 0,0 km/h (0 Bft)
26.07.2016 21:48 14,5 C 14,6 C 95 % 1017,9 hPa 0,0 mm 0,0 km/h (0 Bft) O-NO 71 0 min 0,000 mm 0,0 UV-I 0 W/m 13,7 C 0,0 km/h (0 Bft)
26.07.2016 21:49 14,4 C 14,5 C 96 % 1017,9 hPa 0,0 mm 0,0 km/h (0 Bft) O-NO 71 0 min 0,000 mm 0,0 UV-I 0 W/m 13,8 C 0,0 km/h (0 Bft)
26.07.2016 21:50 14,4 C 14,4 C 96 % 1017,9 hPa 0,0 mm 0,0 km/h (0 Bft) O-NO 71 0 min 0,000 mm 0,0 UV-I 0 W/m 13,8 C 0,0 km/h (0 Bft)
26.07.2016 21:51 14,4 C 14,4 C 96 % 1017,8 hPa 0,0 mm 0,0 km/h (0 Bft) O-NO 71 0 min 0,000 mm 0,0 UV-I 0 W/m 13,8 C 0,0 km/h (0 Bft)
26.07.2016 21:52 14,4 C 14,4 C 96 % 1017,8 hPa 0,0 mm 0,0 km/h (0 Bft) O-NO 71 0 min 0,000 mm 0,0 UV-I 0 W/m 13,8 C 0,0 km/h (0 Bft)
26.07.2016 21:53 14,4 C 14,4 C 96 % 1017,8 hPa 0,0 mm 0,5 km/h (0 Bft) O-NO 71 0 min 0,000 mm 0,0 UV-I 0 W/m 13,8 C 3,2 km/h (1 Bft)
26.07.2016 21:54 14,4 C 14,4 C 96 % 1017,8 hPa 0,0 mm 1,7 km/h (1 Bft) O-NO 71 0 min 0,000 mm 0,0 UV-I 0 W/m 13,8 C 3,2 km/h (1 Bft)
26.07.2016 21:55 14,4 C 14,4 C 96 % 1017,8 hPa 0,0 mm 0,6 km/h (0 Bft) O-NO 71 0 min 0,000 mm 0,0 UV-I 0 W/m 13,8 C 1,6 km/h (1 Bft)
26.07.2016 21:56 14,3 C 14,4 C 96 % 1017,8 hPa 0,0 mm 0,0 km/h (0 Bft) O-NO 71 0 min 0,000 mm 0,0 UV-I 0 W/m 13,7 C 0,0 km/h (0 Bft)
26.07.2016 21:57 14,3 C 14,4 C 96 % 1017,8 hPa 0,0 mm 0,0 km/h (0 Bft) O-NO 71 0 min 0,000 mm 0,0 UV-I 0 W/m 13,7 C 0,0 km/h (0 Bft)
26.07.2016 21:58 14,3 C 14,3 C 96 % 1017,8 hPa 0,0 mm 0,2 km/h (0 Bft) O-NO 71 0 min 0,000 mm 0,0 UV-I 0 W/m 13,7 C 1,6 km/h (1 Bft)
26.07.2016 21:59 14,3 C 14,3 C 96 % 1017,8 hPa 0,0 mm 0,9 km/h (0 Bft) O-NO 71 0 min 0,000 mm 0,0 UV-I 0 W/m 13,7 C 3,2 km/h (1 Bft)
26.07.2016 22:00 14,4 C 14,4 C 96 % 1017,8 hPa 0,0 mm 0,3 km/h (0 Bft) O-NO 71 0 min 0,000 mm 0,0 UV-I 0 W/m 13,8 C 1,6 km/h (1 Bft)
26.07.2016 22:01 14,3 C 14,4 C 96 % 1017,8 hPa 0,0 mm 0,1 km/h (0 Bft) O-NO 71 0 min 0,000 mm 0,0 UV-I 0 W/m 13,7 C 1,6 km/h (1 Bft)
26.07.2016 22:02 14,3 C 14,4 C 96 % 1017,8 hPa 0,0 mm 0,5 km/h (0 Bft) O-NO 71 0 min 0,000 mm 0,0 UV-I 0 W/m 13,7 C 1,6 km/h (1 Bft)
26.07.2016 22:03 14,3 C 14,3 C 96 % 1017,9 hPa 0,0 mm 0,2 km/h (0 Bft) O-NO 71 0 min 0,000 mm 0,0 UV-I 0 W/m 13,7 C 1,6 km/h (1 Bft)
26.07.2016 22:04 14,3 C 14,3 C 96 % 1017,8 hPa 0,0 mm 0,0 km/h (0 Bft) O-NO 71 0 min 0,000 mm 0,0 UV-I 0 W/m 13,7 C 0,0 km/h (0 Bft)
26.07.2016 22:05 14,3 C 14,3 C 96 % 1017,8 hPa 0,0 mm 0,0 km/h (0 Bft) O-NO 71 0 min 0,000 mm 0,0 UV-I 0 W/m 13,7 C 0,0 km/h (0 Bft)
26.07.2016 22:06 14,3 C 14,3 C 96 % 1017,8 hPa 0,0 mm 0,2 km/h (0 Bft) O-NO 71 0 min 0,000 mm 0,0 UV-I 0 W/m 13,7 C 1,6 km/h (1 Bft)
26.07.2016 22:07 14,3 C 14,3 C 96 % 1017,7 hPa 0,0 mm 0,5 km/h (0 Bft) O-NO 71 0 min 0,000 mm 0,0 UV-I 0 W/m 13,7 C 1,6 km/h (1 Bft)
26.07.2016 22:08 14,3 C 14,3 C 96 % 1017,7 hPa 0,0 mm 0,1 km/h (0 Bft) O-NO 71 0 min 0,000 mm 0,0 UV-I 0 W/m 13,7 C 1,6 km/h (1 Bft)
26.07.2016 22:09 14,3 C 14,3 C 96 % 1017,8 hPa 0,0 mm 0,1 km/h (0 Bft) O-NO 71 0 min 0,000 mm 0,0 UV-I 0 W/m 13,7 C 1,6 km/h (1 Bft)
26.07.2016 22:10 14,3 C 14,3 C 96 % 1017,7 hPa 0,0 mm 0,0 km/h (0 Bft) O-NO 71 0 min 0,000 mm 0,0 UV-I 0 W/m 13,7 C 0,0 km/h (0 Bft)
26.07.2016 22:11 14,3 C 14,3 C 96 % 1017,8 hPa 0,0 mm 0,1 km/h (0 Bft) O-NO 71 0 min 0,000 mm 0,0 UV-I 0 W/m 13,7 C 1,6 km/h (1 Bft)
26.07.2016 22:12 14,3 C 14,3 C 96 % 1017,6 hPa 0,0 mm 0,3 km/h (0 Bft) O-NO 71 0 min 0,000 mm 0,0 UV-I 0 W/m 13,7 C 1,6 km/h (1 Bft)
26.07.2016 22:13 14,3 C 14,3 C 96 % 1017,7 hPa 0,0 mm 0,2 km/h (0 Bft) O-NO 70 0 min 0,000 mm 0,0 UV-I 0 W/m 13,7 C 1,6 km/h (1 Bft)
26.07.2016 22:14 14,3 C 14,3 C 96 % 1017,7 hPa 0,0 mm 2,1 km/h (1 Bft) W 259 0 min 0,000 mm 0,0 UV-I 0 W/m 13,7 C 4,8 km/h (1 Bft)
26.07.2016 22:15 14,3 C 14,3 C 96 % 1017,7 hPa 0,0 mm 2,4 km/h (1 Bft) S-SW 203 0 min 0,000 mm 0,0 UV-I 0 W/m 13,7 C 4,8 km/h (1 Bft)
26.07.2016 22:16 14,3 C 14,3 C 96 % 1017,7 hPa 0,0 mm 0,8 km/h (0 Bft) W-SW 238 0 min 0,000 mm 0,0 UV-I 0 W/m 13,7 C 3,2 km/h (1 Bft)
26.07.2016 22:17 14,4 C 14,4 C 96 % 1017,7 hPa 0,0 mm 2,4 km/h (1 Bft) W-SW 246 0 min 0,000 mm 0,0 UV-I 0 W/m 13,8 C 4,8 km/h (1 Bft)
26.07.2016 22:18 14,4 C 14,4 C 96 % 1017,8 hPa 0,0 mm 0,1 km/h (0 Bft) W-SW 246 0 min 0,000 mm 0,0 UV-I 0 W/m 13,8 C 1,6 km/h (1 Bft)
26.07.2016 22:19 14,4 C 14,4 C 96 % 1017,7 hPa 0,0 mm 1,3 km/h (1 Bft) W-SW 246 0 min 0,000 mm 0,0 UV-I 0 W/m 13,8 C 1,6 km/h (1 Bft)
26.07.2016 22:20 14,4 C 14,4 C 96 % 1017,7 hPa 0,0 mm 1,4 km/h (1 Bft) W-SW 246 0 min 0,000 mm 0,0 UV-I 0 W/m 13,8 C 3,2 km/h (1 Bft)
26.07.2016 22:21 14,4 C 14,4 C 96 % 1017,8 hPa 0,0 mm 0,5 km/h (0 Bft) W-SW 246 0 min 0,000 mm 0,0 UV-I 0 W/m 13,8 C 1,6 km/h (1 Bft)
26.07.2016 22:22 14,4 C 14,4 C 96 % 1017,7 hPa 0,0 mm 0,5 km/h (0 Bft) W-SW 246 0 min 0,000 mm 0,0 UV-I 0 W/m 13,8 C 1,6 km/h (1 Bft)
26.07.2016 22:23 14,4 C 14,4 C 96 % 1017,7 hPa 0,0 mm 0,0 km/h (0 Bft) W-SW 246 0 min 0,000 mm 0,0 UV-I 0 W/m 13,8 C 0,0 km/h (0 Bft)
26.07.2016 22:24 14,4 C 14,4 C 96 % 1017,7 hPa 0,0 mm 0,0 km/h (0 Bft) W-SW 246 0 min 0,000 mm 0,0 UV-I 0 W/m 13,8 C 0,0 km/h (0 Bft)
26.07.2016 22:25 14,4 C 14,4 C 96 % 1017,7 hPa 0,0 mm 0,1 km/h (0 Bft) W-SW 246 0 min 0,000 mm 0,0 UV-I 0 W/m 13,8 C 1,6 km/h (1 Bft)
26.07.2016 22:26 14,4 C 14,4 C 96 % 1017,7 hPa 0,0 mm 0,5 km/h (0 Bft) W-SW 246 0 min 0,000 mm 0,0 UV-I 0 W/m 13,8 C 1,6 km/h (1 Bft)
26.07.2016 22:27 14,4 C 14,4 C 96 % 1017,7 hPa 0,0 mm 0,1 km/h (0 Bft) W-SW 246 0 min 0,000 mm 0,0 UV-I 0 W/m 13,8 C 1,6 km/h (1 Bft)
26.07.2016 22:28 14,4 C 14,4 C 96 % 1017,6 hPa 0,0 mm 0,5 km/h (0 Bft) W-SW 246 0 min 0,000 mm 0,0 UV-I 0 W/m 13,8 C 1,6 km/h (1 Bft)
26.07.2016 22:29 14,3 C 14,4 C 96 % 1017,6 hPa 0,0 mm 0,5 km/h (0 Bft) W-SW 246 0 min 0,000 mm 0,0 UV-I 0 W/m 13,7 C 1,6 km/h (1 Bft)
26.07.2016 22:30 14,3 C 14,3 C 96 % 1017,7 hPa 0,0 mm 0,6 km/h (0 Bft) W-SW 246 0 min 0,000 mm 0,0 UV-I 0 W/m 13,7 C 1,6 km/h (1 Bft)
26.07.2016 22:31 14,3 C 14,3 C 96 % 1017,6 hPa 0,0 mm 0,3 km/h (0 Bft) W-SW 246 0 min 0,000 mm 0,0 UV-I 0 W/m 13,7 C 1,6 km/h (1 Bft)
26.07.2016 22:32 14,3 C 14,3 C 96 % 1017,6 hPa 0,0 mm 0,0 km/h (0 Bft) W-SW 246 0 min 0,000 mm 0,0 UV-I 0 W/m 13,7 C 0,0 km/h (0 Bft)
26.07.2016 22:33 14,3 C 14,3 C 96 % 1017,6 hPa 0,0 mm 0,3 km/h (0 Bft) W-SW 248 0 min 0,000 mm 0,0 UV-I 0 W/m 13,7 C 1,6 km/h (1 Bft)
26.07.2016 22:34 14,2 C 14,3 C 96 % 1017,6 hPa 0,0 mm 2,3 km/h (1 Bft) W-NW 292 0 min 0,000 mm 0,0 UV-I 0 W/m 13,6 C 3,2 km/h (1 Bft)
26.07.2016 22:35 14,2 C 14,3 C 96 % 1017,6 hPa 0,0 mm 1,8 km/h (1 Bft) W-NW 284 0 min 0,000 mm 0,0 UV-I 0 W/m 13,6 C 3,2 km/h (1 Bft)
26.07.2016 22:36 14,2 C 14,2 C 96 % 1017,6 hPa 0,0 mm 2,0 km/h (1 Bft) SW 234 0 min 0,000 mm 0,0 UV-I 0 W/m 13,6 C 6,4 km/h (2 Bft)
26.07.2016 22:37 14,2 C 14,2 C 96 % 1017,6 hPa 0,0 mm 1,5 km/h (1 Bft) W-SW 237 0 min 0,000 mm 0,0 UV-I 0 W/m 13,6 C 3,2 km/h (1 Bft)
26.07.2016 22:38 14,2 C 14,2 C 96 % 1017,6 hPa 0,0 mm 2,5 km/h (1 Bft) W 264 0 min 0,000 mm 0,0 UV-I 0 W/m 13,6 C 4,8 km/h (1 Bft)
26.07.2016 22:39 14,2 C 14,2 C 96 % 1017,7 hPa 0,0 mm 2,4 km/h (1 Bft) S-SW 196 0 min 0,000 mm 0,0 UV-I 0 W/m 13,6 C 3,2 km/h (1 Bft)
26.07.2016 22:40 14,3 C 14,3 C 96 % 1017,7 hPa 0,0 mm 3,6 km/h (1 Bft) W 264 0 min 0,000 mm 0,0 UV-I 0 W/m 13,7 C 6,4 km/h (2 Bft)
26.07.2016 22:41 14,3 C 14,3 C 96 % 1017,7 hPa 0,0 mm 4,7 km/h (1 Bft) W 259 0 min 0,000 mm 0,0 UV-I 0 W/m 13,7 C 8,0 km/h (2 Bft)
26.07.2016 22:42 14,4 C 14,4 C 96 % 1017,7 hPa 0,0 mm 5,6 km/h (1 Bft) W 279 0 min 0,000 mm 0,0 UV-I 0 W/m 13,8 C 9,7 km/h (2 Bft)
26.07.2016 22:43 14,5 C 14,5 C 96 % 1017,7 hPa 0,0 mm 5,3 km/h (1 Bft) W-SW 248 0 min 0,000 mm 0,0 UV-I 0 W/m 13,9 C 8,0 km/h (2 Bft)
26.07.2016 22:44 14,6 C 14,6 C 95 % 1017,7 hPa 0,0 mm 5,6 km/h (1 Bft) SW 221 0 min 0,000 mm 0,0 UV-I 0 W/m 13,8 C 11,3 km/h (2 Bft)
26.07.2016 22:45 14,6 C 14,6 C 95 % 1017,7 hPa 0,0 mm 2,6 km/h (1 Bft) O-SO 117 0 min 0,000 mm 0,0 UV-I 0 W/m 13,8 C 4,8 km/h (1 Bft)
26.07.2016 22:46 14,6 C 14,6 C 95 % 1017,7 hPa 0,0 mm 0,6 km/h (0 Bft) S-SO 168 0 min 0,000 mm 0,0 UV-I 0 W/m 13,8 C 1,6 km/h (1 Bft)
26.07.2016 22:47 14,6 C 14,6 C 95 % 1017,6 hPa 0,0 mm 1,1 km/h (1 Bft) S-SO 168 0 min 0,000 mm 0,0 UV-I 0 W/m 13,8 C 1,6 km/h (1 Bft)
26.07.2016 22:48 14,5 C 14,6 C 95 % 1017,6 hPa 0,0 mm 0,3 km/h (0 Bft) S-SO 168 0 min 0,000 mm 0,0 UV-I 0 W/m 13,7 C 1,6 km/h (1 Bft)
26.07.2016 22:49 14,4 C 14,5 C 95 % 1017,7 hPa 0,0 mm 1,0 km/h (0 Bft) S-SO 168 0 min 0,000 mm 0,0 UV-I 0 W/m 13,6 C 1,6 km/h (1 Bft)
26.07.2016 22:50 14,4 C 14,4 C 95 % 1017,6 hPa 0,0 mm 0,7 km/h (0 Bft) O-SO 107 0 min 0,000 mm 0,0 UV-I 0 W/m 13,6 C 1,6 km/h (1 Bft)
26.07.2016 22:51 14,3 C 14,4 C 95 % 1017,6 hPa 0,0 mm 0,5 km/h (0 Bft) O-SO 107 0 min 0,000 mm 0,0 UV-I 0 W/m 13,5 C 1,6 km/h (1 Bft)
26.07.2016 22:52 14,3 C 14,3 C 95 % 1017,6 hPa 0,0 mm 0,5 km/h (0 Bft) O-SO 107 0 min 0,000 mm 0,0 UV-I 0 W/m 13,5 C 1,6 km/h (1 Bft)
26.07.2016 22:53 14,3 C 14,3 C 95 % 1017,5 hPa 0,0 mm 0,7 km/h (0 Bft) O-SO 107 0 min 0,000 mm 0,0 UV-I 0 W/m 13,5 C 1,6 km/h (1 Bft)
26.07.2016 22:54 14,2 C 14,3 C 95 % 1017,5 hPa 0,0 mm 0,7 km/h (0 Bft) O-SO 107 0 min 0,000 mm 0,0 UV-I 0 W/m 13,4 C 1,6 km/h (1 Bft)
26.07.2016 22:55 14,2 C 14,2 C 96 % 1017,5 hPa 0,0 mm 0,2 km/h (0 Bft) O-SO 107 0 min 0,000 mm 0,0 UV-I 0 W/m 13,6 C 1,6 km/h (1 Bft)
26.07.2016 22:56 14,2 C 14,2 C 96 % 1017,5 hPa 0,0 mm 2,2 km/h (1 Bft) W-SW 254 0 min 0,000 mm 0,0 UV-I 0 W/m 13,6 C 6,4 km/h (2 Bft)
26.07.2016 22:57 14,2 C 14,2 C 96 % 1017,5 hPa 0,0 mm 4,1 km/h (1 Bft) W 261 0 min 0,000 mm 0,0 UV-I 0 W/m 13,6 C 4,8 km/h (1 Bft)
26.07.2016 22:58 14,2 C 14,2 C 96 % 1017,6 hPa 0,0 mm 3,9 km/h (1 Bft) SW 224 0 min 0,000 mm 0,0 UV-I 0 W/m 13,6 C 6,4 km/h (2 Bft)
26.07.2016 22:59 14,2 C 14,2 C 96 % 1017,6 hPa 0,0 mm 1,9 km/h (1 Bft) SW 229 0 min 0,000 mm 0,0 UV-I 0 W/m 13,6 C 4,8 km/h (1 Bft)
26.07.2016 23:00 14,3 C 14,3 C 95 % 1017,6 hPa 0,0 mm 1,5 km/h (1 Bft) W-SW 250 0 min 0,000 mm 0,0 UV-I 0 W/m 13,5 C 3,2 km/h (1 Bft)
26.07.2016 23:01 14,3 C 14,3 C 95 % 1017,6 hPa 0,0 mm 3,2 km/h (1 Bft) W-SW 251 0 min 0,000 mm 0,0 UV-I 0 W/m 13,5 C 4,8 km/h (1 Bft)
26.07.2016 23:02 14,3 C 14,3 C 95 % 1017,7 hPa 0,0 mm 2,0 km/h (1 Bft) W 265 0 min 0,000 mm 0,0 UV-I 0 W/m 13,5 C 3,2 km/h (1 Bft)
26.07.2016 23:03 14,3 C 14,3 C 95 % 1017,7 hPa 0,0 mm 0,9 km/h (0 Bft) W 265 0 min 0,000 mm 0,0 UV-I 0 W/m 13,5 C 3,2 km/h (1 Bft)
26.07.2016 23:04 14,3 C 14,3 C 95 % 1017,6 hPa 0,0 mm 0,0 km/h (0 Bft) W 265 0 min 0,000 mm 0,0 UV-I 0 W/m 13,5 C 0,0 km/h (0 Bft)
26.07.2016 23:05 14,2 C 14,3 C 95 % 1017,6 hPa 0,0 mm 0,6 km/h (0 Bft) W 265 0 min 0,000 mm 0,0 UV-I 0 W/m 13,4 C 1,6 km/h (1 Bft)
26.07.2016 23:06 14,2 C 14,2 C 95 % 1017,6 hPa 0,0 mm 1,1 km/h (1 Bft) W 265 0 min 0,000 mm 0,0 UV-I 0 W/m 13,4 C 1,6 km/h (1 Bft)
26.07.2016 23:07 14,1 C 14,2 C 95 % 1017,6 hPa 0,0 mm 0,3 km/h (0 Bft) W 265 0 min 0,000 mm 0,0 UV-I 0 W/m 13,3 C 1,6 km/h (1 Bft)
26.07.2016 23:08 14,1 C 14,1 C 95 % 1017,6 hPa 0,0 mm 0,9 km/h (0 Bft) W 265 0 min 0,000 mm 0,0 UV-I 0 W/m 13,3 C 1,6 km/h (1 Bft)
26.07.2016 23:09 14,1 C 14,1 C 96 % 1017,6 hPa 0,0 mm 0,1 km/h (0 Bft) W 265 0 min 0,000 mm 0,0 UV-I 0 W/m 13,5 C 1,6 km/h (1 Bft)
26.07.2016 23:10 14,1 C 14,1 C 96 % 1017,5 hPa 0,0 mm 0,0 km/h (0 Bft) W 265 0 min 0,000 mm 0,0 UV-I 0 W/m 13,5 C 0,0 km/h (0 Bft)
26.07.2016 23:11 14,0 C 14,1 C 96 % 1017,5 hPa 0,0 mm 0,1 km/h (0 Bft) W 265 0 min 0,000 mm 0,0 UV-I 0 W/m 13,4 C 1,6 km/h (1 Bft)
26.07.2016 23:12 14,0 C 14,0 C 96 % 1017,5 hPa 0,0 mm 0,0 km/h (0 Bft) W 265 0 min 0,000 mm 0,0 UV-I 0 W/m 13,4 C 0,0 km/h (0 Bft)
26.07.2016 23:13 13,9 C 14,0 C 95 % 1017,5 hPa 0,0 mm 0,0 km/h (0 Bft) W 265 0 min 0,000 mm 0,0 UV-I 0 W/m 13,1 C 0,0 km/h (0 Bft)
26.07.2016 23:14 13,9 C 13,9 C 96 % 1017,5 hPa 0,0 mm 0,0 km/h (0 Bft) W 265 0 min 0,000 mm 0,0 UV-I 0 W/m 13,3 C 0,0 km/h (0 Bft)
26.07.2016 23:15 13,9 C 13,9 C 96 % 1017,5 hPa 0,0 mm 0,0 km/h (0 Bft) W 265 0 min 0,000 mm 0,0 UV-I 0 W/m 13,3 C 0,0 km/h (0 Bft)
26.07.2016 23:16 13,9 C 13,9 C 96 % 1017,5 hPa 0,0 mm 0,0 km/h (0 Bft) W 265 0 min 0,000 mm 0,0 UV-I 0 W/m 13,3 C 0,0 km/h (0 Bft)
26.07.2016 23:17 13,9 C 13,9 C 96 % 1017,5 hPa 0,0 mm 0,0 km/h (0 Bft) W 265 0 min 0,000 mm 0,0 UV-I 0 W/m 13,3 C 0,0 km/h (0 Bft)
26.07.2016 23:18 13,9 C 13,9 C 96 % 1017,4 hPa 0,0 mm 0,0 km/h (0 Bft) W 265 0 min 0,000 mm 0,0 UV-I 0 W/m 13,3 C 0,0 km/h (0 Bft)
26.07.2016 23:19 13,8 C 13,9 C 96 % 1017,4 hPa 0,0 mm 0,0 km/h (0 Bft) W 265 0 min 0,000 mm 0,0 UV-I 0 W/m 13,2 C 0,0 km/h (0 Bft)
26.07.2016 23:20 13,8 C 13,8 C 96 % 1017,4 hPa 0,0 mm 0,0 km/h (0 Bft) W 265 0 min 0,000 mm 0,0 UV-I 0 W/m 13,2 C 0,0 km/h (0 Bft)
26.07.2016 23:21 13,8 C 13,8 C 96 % 1017,5 hPa 0,0 mm 0,3 km/h (0 Bft) W 265 0 min 0,000 mm 0,0 UV-I 0 W/m 13,2 C 1,6 km/h (1 Bft)
26.07.2016 23:22 13,7 C 13,8 C 96 % 1017,4 hPa 0,0 mm 0,1 km/h (0 Bft) W 265 0 min 0,000 mm 0,0 UV-I 0 W/m 13,1 C 1,6 km/h (1 Bft)
26.07.2016 23:23 13,8 C 13,8 C 96 % 1017,4 hPa 0,0 mm 0,1 km/h (0 Bft) W 265 0 min 0,000 mm 0,0 UV-I 0 W/m 13,2 C 1,6 km/h (1 Bft)
26.07.2016 23:24 13,8 C 13,8 C 96 % 1017,4 hPa 0,0 mm 0,3 km/h (0 Bft) W 265 0 min 0,000 mm 0,0 UV-I 0 W/m 13,2 C 1,6 km/h (1 Bft)
26.07.2016 23:25 13,8 C 13,8 C 96 % 1017,4 hPa 0,0 mm 0,1 km/h (0 Bft) W 265 0 min 0,000 mm 0,0 UV-I 0 W/m 13,2 C 1,6 km/h (1 Bft)
26.07.2016 23:26 13,8 C 13,9 C 96 % 1017,4 hPa 0,0 mm 0,3 km/h (0 Bft) W 265 0 min 0,000 mm 0,0 UV-I 0 W/m 13,2 C 1,6 km/h (1 Bft)
26.07.2016 23:27 13,8 C 13,8 C 96 % 1017,4 hPa 0,0 mm 0,0 km/h (0 Bft) W 265 0 min 0,000 mm 0,0 UV-I 0 W/m 13,2 C 0,0 km/h (0 Bft)
26.07.2016 23:28 13,8 C 13,8 C 96 % 1017,4 hPa 0,0 mm 0,1 km/h (0 Bft) W 265 0 min 0,000 mm 0,0 UV-I 0 W/m 13,2 C 1,6 km/h (1 Bft)
26.07.2016 23:29 13,8 C 13,8 C 96 % 1017,4 hPa 0,0 mm 0,1 km/h (0 Bft) W 265 0 min 0,000 mm 0,0 UV-I 0 W/m 13,2 C 1,6 km/h (1 Bft)
26.07.2016 23:30 13,8 C 13,8 C 96 % 1017,4 hPa 0,0 mm 0,1 km/h (0 Bft) W 265 0 min 0,000 mm 0,0 UV-I 0 W/m 13,2 C 1,6 km/h (1 Bft)
26.07.2016 23:31 13,8 C 13,8 C 96 % 1017,3 hPa 0,0 mm 0,1 km/h (0 Bft) W 265 0 min 0,000 mm 0,0 UV-I 0 W/m 13,2 C 1,6 km/h (1 Bft)
26.07.2016 23:32 13,7 C 13,8 C 96 % 1017,4 hPa 0,0 mm 0,0 km/h (0 Bft) W 265 0 min 0,000 mm 0,0 UV-I 0 W/m 13,1 C 0,0 km/h (0 Bft)
26.07.2016 23:33 13,7 C 13,7 C 96 % 1017,4 hPa 0,0 mm 0,2 km/h (0 Bft) W 265 0 min 0,000 mm 0,0 UV-I 0 W/m 13,1 C 1,6 km/h (1 Bft)
26.07.2016 23:34 13,7 C 13,7 C 96 % 1017,4 hPa 0,0 mm 0,0 km/h (0 Bft) W 265 0 min 0,000 mm 0,0 UV-I 0 W/m 13,1 C 0,0 km/h (0 Bft)
26.07.2016 23:35 13,7 C 13,7 C 96 % 1017,3 hPa 0,0 mm 0,0 km/h (0 Bft) W 265 0 min 0,000 mm 0,0 UV-I 0 W/m 13,1 C 0,0 km/h (0 Bft)
26.07.2016 23:36 13,7 C 13,7 C 96 % 1017,3 hPa 0,0 mm 0,0 km/h (0 Bft) W 265 0 min 0,000 mm 0,0 UV-I 0 W/m 13,1 C 0,0 km/h (0 Bft)
26.07.2016 23:37 13,7 C 13,7 C 96 % 1017,3 hPa 0,0 mm 0,0 km/h (0 Bft) W 265 0 min 0,000 mm 0,0 UV-I 0 W/m 13,1 C 0,0 km/h (0 Bft)
26.07.2016 23:38 13,7 C 13,7 C 96 % 1017,3 hPa 0,0 mm 0,0 km/h (0 Bft) W 265 0 min 0,000 mm 0,0 UV-I 0 W/m 13,1 C 0,0 km/h (0 Bft)
26.07.2016 23:39 13,7 C 13,7 C 96 % 1017,4 hPa 0,0 mm 0,0 km/h (0 Bft) W 265 0 min 0,000 mm 0,0 UV-I 0 W/m 13,1 C 0,0 km/h (0 Bft)
26.07.2016 23:40 13,7 C 13,8 C 96 % 1017,3 hPa 0,0 mm 0,3 km/h (0 Bft) W 265 0 min 0,000 mm 0,0 UV-I 0 W/m 13,1 C 1,6 km/h (1 Bft)
26.07.2016 23:41 13,7 C 13,7 C 97 % 1017,3 hPa 0,0 mm 0,0 km/h (0 Bft) W 265 0 min 0,000 mm 0,0 UV-I 0 W/m 13,2 C 0,0 km/h (0 Bft)
26.07.2016 23:42 13,7 C 13,8 C 96 % 1017,3 hPa 0,0 mm 0,0 km/h (0 Bft) W 265 0 min 0,000 mm 0,0 UV-I 0 W/m 13,1 C 0,0 km/h (0 Bft)
26.07.2016 23:43 13,8 C 13,8 C 97 % 1017,3 hPa 0,0 mm 0,0 km/h (0 Bft) W 265 0 min 0,000 mm 0,0 UV-I 0 W/m 13,3 C 0,0 km/h (0 Bft)
26.07.2016 23:44 13,8 C 13,8 C 97 % 1017,3 hPa 0,0 mm 1,4 km/h (1 Bft) SW 225 0 min 0,000 mm 0,0 UV-I 0 W/m 13,3 C 4,8 km/h (1 Bft)
26.07.2016 23:45 13,8 C 13,8 C 97 % 1017,3 hPa 0,0 mm 1,0 km/h (0 Bft) W-SW 258 0 min 0,000 mm 0,0 UV-I 0 W/m 13,3 C 1,6 km/h (1 Bft)
26.07.2016 23:46 13,8 C 13,8 C 96 % 1017,2 hPa 0,0 mm 2,4 km/h (1 Bft) W-NW 288 0 min 0,000 mm 0,0 UV-I 0 W/m 13,2 C 4,8 km/h (1 Bft)
26.07.2016 23:47 13,7 C 13,8 C 96 % 1017,3 hPa 0,0 mm 1,4 km/h (1 Bft) NW 326 0 min 0,000 mm 0,0 UV-I 0 W/m 13,1 C 3,2 km/h (1 Bft)
26.07.2016 23:48 13,7 C 13,8 C 96 % 1017,3 hPa 0,0 mm 0,3 km/h (0 Bft) NW 326 0 min 0,000 mm 0,0 UV-I 0 W/m 13,1 C 1,6 km/h (1 Bft)
26.07.2016 23:49 13,8 C 13,8 C 96 % 1017,3 hPa 0,0 mm 0,0 km/h (0 Bft) NW 326 0 min 0,000 mm 0,0 UV-I 0 W/m 13,2 C 0,0 km/h (0 Bft)
26.07.2016 23:50 13,8 C 13,8 C 96 % 1017,3 hPa 0,0 mm 1,0 km/h (0 Bft) N-NW 338 0 min 0,000 mm 0,0 UV-I 0 W/m 13,2 C 3,2 km/h (1 Bft)
26.07.2016 23:51 13,8 C 13,8 C 96 % 1017,3 hPa 0,0 mm 0,7 km/h (0 Bft) N-NW 339 0 min 0,000 mm 0,0 UV-I 0 W/m 13,2 C 3,2 km/h (1 Bft)
26.07.2016 23:52 13,8 C 13,8 C 96 % 1017,3 hPa 0,0 mm 1,3 km/h (1 Bft) O-NO 71 0 min 0,000 mm 0,0 UV-I 0 W/m 13,2 C 3,2 km/h (1 Bft)
26.07.2016 23:53 13,8 C 13,8 C 97 % 1017,3 hPa 0,0 mm 0,0 km/h (0 Bft) O-NO 71 0 min 0,000 mm 0,0 UV-I 0 W/m 13,3 C 0,0 km/h (0 Bft)
26.07.2016 23:54 13,8 C 13,8 C 96 % 1017,3 hPa 0,0 mm 1,0 km/h (0 Bft) NO 55 0 min 0,000 mm 0,0 UV-I 0 W/m 13,2 C 3,2 km/h (1 Bft)
26.07.2016 23:55 13,8 C 13,8 C 96 % 1017,2 hPa 0,0 mm 1,1 km/h (1 Bft) NO 55 0 min 0,000 mm 0,0 UV-I 0 W/m 13,2 C 1,6 km/h (1 Bft)
26.07.2016 23:56 13,8 C 13,8 C 96 % 1017,2 hPa 0,0 mm 1,1 km/h (1 Bft) NO 55 0 min 0,000 mm 0,0 UV-I 0 W/m 13,2 C 3,2 km/h (1 Bft)
26.07.2016 23:57 13,8 C 13,8 C 96 % 1017,3 hPa 0,0 mm 0,0 km/h (0 Bft) NO 55 0 min 0,000 mm 0,0 UV-I 0 W/m 13,2 C 0,0 km/h (0 Bft)
26.07.2016 23:58 13,8 C 13,8 C 96 % 1017,3 hPa 0,0 mm 0,5 km/h (0 Bft) N 9 0 min 0,000 mm 0,0 UV-I 0 W/m 13,2 C 1,6 km/h (1 Bft)
26.07.2016 23:59 13,8 C 13,8 C 96 % 1017,3 hPa 0,0 mm 0,5 km/h (0 Bft) N 9 0 min 0,000 mm 0,0 UV-I 0 W/m 13,2 C 1,6 km/h (1 Bft)
_ Min-Zeit 23:48 23:41 14:52 16:30 - 23:57 - - - - - - 23:48 23:57
Minimum _ 13,7 C 13,7 C 61 % 1015,8 hPa - 0,0 km/h (0 Bft) - - - - - - 13,1 C 0,0 km/h (0 Bft)
_ Max-Zeit 14:50 14:50 23:53 08:34 16:58 16:58 - - 10:21 12:01 14:17 14:16 14:23 16:58
Maximum _ 24,2 C 24,2 C 97 % 1018,2 hPa 2,6 mm 29,7 km/h
NO (5 Bft)
- - 2 min 0,483 mm 7,4 UV-I 1076 W/m 19,0 C 45,1 km/h
N-NO (6 Bft)
Durchschnitt _ 17,9 C 17,9 C 88 % 1017,5 hPa #49,4 mm 2,2 km/h (1 Bft) W - #3:40 h #2,591 mm 3,5 UV-I 173 W/m 15,7 C 3,8 km/h (1 Bft)